Wetterdaten: Sonntag, 24.05.2020
Datum Zeit Temp. 2m Temp +5 cm Feuchte A. Luftdruck Regen Wind Richtung Richtung Sonnenschein UV Solar Taupunkt Windchill Windben
24.05.2020 00:00 6,7 C 4,4 C 81 % 1029,4 hPa 0,0 l/m 6,4 km/h (2 Bft) SW 225 0 min 0,0 UV-I 0 W/m 3,7 C 6,7 C 8,0 km/h (2 Bft)
24.05.2020 00:01 6,8 C 4,4 C 81 % 1029,4 hPa 0,0 l/m 6,4 km/h (2 Bft) SW 225 0 min 0,0 UV-I 0 W/m 3,8 C 6,8 C 9,7 km/h (2 Bft)
24.05.2020 00:02 6,8 C 4,4 C 81 % 1029,5 hPa 0,0 l/m 4,8 km/h (1 Bft) SW 225 0 min 0,0 UV-I 0 W/m 3,8 C 6,8 C 6,4 km/h (2 Bft)
24.05.2020 00:03 6,8 C 4,4 C 81 % 1029,4 hPa 0,0 l/m 6,4 km/h (2 Bft) S-SW 202 0 min 0,0 UV-I 0 W/m 3,8 C 6,8 C 9,7 km/h (2 Bft)
24.05.2020 00:04 6,8 C 4,4 C 81 % 1029,5 hPa 0,0 l/m 4,8 km/h (1 Bft) S-SW 202 0 min 0,0 UV-I 0 W/m 3,8 C 6,8 C 8,0 km/h (2 Bft)
24.05.2020 00:05 6,8 C 4,4 C 81 % 1029,4 hPa 0,0 l/m 6,4 km/h (2 Bft) S-SW 202 0 min 0,0 UV-I 0 W/m 3,8 C 6,8 C 8,0 km/h (2 Bft)
24.05.2020 00:06 6,7 C 4,4 C 80 % 1029,4 hPa 0,0 l/m 6,4 km/h (2 Bft) SW 225 0 min 0,0 UV-I 0 W/m 3,5 C 6,7 C 11,3 km/h (2 Bft)
24.05.2020 00:07 6,7 C 4,4 C 81 % 1029,5 hPa 0,0 l/m 6,4 km/h (2 Bft) SW 225 0 min 0,0 UV-I 0 W/m 3,7 C 6,7 C 8,0 km/h (2 Bft)
24.05.2020 00:08 6,7 C 4,4 C 81 % 1029,4 hPa 0,0 l/m 8,0 km/h (2 Bft) S-SW 202 0 min 0,0 UV-I 0 W/m 3,7 C 5,4 C 11,3 km/h (2 Bft)
24.05.2020 00:09 6,6 C 4,4 C 81 % 1029,4 hPa 0,0 l/m 6,4 km/h (2 Bft) SW 225 0 min 0,0 UV-I 0 W/m 3,6 C 6,6 C 9,7 km/h (2 Bft)
24.05.2020 00:10 6,6 C 4,4 C 81 % 1029,5 hPa 0,0 l/m 8,0 km/h (2 Bft) S-SW 202 0 min 0,0 UV-I 0 W/m 3,6 C 5,3 C 11,3 km/h (2 Bft)
24.05.2020 00:11 6,7 C 4,4 C 81 % 1029,4 hPa 0,0 l/m 8,0 km/h (2 Bft) S-SW 202 0 min 0,0 UV-I 0 W/m 3,7 C 5,4 C 11,3 km/h (2 Bft)
24.05.2020 00:12 6,6 C 4,4 C 81 % 1029,4 hPa 0,0 l/m 8,0 km/h (2 Bft) SW 225 0 min 0,0 UV-I 0 W/m 3,6 C 5,3 C 9,7 km/h (2 Bft)
24.05.2020 00:13 6,6 C 4,4 C 81 % 1029,4 hPa 0,0 l/m 8,0 km/h (2 Bft) SW 225 0 min 0,0 UV-I 0 W/m 3,6 C 5,3 C 11,3 km/h (2 Bft)
24.05.2020 00:14 6,6 C 5,0 C 81 % 1029,4 hPa 0,0 l/m 8,0 km/h (2 Bft) SW 225 0 min 0,0 UV-I 0 W/m 3,6 C 5,3 C 9,7 km/h (2 Bft)
24.05.2020 00:15 6,6 C 5,0 C 81 % 1029,5 hPa 0,0 l/m 8,0 km/h (2 Bft) SW 225 0 min 0,0 UV-I 0 W/m 3,6 C 5,3 C 9,7 km/h (2 Bft)
24.05.2020 00:16 6,6 C 5,0 C 81 % 1029,4 hPa 0,0 l/m 8,0 km/h (2 Bft) SW 225 0 min 0,0 UV-I 0 W/m 3,6 C 5,3 C 11,3 km/h (2 Bft)
24.05.2020 00:17 6,6 C 5,0 C 81 % 1029,5 hPa 0,0 l/m 6,4 km/h (2 Bft) SW 225 0 min 0,0 UV-I 0 W/m 3,6 C 6,6 C 11,3 km/h (2 Bft)
24.05.2020 00:18 6,6 C 5,0 C 81 % 1029,4 hPa 0,0 l/m 6,4 km/h (2 Bft) S-SW 202 0 min 0,0 UV-I 0 W/m 3,6 C 6,6 C 9,7 km/h (2 Bft)
24.05.2020 00:19 6,6 C 4,4 C 81 % 1029,4 hPa 0,0 l/m 6,4 km/h (2 Bft) SW 225 0 min 0,0 UV-I 0 W/m 3,6 C 6,6 C 6,4 km/h (2 Bft)
24.05.2020 00:20 6,6 C 4,4 C 81 % 1029,4 hPa 0,0 l/m 6,4 km/h (2 Bft) SW 225 0 min 0,0 UV-I 0 W/m 3,6 C 6,6 C 9,7 km/h (2 Bft)
24.05.2020 00:21 6,6 C 4,4 C 81 % 1029,4 hPa 0,0 l/m 6,4 km/h (2 Bft) SW 225 0 min 0,0 UV-I 0 W/m 3,6 C 6,6 C 9,7 km/h (2 Bft)
24.05.2020 00:22 6,7 C 4,4 C 81 % 1029,5 hPa 0,0 l/m 8,0 km/h (2 Bft) SW 225 0 min 0,0 UV-I 0 W/m 3,7 C 5,4 C 11,3 km/h (2 Bft)
24.05.2020 00:23 6,6 C 4,4 C 80 % 1029,5 hPa 0,0 l/m 6,4 km/h (2 Bft) SW 225 0 min 0,0 UV-I 0 W/m 3,4 C 6,6 C 8,0 km/h (2 Bft)
24.05.2020 00:24 6,6 C 4,4 C 80 % 1029,6 hPa 0,0 l/m 4,8 km/h (1 Bft) SW 225 0 min 0,0 UV-I 0 W/m 3,4 C 6,6 C 6,4 km/h (2 Bft)
24.05.2020 00:25 6,7 C 4,4 C 81 % 1029,5 hPa 0,0 l/m 4,8 km/h (1 Bft) SW 225 0 min 0,0 UV-I 0 W/m 3,7 C 6,7 C 9,7 km/h (2 Bft)
24.05.2020 00:26 6,6 C 4,4 C 80 % 1029,5 hPa 0,0 l/m 6,4 km/h (2 Bft) S-SW 202 0 min 0,0 UV-I 0 W/m 3,4 C 6,6 C 9,7 km/h (2 Bft)
24.05.2020 00:27 6,6 C 4,4 C 81 % 1029,6 hPa 0,0 l/m 4,8 km/h (1 Bft) SW 225 0 min 0,0 UV-I 0 W/m 3,6 C 6,6 C 8,0 km/h (2 Bft)
24.05.2020 00:28 6,6 C 4,4 C 80 % 1029,6 hPa 0,0 l/m 6,4 km/h (2 Bft) SW 225 0 min 0,0 UV-I 0 W/m 3,4 C 6,6 C 8,0 km/h (2 Bft)
24.05.2020 00:29 6,6 C 4,4 C 80 % 1029,5 hPa 0,0 l/m 3,2 km/h (1 Bft) SW 225 0 min 0,0 UV-I 0 W/m 3,4 C 6,6 C 6,4 km/h (2 Bft)
24.05.2020 00:30 6,5 C 4,4 C 81 % 1029,6 hPa 0,0 l/m 3,2 km/h (1 Bft) SW 225 0 min 0,0 UV-I 0 W/m 3,5 C 6,5 C 6,4 km/h (2 Bft)
24.05.2020 00:31 6,5 C 4,4 C 81 % 1029,5 hPa 0,0 l/m 4,8 km/h (1 Bft) SW 225 0 min 0,0 UV-I 0 W/m 3,5 C 6,5 C 6,4 km/h (2 Bft)
24.05.2020 00:32 6,5 C 4,4 C 81 % 1029,5 hPa 0,0 l/m 3,2 km/h (1 Bft) SW 225 0 min 0,0 UV-I 0 W/m 3,5 C 6,5 C 4,8 km/h (1 Bft)
24.05.2020 00:33 6,4 C 4,4 C 81 % 1029,5 hPa 0,0 l/m 3,2 km/h (1 Bft) SW 225 0 min 0,0 UV-I 0 W/m 3,4 C 6,4 C 4,8 km/h (1 Bft)
24.05.2020 00:34 6,5 C 4,4 C 81 % 1029,6 hPa 0,0 l/m 3,2 km/h (1 Bft) SW 225 0 min 0,0 UV-I 0 W/m 3,5 C 6,5 C 4,8 km/h (1 Bft)
24.05.2020 00:35 6,4 C 3,9 C 81 % 1029,6 hPa 0,0 l/m 4,8 km/h (1 Bft) SW 225 0 min 0,0 UV-I 0 W/m 3,4 C 6,4 C 6,4 km/h (2 Bft)
24.05.2020 00:36 6,4 C 3,9 C 80 % 1029,6 hPa 0,0 l/m 4,8 km/h (1 Bft) SW 225 0 min 0,0 UV-I 0 W/m 3,2 C 6,4 C 4,8 km/h (1 Bft)
24.05.2020 00:37 6,4 C 3,9 C 81 % 1029,6 hPa 0,0 l/m 4,8 km/h (1 Bft) S-SW 202 0 min 0,0 UV-I 0 W/m 3,4 C 6,4 C 6,4 km/h (2 Bft)
24.05.2020 00:38 6,4 C 3,9 C 81 % 1029,5 hPa 0,0 l/m 4,8 km/h (1 Bft) S-SW 202 0 min 0,0 UV-I 0 W/m 3,4 C 6,4 C 6,4 km/h (2 Bft)
24.05.2020 00:39 6,4 C 3,9 C 80 % 1029,5 hPa 0,0 l/m 4,8 km/h (1 Bft) S-SW 202 0 min 0,0 UV-I 0 W/m 3,2 C 6,4 C 6,4 km/h (2 Bft)
24.05.2020 00:40 6,4 C 3,9 C 80 % 1029,6 hPa 0,0 l/m 4,8 km/h (1 Bft) S-SW 202 0 min 0,0 UV-I 0 W/m 3,2 C 6,4 C 8,0 km/h (2 Bft)
24.05.2020 00:41 6,3 C 3,9 C 80 % 1029,6 hPa 0,0 l/m 3,2 km/h (1 Bft) W-SW 247 0 min 0,0 UV-I 0 W/m 3,1 C 6,3 C 6,4 km/h (2 Bft)
24.05.2020 00:42 6,4 C 3,9 C 81 % 1029,5 hPa 0,0 l/m 4,8 km/h (1 Bft) SW 225 0 min 0,0 UV-I 0 W/m 3,4 C 6,4 C 6,4 km/h (2 Bft)
24.05.2020 00:43 6,4 C 3,9 C 80 % 1029,6 hPa 0,0 l/m 3,2 km/h (1 Bft) SW 225 0 min 0,0 UV-I 0 W/m 3,2 C 6,4 C 6,4 km/h (2 Bft)
24.05.2020 00:44 6,4 C 3,9 C 80 % 1029,6 hPa 0,0 l/m 4,8 km/h (1 Bft) SW 225 0 min 0,0 UV-I 0 W/m 3,2 C 6,4 C 9,7 km/h (2 Bft)
24.05.2020 00:45 6,4 C 3,9 C 80 % 1029,6 hPa 0,0 l/m 4,8 km/h (1 Bft) SW 225 0 min 0,0 UV-I 0 W/m 3,2 C 6,4 C 6,4 km/h (2 Bft)
24.05.2020 00:46 6,4 C 3,9 C 80 % 1029,6 hPa 0,0 l/m 3,2 km/h (1 Bft) SW 225 0 min 0,0 UV-I 0 W/m 3,2 C 6,4 C 4,8 km/h (1 Bft)
24.05.2020 00:47 6,4 C 3,9 C 80 % 1029,5 hPa 0,0 l/m 6,4 km/h (2 Bft) S-SW 202 0 min 0,0 UV-I 0 W/m 3,2 C 6,4 C 8,0 km/h (2 Bft)
24.05.2020 00:48 6,4 C 3,9 C 80 % 1029,6 hPa 0,0 l/m 6,4 km/h (2 Bft) SW 225 0 min 0,0 UV-I 0 W/m 3,2 C 6,4 C 8,0 km/h (2 Bft)
24.05.2020 00:49 6,4 C 4,4 C 80 % 1029,5 hPa 0,0 l/m 3,2 km/h (1 Bft) S-SW 202 0 min 0,0 UV-I 0 W/m 3,2 C 6,4 C 6,4 km/h (2 Bft)
24.05.2020 00:50 6,4 C 4,4 C 80 % 1029,5 hPa 0,0 l/m 4,8 km/h (1 Bft) S-SW 202 0 min 0,0 UV-I 0 W/m 3,2 C 6,4 C 6,4 km/h (2 Bft)
24.05.2020 00:51 6,5 C 4,4 C 80 % 1029,6 hPa 0,0 l/m 4,8 km/h (1 Bft) SW 225 0 min 0,0 UV-I 0 W/m 3,3 C 6,5 C 8,0 km/h (2 Bft)
24.05.2020 00:52 6,5 C 4,4 C 80 % 1029,5 hPa 0,0 l/m 6,4 km/h (2 Bft) SW 225 0 min 0,0 UV-I 0 W/m 3,3 C 6,5 C 8,0 km/h (2 Bft)
24.05.2020 00:53 6,5 C 4,4 C 80 % 1029,5 hPa 0,0 l/m 4,8 km/h (1 Bft) W-SW 247 0 min 0,0 UV-I 0 W/m 3,3 C 6,5 C 9,7 km/h (2 Bft)
24.05.2020 00:54 6,5 C 4,4 C 80 % 1029,5 hPa 0,0 l/m 4,8 km/h (1 Bft) S-SW 202 0 min 0,0 UV-I 0 W/m 3,3 C 6,5 C 9,7 km/h (2 Bft)
24.05.2020 00:55 6,6 C 4,4 C 79 % 1029,5 hPa 0,0 l/m 3,2 km/h (1 Bft) W-SW 247 0 min 0,0 UV-I 0 W/m 3,2 C 6,6 C 4,8 km/h (1 Bft)
24.05.2020 00:56 6,6 C 4,4 C 80 % 1029,5 hPa 0,0 l/m 6,4 km/h (2 Bft) SW 225 0 min 0,0 UV-I 0 W/m 3,4 C 6,6 C 14,5 km/h (3 Bft)
24.05.2020 00:57 6,6 C 4,4 C 79 % 1029,6 hPa 0,0 l/m 8,0 km/h (2 Bft) SW 225 0 min 0,0 UV-I 0 W/m 3,2 C 5,3 C 11,3 km/h (2 Bft)
24.05.2020 00:58 6,7 C 5,0 C 79 % 1029,6 hPa 0,0 l/m 6,4 km/h (2 Bft) SW 225 0 min 0,0 UV-I 0 W/m 3,3 C 6,7 C 14,5 km/h (3 Bft)
24.05.2020 00:59 6,7 C 5,0 C 79 % 1029,5 hPa 0,0 l/m 3,2 km/h (1 Bft) SW 225 0 min 0,0 UV-I 0 W/m 3,3 C 6,7 C 6,4 km/h (2 Bft)
24.05.2020 01:00 6,7 C 5,0 C 79 % 1029,5 hPa 0,0 l/m 4,8 km/h (1 Bft) SW 225 0 min 0,0 UV-I 0 W/m 3,3 C 6,7 C 9,7 km/h (2 Bft)
24.05.2020 01:01 6,7 C 5,0 C 79 % 1029,6 hPa 0,0 l/m 6,4 km/h (2 Bft) W-SW 247 0 min 0,0 UV-I 0 W/m 3,3 C 6,7 C 8,0 km/h (2 Bft)
24.05.2020 01:02 6,7 C 5,0 C 79 % 1029,5 hPa 0,0 l/m 11,3 km/h (2 Bft) W-SW 247 0 min 0,0 UV-I 0 W/m 3,3 C 3,1 C 14,5 km/h (3 Bft)
24.05.2020 01:03 6,7 C 5,0 C 79 % 1029,5 hPa 0,0 l/m 4,8 km/h (1 Bft) SW 225 0 min 0,0 UV-I 0 W/m 3,3 C 6,7 C 8,0 km/h (2 Bft)
24.05.2020 01:04 6,7 C 5,0 C 78 % 1029,5 hPa 0,0 l/m 6,4 km/h (2 Bft) SW 225 0 min 0,0 UV-I 0 W/m 3,1 C 6,7 C 8,0 km/h (2 Bft)
24.05.2020 01:05 6,7 C 5,0 C 79 % 1029,5 hPa 0,0 l/m 4,8 km/h (1 Bft) S-SW 202 0 min 0,0 UV-I 0 W/m 3,3 C 6,7 C 8,0 km/h (2 Bft)
24.05.2020 01:06 6,7 C 5,0 C 79 % 1029,5 hPa 0,0 l/m 4,8 km/h (1 Bft) W-SW 247 0 min 0,0 UV-I 0 W/m 3,3 C 6,7 C 8,0 km/h (2 Bft)
24.05.2020 01:07 6,7 C 5,0 C 78 % 1029,5 hPa 0,0 l/m 3,2 km/h (1 Bft) SW 225 0 min 0,0 UV-I 0 W/m 3,1 C 6,7 C 8,0 km/h (2 Bft)
24.05.2020 01:08 6,7 C 5,0 C 78 % 1029,5 hPa 0,0 l/m 4,8 km/h (1 Bft) SW 225 0 min 0,0 UV-I 0 W/m 3,1 C 6,7 C 6,4 km/h (2 Bft)
24.05.2020 01:09 6,7 C 5,0 C 78 % 1029,5 hPa 0,0 l/m 6,4 km/h (2 Bft) W-SW 247 0 min 0,0 UV-I 0 W/m 3,1 C 6,7 C 11,3 km/h (2 Bft)
24.05.2020 01:10 6,6 C 5,0 C 79 % 1029,5 hPa 0,0 l/m 8,0 km/h (2 Bft) SW 225 0 min 0,0 UV-I 0 W/m 3,2 C 5,3 C 12,9 km/h (3 Bft)
24.05.2020 01:11 6,6 C 5,0 C 79 % 1029,5 hPa 0,0 l/m 4,8 km/h (1 Bft) SW 225 0 min 0,0 UV-I 0 W/m 3,2 C 6,6 C 8,0 km/h (2 Bft)
24.05.2020 01:12 6,6 C 5,0 C 79 % 1029,5 hPa 0,0 l/m 8,0 km/h (2 Bft) W-SW 247 0 min 0,0 UV-I 0 W/m 3,2 C 5,3 C 11,3 km/h (2 Bft)
24.05.2020 01:13 6,6 C 5,0 C 79 % 1029,5 hPa 0,0 l/m 4,8 km/h (1 Bft) SW 225 0 min 0,0 UV-I 0 W/m 3,2 C 6,6 C 6,4 km/h (2 Bft)
24.05.2020 01:14 6,6 C 5,0 C 79 % 1029,5 hPa 0,0 l/m 6,4 km/h (2 Bft) SW 225 0 min 0,0 UV-I 0 W/m 3,2 C 6,6 C 12,9 km/h (3 Bft)
24.05.2020 01:15 6,6 C 5,0 C 79 % 1029,6 hPa 0,0 l/m 4,8 km/h (1 Bft) W-SW 247 0 min 0,0 UV-I 0 W/m 3,2 C 6,6 C 8,0 km/h (2 Bft)
24.05.2020 01:16 6,6 C 5,0 C 79 % 1029,6 hPa 0,0 l/m 4,8 km/h (1 Bft) SW 225 0 min 0,0 UV-I 0 W/m 3,2 C 6,6 C 8,0 km/h (2 Bft)
24.05.2020 01:17 6,6 C 4,4 C 79 % 1029,6 hPa 0,0 l/m 6,4 km/h (2 Bft) SW 225 0 min 0,0 UV-I 0 W/m 3,2 C 6,6 C 12,9 km/h (3 Bft)
24.05.2020 01:18 6,6 C 5,0 C 79 % 1029,6 hPa 0,0 l/m 4,8 km/h (1 Bft) SW 225 0 min 0,0 UV-I 0 W/m 3,2 C 6,6 C 8,0 km/h (2 Bft)
24.05.2020 01:19 6,6 C 4,4 C 79 % 1029,5 hPa 0,0 l/m 4,8 km/h (1 Bft) SW 225 0 min 0,0 UV-I 0 W/m 3,2 C 6,6 C 9,7 km/h (2 Bft)
24.05.2020 01:20 6,5 C 4,4 C 79 % 1029,6 hPa 0,0 l/m 4,8 km/h (1 Bft) SW 225 0 min 0,0 UV-I 0 W/m 3,1 C 6,5 C 9,7 km/h (2 Bft)
24.05.2020 01:21 6,4 C 4,4 C 79 % 1029,5 hPa 0,0 l/m 6,4 km/h (2 Bft) SW 225 0 min 0,0 UV-I 0 W/m 3,0 C 6,4 C 11,3 km/h (2 Bft)
24.05.2020 01:22 6,4 C 4,4 C 79 % 1029,5 hPa 0,0 l/m 6,4 km/h (2 Bft) SW 225 0 min 0,0 UV-I 0 W/m 3,0 C 6,4 C 12,9 km/h (3 Bft)
24.05.2020 01:23 6,4 C 4,4 C 79 % 1029,5 hPa 0,0 l/m 6,4 km/h (2 Bft) SW 225 0 min 0,0 UV-I 0 W/m 3,0 C 6,4 C 9,7 km/h (2 Bft)
24.05.2020 01:24 6,3 C 4,4 C 79 % 1029,5 hPa 0,0 l/m 4,8 km/h (1 Bft) SW 225 0 min 0,0 UV-I 0 W/m 2,9 C 6,3 C 8,0 km/h (2 Bft)
24.05.2020 01:25 6,3 C 4,4 C 79 % 1029,5 hPa 0,0 l/m 4,8 km/h (1 Bft) SW 225 0 min 0,0 UV-I 0 W/m 2,9 C 6,3 C 9,7 km/h (2 Bft)
24.05.2020 01:26 6,3 C 4,4 C 80 % 1029,6 hPa 0,0 l/m 4,8 km/h (1 Bft) SW 225 0 min 0,0 UV-I 0 W/m 3,1 C 6,3 C 8,0 km/h (2 Bft)
24.05.2020 01:27 6,3 C 4,4 C 80 % 1029,5 hPa 0,0 l/m 6,4 km/h (2 Bft) SW 225 0 min 0,0 UV-I 0 W/m 3,1 C 6,3 C 11,3 km/h (2 Bft)
24.05.2020 01:28 6,2 C 4,4 C 80 % 1029,5 hPa 0,0 l/m 6,4 km/h (2 Bft) SW 225 0 min 0,0 UV-I 0 W/m 3,0 C 6,2 C 11,3 km/h (2 Bft)
24.05.2020 01:29 6,2 C 4,4 C 80 % 1029,5 hPa 0,0 l/m 9,7 km/h (2 Bft) S-SW 202 0 min 0,0 UV-I 0 W/m 3,0 C 3,6 C 11,3 km/h (2 Bft)
24.05.2020 01:30 6,2 C 4,4 C 80 % 1029,6 hPa 0,0 l/m 6,4 km/h (2 Bft) SW 225 0 min 0,0 UV-I 0 W/m 3,0 C 6,2 C 11,3 km/h (2 Bft)
24.05.2020 01:31 6,2 C 4,4 C 80 % 1029,5 hPa 0,0 l/m 9,7 km/h (2 Bft) SW 225 0 min 0,0 UV-I 0 W/m 3,0 C 3,6 C 17,7 km/h (3 Bft)
24.05.2020 01:32 6,2 C 4,4 C 80 % 1029,4 hPa 0,0 l/m 8,0 km/h (2 Bft) SW 225 0 min 0,0 UV-I 0 W/m 3,0 C 4,9 C 12,9 km/h (3 Bft)
24.05.2020 01:33 6,2 C 4,4 C 80 % 1029,5 hPa 0,0 l/m 6,4 km/h (2 Bft) SW 225 0 min 0,0 UV-I 0 W/m 3,0 C 6,2 C 17,7 km/h (3 Bft)
24.05.2020 01:34 6,2 C 4,4 C 80 % 1029,5 hPa 0,0 l/m 4,8 km/h (1 Bft) SW 225 0 min 0,0 UV-I 0 W/m 3,0 C 6,2 C 14,5 km/h (3 Bft)
24.05.2020 01:35 6,2 C 4,4 C 80 % 1029,4 hPa 0,0 l/m 8,0 km/h (2 Bft) S-SW 202 0 min 0,0 UV-I 0 W/m 3,0 C 4,9 C 14,5 km/h (3 Bft)
24.05.2020 01:36 6,2 C 4,4 C 80 % 1029,5 hPa 0,0 l/m 8,0 km/h (2 Bft) S-SW 202 0 min 0,0 UV-I 0 W/m 3,0 C 4,9 C 11,3 km/h (2 Bft)
24.05.2020 01:37 6,2 C 4,4 C 80 % 1029,4 hPa 0,0 l/m 8,0 km/h (2 Bft) S-SW 202 0 min 0,0 UV-I 0 W/m 3,0 C 4,9 C 11,3 km/h (2 Bft)
24.05.2020 01:38 6,2 C 4,4 C 80 % 1029,4 hPa 0,0 l/m 6,4 km/h (2 Bft) SW 225 0 min 0,0 UV-I 0 W/m 3,0 C 6,2 C 9,7 km/h (2 Bft)
24.05.2020 01:39 6,2 C 4,4 C 81 % 1029,5 hPa 0,0 l/m 4,8 km/h (1 Bft) S-SW 202 0 min 0,0 UV-I 0 W/m 3,2 C 6,2 C 8,0 km/h (2 Bft)
24.05.2020 01:40 6,1 C 4,4 C 81 % 1029,4 hPa 0,0 l/m 6,4 km/h (2 Bft) S-SW 202 0 min 0,0 UV-I 0 W/m 3,1 C 6,1 C 9,7 km/h (2 Bft)
24.05.2020 01:41 6,1 C 4,4 C 81 % 1029,4 hPa 0,0 l/m 6,4 km/h (2 Bft) S-SW 202 0 min 0,0 UV-I 0 W/m 3,1 C 6,1 C 9,7 km/h (2 Bft)
24.05.2020 01:42 6,1 C 4,4 C 81 % 1029,5 hPa 0,0 l/m 8,0 km/h (2 Bft) S-SW 202 0 min 0,0 UV-I 0 W/m 3,1 C 4,8 C 12,9 km/h (3 Bft)
24.05.2020 01:43 6,1 C 4,4 C 81 % 1029,5 hPa 0,0 l/m 4,8 km/h (1 Bft) S-SW 202 0 min 0,0 UV-I 0 W/m 3,1 C 6,1 C 9,7 km/h (2 Bft)
24.05.2020 01:44 6,1 C 4,4 C 81 % 1029,4 hPa 0,0 l/m 4,8 km/h (1 Bft) S-SW 202 0 min 0,0 UV-I 0 W/m 3,1 C 6,1 C 6,4 km/h (2 Bft)
24.05.2020 01:45 6,0 C 4,4 C 81 % 1029,5 hPa 0,0 l/m 6,4 km/h (2 Bft) SW 225 0 min 0,0 UV-I 0 W/m 3,0 C 6,0 C 8,0 km/h (2 Bft)
24.05.2020 01:46 5,9 C 3,9 C 81 % 1029,4 hPa 0,0 l/m 6,4 km/h (2 Bft) S-SW 202 0 min 0,0 UV-I 0 W/m 2,9 C 5,9 C 9,7 km/h (2 Bft)
24.05.2020 01:47 5,9 C 3,9 C 82 % 1029,4 hPa 0,0 l/m 8,0 km/h (2 Bft) S-SW 202 0 min 0,0 UV-I 0 W/m 3,1 C 4,5 C 12,9 km/h (3 Bft)
24.05.2020 01:48 6,0 C 3,9 C 82 % 1029,4 hPa 0,0 l/m 4,8 km/h (1 Bft) SW 225 0 min 0,0 UV-I 0 W/m 3,2 C 6,0 C 6,4 km/h (2 Bft)
24.05.2020 01:49 6,0 C 3,9 C 82 % 1029,4 hPa 0,0 l/m 8,0 km/h (2 Bft) SW 225 0 min 0,0 UV-I 0 W/m 3,2 C 4,7 C 16,1 km/h (3 Bft)
24.05.2020 01:50 6,0 C 4,4 C 82 % 1029,4 hPa 0,0 l/m 8,0 km/h (2 Bft) SW 225 0 min 0,0 UV-I 0 W/m 3,2 C 4,7 C 14,5 km/h (3 Bft)
24.05.2020 01:51 6,1 C 4,4 C 81 % 1029,4 hPa 0,0 l/m 6,4 km/h (2 Bft) S-SW 202 0 min 0,0 UV-I 0 W/m 3,1 C 6,1 C 11,3 km/h (2 Bft)
24.05.2020 01:52 6,1 C 4,4 C 81 % 1029,4 hPa 0,0 l/m 6,4 km/h (2 Bft) SW 225 0 min 0,0 UV-I 0 W/m 3,1 C 6,1 C 9,7 km/h (2 Bft)
24.05.2020 01:53 6,1 C 4,4 C 82 % 1029,3 hPa 0,0 l/m 8,0 km/h (2 Bft) SW 225 0 min 0,0 UV-I 0 W/m 3,3 C 4,8 C 9,7 km/h (2 Bft)
24.05.2020 01:54 6,1 C 4,4 C 81 % 1029,4 hPa 0,0 l/m 6,4 km/h (2 Bft) S-SW 202 0 min 0,0 UV-I 0 W/m 3,1 C 6,1 C 8,0 km/h (2 Bft)
24.05.2020 01:55 6,1 C 4,4 C 81 % 1029,3 hPa 0,0 l/m 8,0 km/h (2 Bft) S-SW 202 0 min 0,0 UV-I 0 W/m 3,1 C 4,8 C 11,3 km/h (2 Bft)
24.05.2020 01:56 6,1 C 4,4 C 82 % 1029,4 hPa 0,0 l/m 6,4 km/h (2 Bft) S-SW 202 0 min 0,0 UV-I 0 W/m 3,3 C 6,1 C 12,9 km/h (3 Bft)
24.05.2020 01:57 6,1 C 4,4 C 82 % 1029,4 hPa 0,0 l/m 11,3 km/h (2 Bft) S-SW 202 0 min 0,0 UV-I 0 W/m 3,3 C 2,4 C 14,5 km/h (3 Bft)
24.05.2020 01:58 6,1 C 4,4 C 82 % 1029,4 hPa 0,0 l/m 6,4 km/h (2 Bft) S-SW 202 0 min 0,0 UV-I 0 W/m 3,3 C 6,1 C 11,3 km/h (2 Bft)
24.05.2020 01:59 6,2 C 4,4 C 82 % 1029,4 hPa 0,0 l/m 6,4 km/h (2 Bft) S-SW 202 0 min 0,0 UV-I 0 W/m 3,4 C 6,2 C 9,7 km/h (2 Bft)
24.05.2020 02:00 6,1 C 4,4 C 81 % 1029,5 hPa 0,0 l/m 8,0 km/h (2 Bft) S-SW 202 0 min 0,0 UV-I 0 W/m 3,1 C 4,8 C 11,3 km/h (2 Bft)
24.05.2020 02:01 6,1 C 4,4 C 82 % 1029,4 hPa 0,0 l/m 6,4 km/h (2 Bft) S-SW 202 0 min 0,0 UV-I 0 W/m 3,3 C 6,1 C 9,7 km/h (2 Bft)
24.05.2020 02:02 6,1 C 4,4 C 82 % 1029,3 hPa 0,0 l/m 8,0 km/h (2 Bft) S-SW 202 0 min 0,0 UV-I 0 W/m 3,3 C 4,8 C 9,7 km/h (2 Bft)
24.05.2020 02:03 6,1 C 4,4 C 82 % 1029,3 hPa 0,0 l/m 11,3 km/h (2 Bft) S-SW 202 0 min 0,0 UV-I 0 W/m 3,3 C 2,4 C 16,1 km/h (3 Bft)
24.05.2020 02:04 6,1 C 4,4 C 82 % 1029,4 hPa 0,0 l/m 6,4 km/h (2 Bft) S-SW 202 0 min 0,0 UV-I 0 W/m 3,3 C 6,1 C 11,3 km/h (2 Bft)
24.05.2020 02:05 6,1 C 4,4 C 82 % 1029,4 hPa 0,0 l/m 9,7 km/h (2 Bft) S-SW 202 0 min 0,0 UV-I 0 W/m 3,3 C 3,5 C 14,5 km/h (3 Bft)
24.05.2020 02:06 6,1 C 4,4 C 82 % 1029,4 hPa 0,0 l/m 6,4 km/h (2 Bft) S-SW 202 0 min 0,0 UV-I 0 W/m 3,3 C 6,1 C 11,3 km/h (2 Bft)
24.05.2020 02:07 6,1 C 4,4 C 82 % 1029,4 hPa 0,0 l/m 8,0 km/h (2 Bft) S-SW 202 0 min 0,0 UV-I 0 W/m 3,3 C 4,8 C 9,7 km/h (2 Bft)
24.05.2020 02:08 6,1 C 4,4 C 82 % 1029,5 hPa 0,0 l/m 8,0 km/h (2 Bft) SW 225 0 min 0,0 UV-I 0 W/m 3,3 C 4,8 C 11,3 km/h (2 Bft)
24.05.2020 02:09 6,1 C 4,4 C 82 % 1029,5 hPa 0,0 l/m 9,7 km/h (2 Bft) S-SW 202 0 min 0,0 UV-I 0 W/m 3,3 C 3,5 C 11,3 km/h (2 Bft)
24.05.2020 02:10 6,1 C 4,4 C 82 % 1029,4 hPa 0,0 l/m 11,3 km/h (2 Bft) SW 225 0 min 0,0 UV-I 0 W/m 3,3 C 2,4 C 14,5 km/h (3 Bft)
24.05.2020 02:11 6,1 C 4,4 C 82 % 1029,4 hPa 0,0 l/m 6,4 km/h (2 Bft) S-SW 202 0 min 0,0 UV-I 0 W/m 3,3 C 6,1 C 9,7 km/h (2 Bft)
24.05.2020 02:12 6,1 C 4,4 C 83 % 1029,5 hPa 0,0 l/m 6,4 km/h (2 Bft) S-SW 202 0 min 0,0 UV-I 0 W/m 3,4 C 6,1 C 11,3 km/h (2 Bft)
24.05.2020 02:13 6,1 C 4,4 C 83 % 1029,5 hPa 0,0 l/m 4,8 km/h (1 Bft) S-SW 202 0 min 0,0 UV-I 0 W/m 3,4 C 6,1 C 6,4 km/h (2 Bft)
24.05.2020 02:14 6,1 C 4,4 C 82 % 1029,4 hPa 0,0 l/m 6,4 km/h (2 Bft) S-SW 202 0 min 0,0 UV-I 0 W/m 3,3 C 6,1 C 14,5 km/h (3 Bft)
24.05.2020 02:15 6,1 C 4,4 C 82 % 1029,4 hPa 0,0 l/m 6,4 km/h (2 Bft) S-SW 202 0 min 0,0 UV-I 0 W/m 3,3 C 6,1 C 12,9 km/h (3 Bft)
24.05.2020 02:16 6,1 C 4,4 C 82 % 1029,5 hPa 0,0 l/m 3,2 km/h (1 Bft) S-SW 202 0 min 0,0 UV-I 0 W/m 3,3 C 6,1 C 8,0 km/h (2 Bft)
24.05.2020 02:17 6,1 C 4,4 C 82 % 1029,5 hPa 0,0 l/m 8,0 km/h (2 Bft) S-SW 202 0 min 0,0 UV-I 0 W/m 3,3 C 4,8 C 11,3 km/h (2 Bft)
24.05.2020 02:18 6,1 C 4,4 C 83 % 1029,4 hPa 0,0 l/m 4,8 km/h (1 Bft) S-SW 202 0 min 0,0 UV-I 0 W/m 3,4 C 6,1 C 6,4 km/h (2 Bft)
24.05.2020 02:19 6,0 C 4,4 C 82 % 1029,4 hPa 0,0 l/m 3,2 km/h (1 Bft) S-SW 202 0 min 0,0 UV-I 0 W/m 3,2 C 6,0 C 4,8 km/h (1 Bft)
24.05.2020 02:20 6,0 C 4,4 C 83 % 1029,4 hPa 0,0 l/m 4,8 km/h (1 Bft) S-SW 202 0 min 0,0 UV-I 0 W/m 3,3 C 6,0 C 6,4 km/h (2 Bft)
24.05.2020 02:21 5,9 C 4,4 C 83 % 1029,4 hPa 0,0 l/m 6,4 km/h (2 Bft) S-SW 202 0 min 0,0 UV-I 0 W/m 3,2 C 5,9 C 9,7 km/h (2 Bft)
24.05.2020 02:22 5,9 C 4,4 C 83 % 1029,4 hPa 0,0 l/m 4,8 km/h (1 Bft) S-SW 202 0 min 0,0 UV-I 0 W/m 3,2 C 5,9 C 6,4 km/h (2 Bft)
24.05.2020 02:23 5,9 C 4,4 C 83 % 1029,3 hPa 0,0 l/m 6,4 km/h (2 Bft) S-SW 202 0 min 0,0 UV-I 0 W/m 3,2 C 5,9 C 9,7 km/h (2 Bft)
24.05.2020 02:24 6,0 C 3,9 C 83 % 1029,4 hPa 0,0 l/m 3,2 km/h (1 Bft) SW 225 0 min 0,0 UV-I 0 W/m 3,3 C 6,0 C 6,4 km/h (2 Bft)
24.05.2020 02:25 6,0 C 3,9 C 83 % 1029,3 hPa 0,0 l/m 3,2 km/h (1 Bft) SW 225 0 min 0,0 UV-I 0 W/m 3,3 C 6,0 C 4,8 km/h (1 Bft)
24.05.2020 02:26 6,0 C 3,9 C 83 % 1029,4 hPa 0,0 l/m 4,8 km/h (1 Bft) SW 225 0 min 0,0 UV-I 0 W/m 3,3 C 6,0 C 8,0 km/h (2 Bft)
24.05.2020 02:27 5,9 C 3,9 C 83 % 1029,4 hPa 0,0 l/m 4,8 km/h (1 Bft) S-SW 202 0 min 0,0 UV-I 0 W/m 3,2 C 5,9 C 6,4 km/h (2 Bft)
24.05.2020 02:28 5,9 C 3,9 C 83 % 1029,4 hPa 0,0 l/m 6,4 km/h (2 Bft) S-SW 202 0 min 0,0 UV-I 0 W/m 3,2 C 5,9 C 9,7 km/h (2 Bft)
24.05.2020 02:29 5,9 C 3,9 C 83 % 1029,5 hPa 0,0 l/m 4,8 km/h (1 Bft) S-SW 202 0 min 0,0 UV-I 0 W/m 3,2 C 5,9 C 9,7 km/h (2 Bft)
24.05.2020 02:30 5,8 C 3,9 C 83 % 1029,4 hPa 0,0 l/m 4,8 km/h (1 Bft) SW 225 0 min 0,0 UV-I 0 W/m 3,1 C 5,8 C 8,0 km/h (2 Bft)
24.05.2020 02:31 5,8 C 3,9 C 83 % 1029,3 hPa 0,0 l/m 3,2 km/h (1 Bft) W-SW 247 0 min 0,0 UV-I 0 W/m 3,1 C 5,8 C 6,4 km/h (2 Bft)
24.05.2020 02:32 5,8 C 3,3 C 83 % 1029,3 hPa 0,0 l/m 4,8 km/h (1 Bft) W-SW 247 0 min 0,0 UV-I 0 W/m 3,1 C 5,8 C 8,0 km/h (2 Bft)
24.05.2020 02:33 5,8 C 3,3 C 83 % 1029,3 hPa 0,0 l/m 4,8 km/h (1 Bft) S-SW 202 0 min 0,0 UV-I 0 W/m 3,1 C 5,8 C 6,4 km/h (2 Bft)
24.05.2020 02:34 5,8 C 3,3 C 83 % 1029,3 hPa 0,0 l/m 1,6 km/h (1 Bft) S-SW 202 0 min 0,0 UV-I 0 W/m 3,1 C 5,8 C 4,8 km/h (1 Bft)
24.05.2020 02:35 5,7 C 3,3 C 83 % 1029,3 hPa 0,0 l/m 0,0 km/h (0 Bft) S-SW 202 0 min 0,0 UV-I 0 W/m 3,0 C 5,7 C 1,6 km/h (1 Bft)
24.05.2020 02:36 5,7 C 3,3 C 84 % 1029,4 hPa 0,0 l/m 3,2 km/h (1 Bft) SW 225 0 min 0,0 UV-I 0 W/m 3,2 C 5,7 C 4,8 km/h (1 Bft)
24.05.2020 02:37 5,6 C 3,3 C 83 % 1029,4 hPa 0,0 l/m 3,2 km/h (1 Bft) SW 225 0 min 0,0 UV-I 0 W/m 2,9 C 5,6 C 6,4 km/h (2 Bft)
24.05.2020 02:38 5,6 C 2,8 C 84 % 1029,3 hPa 0,0 l/m 3,2 km/h (1 Bft) SW 225 0 min 0,0 UV-I 0 W/m 3,1 C 5,6 C 4,8 km/h (1 Bft)
24.05.2020 02:39 5,7 C 2,8 C 84 % 1029,3 hPa 0,0 l/m 4,8 km/h (1 Bft) SW 225 0 min 0,0 UV-I 0 W/m 3,2 C 5,7 C 6,4 km/h (2 Bft)
24.05.2020 02:40 5,6 C 2,8 C 84 % 1029,3 hPa 0,0 l/m 4,8 km/h (1 Bft) S-SW 202 0 min 0,0 UV-I 0 W/m 3,1 C 5,6 C 9,7 km/h (2 Bft)
24.05.2020 02:41 5,7 C 3,3 C 84 % 1029,3 hPa 0,0 l/m 4,8 km/h (1 Bft) S-SW 202 0 min 0,0 UV-I 0 W/m 3,2 C 5,7 C 8,0 km/h (2 Bft)
24.05.2020 02:42 5,7 C 3,3 C 84 % 1029,3 hPa 0,0 l/m 4,8 km/h (1 Bft) S 180 0 min 0,0 UV-I 0 W/m 3,2 C 5,7 C 9,7 km/h (2 Bft)
24.05.2020 02:43 5,7 C 3,3 C 84 % 1029,3 hPa 0,0 l/m 6,4 km/h (2 Bft) S-SW 202 0 min 0,0 UV-I 0 W/m 3,2 C 5,7 C 9,7 km/h (2 Bft)
24.05.2020 02:44 5,7 C 3,9 C 84 % 1029,2 hPa 0,0 l/m 6,4 km/h (2 Bft) SW 225 0 min 0,0 UV-I 0 W/m 3,2 C 5,7 C 9,7 km/h (2 Bft)
24.05.2020 02:45 5,7 C 3,9 C 84 % 1029,3 hPa 0,0 l/m 3,2 km/h (1 Bft) SW 225 0 min 0,0 UV-I 0 W/m 3,2 C 5,7 C 6,4 km/h (2 Bft)
24.05.2020 02:46 5,7 C 3,9 C 84 % 1029,3 hPa 0,0 l/m 4,8 km/h (1 Bft) SW 225 0 min 0,0 UV-I 0 W/m 3,2 C 5,7 C 6,4 km/h (2 Bft)
24.05.2020 02:47 5,7 C 3,9 C 84 % 1029,3 hPa 0,0 l/m 4,8 km/h (1 Bft) W-SW 247 0 min 0,0 UV-I 0 W/m 3,2 C 5,7 C 6,4 km/h (2 Bft)
24.05.2020 02:48 5,7 C 3,9 C 84 % 1029,4 hPa 0,0 l/m 1,6 km/h (1 Bft) SW 225 0 min 0,0 UV-I 0 W/m 3,2 C 5,7 C 4,8 km/h (1 Bft)
24.05.2020 02:49 5,7 C 3,9 C 84 % 1029,3 hPa 0,0 l/m 6,4 km/h (2 Bft) SW 225 0 min 0,0 UV-I 0 W/m 3,2 C 5,7 C 12,9 km/h (3 Bft)
24.05.2020 02:50 5,7 C 3,9 C 84 % 1029,3 hPa 0,0 l/m 4,8 km/h (1 Bft) W-SW 247 0 min 0,0 UV-I 0 W/m 3,2 C 5,7 C 8,0 km/h (2 Bft)
24.05.2020 02:51 5,7 C 3,9 C 83 % 1029,3 hPa 0,0 l/m 4,8 km/h (1 Bft) SW 225 0 min 0,0 UV-I 0 W/m 3,0 C 5,7 C 11,3 km/h (2 Bft)
24.05.2020 02:52 5,7 C 3,9 C 83 % 1029,3 hPa 0,0 l/m 3,2 km/h (1 Bft) W-SW 247 0 min 0,0 UV-I 0 W/m 3,0 C 5,7 C 6,4 km/h (2 Bft)
24.05.2020 02:53 5,7 C 3,9 C 84 % 1029,3 hPa 0,0 l/m 3,2 km/h (1 Bft) W-SW 247 0 min 0,0 UV-I 0 W/m 3,2 C 5,7 C 4,8 km/h (1 Bft)
24.05.2020 02:54 5,6 C 3,3 C 84 % 1029,3 hPa 0,0 l/m 4,8 km/h (1 Bft) SW 225 0 min 0,0 UV-I 0 W/m 3,1 C 5,6 C 8,0 km/h (2 Bft)
24.05.2020 02:55 5,6 C 3,3 C 84 % 1029,4 hPa 0,0 l/m 4,8 km/h (1 Bft) SW 225 0 min 0,0 UV-I 0 W/m 3,1 C 5,6 C 8,0 km/h (2 Bft)
24.05.2020 02:56 5,6 C 3,3 C 84 % 1029,3 hPa 0,0 l/m 3,2 km/h (1 Bft) S-SW 202 0 min 0,0 UV-I 0 W/m 3,1 C 5,6 C 6,4 km/h (2 Bft)
24.05.2020 02:57 5,6 C 3,3 C 84 % 1029,3 hPa 0,0 l/m 4,8 km/h (1 Bft) SW 225 0 min 0,0 UV-I 0 W/m 3,1 C 5,6 C 9,7 km/h (2 Bft)
24.05.2020 02:58 5,5 C 3,3 C 84 % 1029,4 hPa 0,0 l/m 4,8 km/h (1 Bft) S-SW 202 0 min 0,0 UV-I 0 W/m 3,0 C 5,5 C 6,4 km/h (2 Bft)
24.05.2020 02:59 5,5 C 3,3 C 84 % 1029,4 hPa 0,0 l/m 6,4 km/h (2 Bft) S-SW 202 0 min 0,0 UV-I 0 W/m 3,0 C 5,5 C 9,7 km/h (2 Bft)
24.05.2020 03:00 5,5 C 3,3 C 84 % 1029,4 hPa 0,0 l/m 4,8 km/h (1 Bft) SW 225 0 min 0,0 UV-I 0 W/m 3,0 C 5,5 C 8,0 km/h (2 Bft)
24.05.2020 03:01 5,4 C 3,3 C 84 % 1029,3 hPa 0,0 l/m 4,8 km/h (1 Bft) S-SW 202 0 min 0,0 UV-I 0 W/m 2,9 C 5,4 C 8,0 km/h (2 Bft)
24.05.2020 03:02 5,4 C 3,3 C 84 % 1029,3 hPa 0,0 l/m 3,2 km/h (1 Bft) S-SW 202 0 min 0,0 UV-I 0 W/m 2,9 C 5,4 C 4,8 km/h (1 Bft)
24.05.2020 03:03 5,4 C 3,3 C 84 % 1029,5 hPa 0,0 l/m 6,4 km/h (2 Bft) SW 225 0 min 0,0 UV-I 0 W/m 2,9 C 5,4 C 8,0 km/h (2 Bft)
24.05.2020 03:04 5,4 C 3,3 C 84 % 1029,4 hPa 0,0 l/m 3,2 km/h (1 Bft) SW 225 0 min 0,0 UV-I 0 W/m 2,9 C 5,4 C 4,8 km/h (1 Bft)
24.05.2020 03:05 5,4 C 3,3 C 84 % 1029,4 hPa 0,0 l/m 4,8 km/h (1 Bft) S-SW 202 0 min 0,0 UV-I 0 W/m 2,9 C 5,4 C 6,4 km/h (2 Bft)
24.05.2020 03:06 5,3 C 3,3 C 84 % 1029,4 hPa 0,0 l/m 4,8 km/h (1 Bft) S-SW 202 0 min 0,0 UV-I 0 W/m 2,8 C 5,3 C 8,0 km/h (2 Bft)
24.05.2020 03:07 5,3 C 3,3 C 84 % 1029,4 hPa 0,0 l/m 4,8 km/h (1 Bft) SW 225 0 min 0,0 UV-I 0 W/m 2,8 C 5,3 C 9,7 km/h (2 Bft)
24.05.2020 03:08 5,3 C 3,3 C 85 % 1029,5 hPa 0,0 l/m 4,8 km/h (1 Bft) SW 225 0 min 0,0 UV-I 0 W/m 3,0 C 5,3 C 9,7 km/h (2 Bft)
24.05.2020 03:09 5,3 C 3,3 C 84 % 1029,5 hPa 0,0 l/m 4,8 km/h (1 Bft) W-SW 247 0 min 0,0 UV-I 0 W/m 2,8 C 5,3 C 8,0 km/h (2 Bft)
24.05.2020 03:10 5,3 C 3,3 C 84 % 1029,3 hPa 0,0 l/m 4,8 km/h (1 Bft) SW 225 0 min 0,0 UV-I 0 W/m 2,8 C 5,3 C 9,7 km/h (2 Bft)
24.05.2020 03:11 5,3 C 3,3 C 84 % 1029,5 hPa 0,0 l/m 8,0 km/h (2 Bft) S-SW 202 0 min 0,0 UV-I 0 W/m 2,8 C 3,9 C 11,3 km/h (2 Bft)
24.05.2020 03:12 5,3 C 3,3 C 84 % 1029,4 hPa 0,0 l/m 6,4 km/h (2 Bft) S-SW 202 0 min 0,0 UV-I 0 W/m 2,8 C 5,3 C 9,7 km/h (2 Bft)
24.05.2020 03:13 5,3 C 3,3 C 84 % 1029,5 hPa 0,0 l/m 4,8 km/h (1 Bft) W-SW 247 0 min 0,0 UV-I 0 W/m 2,8 C 5,3 C 11,3 km/h (2 Bft)
24.05.2020 03:14 5,3 C 3,3 C 84 % 1029,4 hPa 0,0 l/m 4,8 km/h (1 Bft) W-SW 247 0 min 0,0 UV-I 0 W/m 2,8 C 5,3 C 9,7 km/h (2 Bft)
24.05.2020 03:15 5,3 C 3,3 C 84 % 1029,4 hPa 0,0 l/m 8,0 km/h (2 Bft) SW 225 0 min 0,0 UV-I 0 W/m 2,8 C 3,9 C 9,7 km/h (2 Bft)
24.05.2020 03:16 5,3 C 3,3 C 85 % 1029,4 hPa 0,0 l/m 6,4 km/h (2 Bft) S-SW 202 0 min 0,0 UV-I 0 W/m 3,0 C 5,3 C 11,3 km/h (2 Bft)
24.05.2020 03:17 5,3 C 3,3 C 85 % 1029,4 hPa 0,0 l/m 4,8 km/h (1 Bft) SW 225 0 min 0,0 UV-I 0 W/m 3,0 C 5,3 C 8,0 km/h (2 Bft)
24.05.2020 03:18 5,3 C 3,3 C 85 % 1029,4 hPa 0,0 l/m 6,4 km/h (2 Bft) S-SW 202 0 min 0,0 UV-I 0 W/m 3,0 C 5,3 C 9,7 km/h (2 Bft)
24.05.2020 03:19 5,3 C 3,3 C 85 % 1029,4 hPa 0,0 l/m 3,2 km/h (1 Bft) SW 225 0 min 0,0 UV-I 0 W/m 3,0 C 5,3 C 8,0 km/h (2 Bft)
24.05.2020 03:20 5,2 C 3,3 C 84 % 1029,4 hPa 0,0 l/m 6,4 km/h (2 Bft) SW 225 0 min 0,0 UV-I 0 W/m 2,7 C 5,2 C 9,7 km/h (2 Bft)
24.05.2020 03:21 5,2 C 3,3 C 85 % 1029,4 hPa 0,0 l/m 4,8 km/h (1 Bft) SW 225 0 min 0,0 UV-I 0 W/m 2,9 C 5,2 C 8,0 km/h (2 Bft)
24.05.2020 03:22 5,2 C 3,3 C 85 % 1029,4 hPa 0,0 l/m 6,4 km/h (2 Bft) SW 225 0 min 0,0 UV-I 0 W/m 2,9 C 5,2 C 9,7 km/h (2 Bft)
24.05.2020 03:23 5,2 C 3,3 C 85 % 1029,4 hPa 0,0 l/m 6,4 km/h (2 Bft) S-SW 202 0 min 0,0 UV-I 0 W/m 2,9 C 5,2 C 9,7 km/h (2 Bft)
24.05.2020 03:24 5,3 C 3,3 C 85 % 1029,4 hPa 0,0 l/m 6,4 km/h (2 Bft) SW 225 0 min 0,0 UV-I 0 W/m 3,0 C 5,3 C 9,7 km/h (2 Bft)
24.05.2020 03:25 5,3 C 3,3 C 85 % 1029,5 hPa 0,0 l/m 9,7 km/h (2 Bft) S-SW 202 0 min 0,0 UV-I 0 W/m 3,0 C 2,6 C 12,9 km/h (3 Bft)
24.05.2020 03:26 5,3 C 3,9 C 85 % 1029,4 hPa 0,0 l/m 9,7 km/h (2 Bft) S-SW 202 0 min 0,0 UV-I 0 W/m 3,0 C 2,6 C 12,9 km/h (3 Bft)
24.05.2020 03:27 5,3 C 3,9 C 85 % 1029,4 hPa 0,0 l/m 4,8 km/h (1 Bft) SW 225 0 min 0,0 UV-I 0 W/m 3,0 C 5,3 C 8,0 km/h (2 Bft)
24.05.2020 03:28 5,3 C 3,9 C 85 % 1029,3 hPa 0,0 l/m 6,4 km/h (2 Bft) S-SW 202 0 min 0,0 UV-I 0 W/m 3,0 C 5,3 C 8,0 km/h (2 Bft)
24.05.2020 03:29 5,3 C 3,9 C 85 % 1029,3 hPa 0,0 l/m 4,8 km/h (1 Bft) S-SW 202 0 min 0,0 UV-I 0 W/m 3,0 C 5,3 C 8,0 km/h (2 Bft)
24.05.2020 03:30 5,2 C 3,9 C 85 % 1029,3 hPa 0,0 l/m 3,2 km/h (1 Bft) SW 225 0 min 0,0 UV-I 0 W/m 2,9 C 5,2 C 6,4 km/h (2 Bft)
24.05.2020 03:31 5,2 C 3,3 C 85 % 1029,4 hPa 0,0 l/m 4,8 km/h (1 Bft) SW 225 0 min 0,0 UV-I 0 W/m 2,9 C 5,2 C 9,7 km/h (2 Bft)
24.05.2020 03:32 5,2 C 3,3 C 85 % 1029,3 hPa 0,0 l/m 4,8 km/h (1 Bft) S-SW 202 0 min 0,0 UV-I 0 W/m 2,9 C 5,2 C 6,4 km/h (2 Bft)
24.05.2020 03:33 5,2 C 3,3 C 85 % 1029,3 hPa 0,0 l/m 6,4 km/h (2 Bft) SW 225 0 min 0,0 UV-I 0 W/m 2,9 C 5,2 C 9,7 km/h (2 Bft)
24.05.2020 03:34 5,2 C 3,3 C 85 % 1029,5 hPa 0,0 l/m 6,4 km/h (2 Bft) S-SW 202 0 min 0,0 UV-I 0 W/m 2,9 C 5,2 C 9,7 km/h (2 Bft)
24.05.2020 03:35 5,2 C 3,3 C 85 % 1029,4 hPa 0,0 l/m 4,8 km/h (1 Bft) SW 225 0 min 0,0 UV-I 0 W/m 2,9 C 5,2 C 8,0 km/h (2 Bft)
24.05.2020 03:36 5,2 C 3,3 C 85 % 1029,4 hPa 0,0 l/m 6,4 km/h (2 Bft) S-SW 202 0 min 0,0 UV-I 0 W/m 2,9 C 5,2 C 9,7 km/h (2 Bft)
24.05.2020 03:37 5,2 C 3,3 C 85 % 1029,5 hPa 0,0 l/m 4,8 km/h (1 Bft) S-SW 202 0 min 0,0 UV-I 0 W/m 2,9 C 5,2 C 6,4 km/h (2 Bft)
24.05.2020 03:38 5,2 C 3,3 C 85 % 1029,3 hPa 0,0 l/m 6,4 km/h (2 Bft) SW 225 0 min 0,0 UV-I 0 W/m 2,9 C 5,2 C 9,7 km/h (2 Bft)
24.05.2020 03:39 5,1 C 3,3 C 85 % 1029,4 hPa 0,0 l/m 3,2 km/h (1 Bft) SW 225 0 min 0,0 UV-I 0 W/m 2,8 C 5,1 C 6,4 km/h (2 Bft)
24.05.2020 03:40 5,1 C 3,3 C 85 % 1029,4 hPa 0,0 l/m 6,4 km/h (2 Bft) SW 225 0 min 0,0 UV-I 0 W/m 2,8 C 5,1 C 9,7 km/h (2 Bft)
24.05.2020 03:41 5,1 C 3,3 C 85 % 1029,4 hPa 0,0 l/m 8,0 km/h (2 Bft) S-SW 202 0 min 0,0 UV-I 0 W/m 2,8 C 3,7 C 11,3 km/h (2 Bft)
24.05.2020 03:42 5,1 C 3,3 C 86 % 1029,4 hPa 0,0 l/m 6,4 km/h (2 Bft) SW 225 0 min 0,0 UV-I 0 W/m 3,0 C 5,1 C 9,7 km/h (2 Bft)
24.05.2020 03:43 5,1 C 3,3 C 85 % 1029,4 hPa 0,0 l/m 4,8 km/h (1 Bft) S-SW 202 0 min 0,0 UV-I 0 W/m 2,8 C 5,1 C 8,0 km/h (2 Bft)
24.05.2020 03:44 5,0 C 3,3 C 86 % 1029,3 hPa 0,0 l/m 3,2 km/h (1 Bft) S-SW 202 0 min 0,0 UV-I 0 W/m 2,9 C 5,0 C 6,4 km/h (2 Bft)
24.05.2020 03:45 5,0 C 3,3 C 86 % 1029,4 hPa 0,0 l/m 6,4 km/h (2 Bft) SW 225 0 min 0,0 UV-I 0 W/m 2,9 C 5,0 C 8,0 km/h (2 Bft)
24.05.2020 03:46 5,0 C 3,3 C 86 % 1029,4 hPa 0,0 l/m 4,8 km/h (1 Bft) SW 225 0 min 0,0 UV-I 0 W/m 2,9 C 5,0 C 9,7 km/h (2 Bft)
24.05.2020 03:47 4,9 C 3,3 C 86 % 1029,4 hPa 0,0 l/m 3,2 km/h (1 Bft) SW 225 0 min 0,0 UV-I 0 W/m 2,8 C 4,9 C 9,7 km/h (2 Bft)
24.05.2020 03:48 4,9 C 3,3 C 86 % 1029,4 hPa 0,0 l/m 4,8 km/h (1 Bft) SW 225 0 min 0,0 UV-I 0 W/m 2,8 C 4,9 C 6,4 km/h (2 Bft)
24.05.2020 03:49 4,9 C 3,3 C 86 % 1029,4 hPa 0,0 l/m 4,8 km/h (1 Bft) W-SW 247 0 min 0,0 UV-I 0 W/m 2,8 C 4,9 C 8,0 km/h (2 Bft)
24.05.2020 03:50 5,0 C 3,3 C 86 % 1029,5 hPa 0,0 l/m 3,2 km/h (1 Bft) SW 225 0 min 0,0 UV-I 0 W/m 2,9 C 5,0 C 4,8 km/h (1 Bft)
24.05.2020 03:51 5,0 C 3,3 C 86 % 1029,5 hPa 0,0 l/m 3,2 km/h (1 Bft) SW 225 0 min 0,0 UV-I 0 W/m 2,9 C 5,0 C 6,4 km/h (2 Bft)
24.05.2020 03:52 4,9 C 3,3 C 86 % 1029,5 hPa 0,0 l/m 4,8 km/h (1 Bft) W-SW 247 0 min 0,0 UV-I 0 W/m 2,8 C 4,9 C 6,4 km/h (2 Bft)
24.05.2020 03:53 5,0 C 3,3 C 86 % 1029,5 hPa 0,0 l/m 4,8 km/h (1 Bft) W-SW 247 0 min 0,0 UV-I 0 W/m 2,9 C 5,0 C 4,8 km/h (1 Bft)
24.05.2020 03:54 5,0 C 3,3 C 86 % 1029,4 hPa 0,0 l/m 4,8 km/h (1 Bft) S-SW 202 0 min 0,0 UV-I 0 W/m 2,9 C 5,0 C 6,4 km/h (2 Bft)
24.05.2020 03:55 5,0 C 3,3 C 86 % 1029,5 hPa 0,0 l/m 3,2 km/h (1 Bft) S-SW 202 0 min 0,0 UV-I 0 W/m 2,9 C 5,0 C 3,2 km/h (1 Bft)
24.05.2020 03:56 4,9 C 3,3 C 86 % 1029,5 hPa 0,0 l/m 4,8 km/h (1 Bft) S-SW 202 0 min 0,0 UV-I 0 W/m 2,8 C 4,9 C 8,0 km/h (2 Bft)
24.05.2020 03:57 4,9 C 3,3 C 86 % 1029,5 hPa 0,0 l/m 4,8 km/h (1 Bft) SW 225 0 min 0,0 UV-I 0 W/m 2,8 C 4,9 C 9,7 km/h (2 Bft)
24.05.2020 03:58 4,9 C 3,3 C 86 % 1029,4 hPa 0,0 l/m 4,8 km/h (1 Bft) SW 225 0 min 0,0 UV-I 0 W/m 2,8 C 4,9 C 6,4 km/h (2 Bft)
24.05.2020 03:59 4,9 C 2,8 C 86 % 1029,4 hPa 0,0 l/m 3,2 km/h (1 Bft) W-SW 247 0 min 0,0 UV-I 0 W/m 2,8 C 4,9 C 6,4 km/h (2 Bft)
24.05.2020 04:00 4,9 C 2,8 C 86 % 1029,5 hPa 0,0 l/m 3,2 km/h (1 Bft) W-SW 247 0 min 0,0 UV-I 0 W/m 2,8 C 4,9 C 4,8 km/h (1 Bft)
24.05.2020 04:01 4,9 C 2,8 C 87 % 1029,5 hPa 0,0 l/m 4,8 km/h (1 Bft) S-SW 202 0 min 0,0 UV-I 0 W/m 2,9 C 4,9 C 6,4 km/h (2 Bft)
24.05.2020 04:02 4,9 C 2,8 C 87 % 1029,5 hPa 0,0 l/m 4,8 km/h (1 Bft) SW 225 0 min 0,0 UV-I 0 W/m 2,9 C 4,9 C 8,0 km/h (2 Bft)
24.05.2020 04:03 4,9 C 2,8 C 87 % 1029,5 hPa 0,0 l/m 6,4 km/h (2 Bft) W-SW 247 0 min 0,0 UV-I 0 W/m 2,9 C 4,9 C 11,3 km/h (2 Bft)
24.05.2020 04:04 4,9 C 2,8 C 87 % 1029,5 hPa 0,0 l/m 3,2 km/h (1 Bft) SW 225 0 min 0,0 UV-I 0 W/m 2,9 C 4,9 C 3,2 km/h (1 Bft)
24.05.2020 04:05 4,8 C 2,8 C 87 % 1029,5 hPa 0,0 l/m 3,2 km/h (1 Bft) SW 225 0 min 0,0 UV-I 0 W/m 2,8 C 4,8 C 6,4 km/h (2 Bft)
24.05.2020 04:06 4,8 C 2,8 C 87 % 1029,5 hPa 0,0 l/m 3,2 km/h (1 Bft) SW 225 0 min 0,0 UV-I 0 W/m 2,8 C 4,8 C 6,4 km/h (2 Bft)
24.05.2020 04:07 4,8 C 2,8 C 87 % 1029,4 hPa 0,0 l/m 3,2 km/h (1 Bft) SW 225 0 min 0,0 UV-I 0 W/m 2,8 C 4,8 C 6,4 km/h (2 Bft)
24.05.2020 04:08 4,8 C 2,8 C 87 % 1029,5 hPa 0,0 l/m 3,2 km/h (1 Bft) SW 225 0 min 0,0 UV-I 0 W/m 2,8 C 4,8 C 4,8 km/h (1 Bft)
24.05.2020 04:09 4,8 C 2,8 C 87 % 1029,5 hPa 0,0 l/m 3,2 km/h (1 Bft) SW 225 0 min 0,0 UV-I 0 W/m 2,8 C 4,8 C 4,8 km/h (1 Bft)
24.05.2020 04:10 4,7 C 2,2 C 87 % 1029,5 hPa 0,0 l/m 3,2 km/h (1 Bft) SW 225 0 min 0,0 UV-I 0 W/m 2,7 C 4,7 C 4,8 km/h (1 Bft)
24.05.2020 04:11 4,7 C 2,2 C 87 % 1029,5 hPa 0,0 l/m 3,2 km/h (1 Bft) SW 225 0 min 0,0 UV-I 0 W/m 2,7 C 4,7 C 4,8 km/h (1 Bft)
24.05.2020 04:12 4,7 C 2,2 C 87 % 1029,4 hPa 0,0 l/m 3,2 km/h (1 Bft) SW 225 0 min 0,0 UV-I 0 W/m 2,7 C 4,7 C 3,2 km/h (1 Bft)
24.05.2020 04:13 4,7 C 2,2 C 87 % 1029,5 hPa 0,0 l/m 3,2 km/h (1 Bft) SW 225 0 min 0,0 UV-I 0 W/m 2,7 C 4,7 C 4,8 km/h (1 Bft)
24.05.2020 04:14 4,7 C 2,2 C 87 % 1029,5 hPa 0,0 l/m 4,8 km/h (1 Bft) SW 225 0 min 0,0 UV-I 0 W/m 2,7 C 4,7 C 6,4 km/h (2 Bft)
24.05.2020 04:15 4,7 C 2,8 C 87 % 1029,5 hPa 0,0 l/m 3,2 km/h (1 Bft) SW 225 0 min 0,0 UV-I 0 W/m 2,7 C 4,7 C 6,4 km/h (2 Bft)
24.05.2020 04:16 4,7 C 2,8 C 87 % 1029,6 hPa 0,0 l/m 3,2 km/h (1 Bft) SW 225 0 min 0,0 UV-I 0 W/m 2,7 C 4,7 C 6,4 km/h (2 Bft)
24.05.2020 04:17 4,7 C 2,8 C 87 % 1029,5 hPa 0,0 l/m 4,8 km/h (1 Bft) SW 225 0 min 0,0 UV-I 0 W/m 2,7 C 4,7 C 6,4 km/h (2 Bft)
24.05.2020 04:18 4,7 C 2,8 C 88 % 1029,6 hPa 0,0 l/m 3,2 km/h (1 Bft) SW 225 0 min 0,0 UV-I 0 W/m 2,9 C 4,7 C 8,0 km/h (2 Bft)
24.05.2020 04:19 4,7 C 2,8 C 87 % 1029,6 hPa 0,0 l/m 4,8 km/h (1 Bft) SW 225 0 min 0,0 UV-I 0 W/m 2,7 C 4,7 C 8,0 km/h (2 Bft)
24.05.2020 04:20 4,7 C 2,8 C 87 % 1029,6 hPa 0,0 l/m 4,8 km/h (1 Bft) SW 225 0 min 0,0 UV-I 0 W/m 2,7 C 4,7 C 8,0 km/h (2 Bft)
24.05.2020 04:21 4,7 C 2,8 C 88 % 1029,6 hPa 0,0 l/m 4,8 km/h (1 Bft) SW 225 0 min 0,0 UV-I 0 W/m 2,9 C 4,7 C 8,0 km/h (2 Bft)
24.05.2020 04:22 4,7 C 2,8 C 87 % 1029,6 hPa 0,0 l/m 4,8 km/h (1 Bft) SW 225 0 min 0,0 UV-I 0 W/m 2,7 C 4,7 C 6,4 km/h (2 Bft)
24.05.2020 04:23 4,7 C 2,8 C 87 % 1029,6 hPa 0,0 l/m 4,8 km/h (1 Bft) SW 225 0 min 0,0 UV-I 0 W/m 2,7 C 4,7 C 8,0 km/h (2 Bft)
24.05.2020 04:24 4,7 C 2,8 C 88 % 1029,6 hPa 0,0 l/m 3,2 km/h (1 Bft) S-SW 202 0 min 0,0 UV-I 0 W/m 2,9 C 4,7 C 4,8 km/h (1 Bft)
24.05.2020 04:25 4,7 C 2,8 C 88 % 1029,5 hPa 0,0 l/m 3,2 km/h (1 Bft) S-SW 202 0 min 0,0 UV-I 0 W/m 2,9 C 4,7 C 4,8 km/h (1 Bft)
24.05.2020 04:26 4,7 C 2,8 C 88 % 1029,6 hPa 0,0 l/m 4,8 km/h (1 Bft) SW 225 0 min 0,0 UV-I 0 W/m 2,9 C 4,7 C 6,4 km/h (2 Bft)
24.05.2020 04:27 4,7 C 2,8 C 88 % 1029,6 hPa 0,0 l/m 4,8 km/h (1 Bft) SW 225 0 min 0,0 UV-I 0 W/m 2,9 C 4,7 C 6,4 km/h (2 Bft)
24.05.2020 04:28 4,7 C 2,8 C 88 % 1029,6 hPa 0,0 l/m 4,8 km/h (1 Bft) SW 225 0 min 0,0 UV-I 0 W/m 2,9 C 4,7 C 8,0 km/h (2 Bft)
24.05.2020 04:29 4,8 C 2,8 C 88 % 1029,6 hPa 0,0 l/m 4,8 km/h (1 Bft) SW 225 0 min 0,0 UV-I 0 W/m 3,0 C 4,8 C 6,4 km/h (2 Bft)
24.05.2020 04:30 4,8 C 2,8 C 88 % 1029,5 hPa 0,0 l/m 4,8 km/h (1 Bft) SW 225 0 min 0,0 UV-I 0 W/m 3,0 C 4,8 C 6,4 km/h (2 Bft)
24.05.2020 04:31 4,8 C 3,3 C 88 % 1029,5 hPa 0,0 l/m 4,8 km/h (1 Bft) SW 225 0 min 0,0 UV-I 0 W/m 3,0 C 4,8 C 6,4 km/h (2 Bft)
24.05.2020 04:32 4,8 C 3,3 C 88 % 1029,6 hPa 0,0 l/m 4,8 km/h (1 Bft) SW 225 0 min 0,0 UV-I 0 W/m 3,0 C 4,8 C 8,0 km/h (2 Bft)
24.05.2020 04:33 4,8 C 3,3 C 88 % 1029,6 hPa 0,0 l/m 4,8 km/h (1 Bft) SW 225 0 min 0,0 UV-I 0 W/m 3,0 C 4,8 C 8,0 km/h (2 Bft)
24.05.2020 04:34 4,8 C 3,3 C 88 % 1029,7 hPa 0,0 l/m 4,8 km/h (1 Bft) SW 225 0 min 0,0 UV-I 0 W/m 3,0 C 4,8 C 6,4 km/h (2 Bft)
24.05.2020 04:35 4,8 C 3,3 C 88 % 1029,7 hPa 0,0 l/m 4,8 km/h (1 Bft) SW 225 0 min 0,0 UV-I 0 W/m 3,0 C 4,8 C 8,0 km/h (2 Bft)
24.05.2020 04:36 4,8 C 3,3 C 88 % 1029,6 hPa 0,0 l/m 3,2 km/h (1 Bft) SW 225 0 min 0,0 UV-I 0 W/m 3,0 C 4,8 C 4,8 km/h (1 Bft)
24.05.2020 04:37 4,8 C 3,3 C 88 % 1029,7 hPa 0,0 l/m 4,8 km/h (1 Bft) SW 225 0 min 0,0 UV-I 0 W/m 3,0 C 4,8 C 6,4 km/h (2 Bft)
24.05.2020 04:38 4,8 C 3,3 C 88 % 1029,7 hPa 0,0 l/m 4,8 km/h (1 Bft) SW 225 0 min 0,0 UV-I 0 W/m 3,0 C 4,8 C 9,7 km/h (2 Bft)
24.05.2020 04:39 4,8 C 3,3 C 88 % 1029,7 hPa 0,0 l/m 4,8 km/h (1 Bft) SW 225 0 min 0,0 UV-I 0 W/m 3,0 C 4,8 C 8,0 km/h (2 Bft)
24.05.2020 04:40 4,8 C 3,3 C 88 % 1029,6 hPa 0,0 l/m 4,8 km/h (1 Bft) SW 225 0 min 0,0 UV-I 0 W/m 3,0 C 4,8 C 8,0 km/h (2 Bft)
24.05.2020 04:41 4,8 C 3,3 C 88 % 1029,7 hPa 0,0 l/m 4,8 km/h (1 Bft) SW 225 0 min 0,0 UV-I 0 W/m 3,0 C 4,8 C 6,4 km/h (2 Bft)
24.05.2020 04:42 4,8 C 3,3 C 87 % 1029,7 hPa 0,0 l/m 6,4 km/h (2 Bft) S-SW 202 0 min 0,0 UV-I 0 W/m 2,8 C 4,8 C 8,0 km/h (2 Bft)
24.05.2020 04:43 4,8 C 3,3 C 87 % 1029,7 hPa 0,0 l/m 6,4 km/h (2 Bft) S-SW 202 0 min 0,0 UV-I 0 W/m 2,8 C 4,8 C 9,7 km/h (2 Bft)
24.05.2020 04:44 4,8 C 3,3 C 88 % 1029,7 hPa 0,0 l/m 4,8 km/h (1 Bft) W-SW 247 0 min 0,0 UV-I 0 W/m 3,0 C 4,8 C 8,0 km/h (2 Bft)
24.05.2020 04:45 4,8 C 2,8 C 88 % 1029,7 hPa 0,0 l/m 6,4 km/h (2 Bft) SW 225 0 min 0,0 UV-I 0 W/m 3,0 C 4,8 C 8,0 km/h (2 Bft)
24.05.2020 04:46 4,7 C 2,8 C 88 % 1029,7 hPa 0,0 l/m 8,0 km/h (2 Bft) SW 225 0 min 0,0 UV-I 0 W/m 2,9 C 3,3 C 11,3 km/h (2 Bft)
24.05.2020 04:47 4,8 C 3,3 C 88 % 1029,7 hPa 0,0 l/m 8,0 km/h (2 Bft) S-SW 202 0 min 0,0 UV-I 0 W/m 3,0 C 3,4 C 12,9 km/h (3 Bft)
24.05.2020 04:48 4,8 C 3,3 C 88 % 1029,8 hPa 0,0 l/m 6,4 km/h (2 Bft) SW 225 0 min 0,0 UV-I 0 W/m 3,0 C 4,8 C 11,3 km/h (2 Bft)
24.05.2020 04:49 4,8 C 3,3 C 88 % 1029,8 hPa 0,0 l/m 8,0 km/h (2 Bft) SW 225 0 min 0,0 UV-I 0 W/m 3,0 C 3,4 C 11,3 km/h (2 Bft)
24.05.2020 04:50 4,8 C 3,3 C 88 % 1029,8 hPa 0,0 l/m 4,8 km/h (1 Bft) SW 225 0 min 0,0 UV-I 0 W/m 3,0 C 4,8 C 6,4 km/h (2 Bft)
24.05.2020 04:51 4,8 C 3,3 C 88 % 1029,8 hPa 0,0 l/m 6,4 km/h (2 Bft) S-SW 202 0 min 0,0 UV-I 0 W/m 3,0 C 4,8 C 11,3 km/h (2 Bft)
24.05.2020 04:52 4,8 C 3,3 C 88 % 1029,7 hPa 0,0 l/m 6,4 km/h (2 Bft) SW 225 0 min 0,0 UV-I 0 W/m 3,0 C 4,8 C 8,0 km/h (2 Bft)
24.05.2020 04:53 4,8 C 3,3 C 88 % 1029,7 hPa 0,0 l/m 4,8 km/h (1 Bft) SW 225 0 min 0,0 UV-I 0 W/m 3,0 C 4,8 C 8,0 km/h (2 Bft)
24.05.2020 04:54 4,8 C 3,3 C 88 % 1029,8 hPa 0,0 l/m 6,4 km/h (2 Bft) SW 225 0 min 0,0 UV-I 0 W/m 3,0 C 4,8 C 9,7 km/h (2 Bft)
24.05.2020 04:55 4,8 C 3,3 C 87 % 1029,8 hPa 0,0 l/m 3,2 km/h (1 Bft) S-SW 202 0 min 0,0 UV-I 0 W/m 2,8 C 4,8 C 8,0 km/h (2 Bft)
24.05.2020 04:56 4,7 C 3,3 C 87 % 1029,8 hPa 0,0 l/m 4,8 km/h (1 Bft) SW 225 0 min 0,0 UV-I 0 W/m 2,7 C 4,7 C 6,4 km/h (2 Bft)
24.05.2020 04:57 4,7 C 3,3 C 87 % 1029,7 hPa 0,0 l/m 4,8 km/h (1 Bft) SW 225 0 min 0,0 UV-I 0 W/m 2,7 C 4,7 C 9,7 km/h (2 Bft)
24.05.2020 04:58 4,7 C 3,3 C 88 % 1029,7 hPa 0,0 l/m 4,8 km/h (1 Bft) SW 225 0 min 0,0 UV-I 0 W/m 2,9 C 4,7 C 8,0 km/h (2 Bft)
24.05.2020 04:59 4,6 C 3,3 C 87 % 1029,8 hPa 0,0 l/m 4,8 km/h (1 Bft) SW 225 0 min 0,0 UV-I 0 W/m 2,6 C 4,6 C 8,0 km/h (2 Bft)
24.05.2020 05:00 4,7 C 3,3 C 88 % 1029,7 hPa 0,0 l/m 6,4 km/h (2 Bft) S-SW 202 0 min 0,0 UV-I 0 W/m 2,9 C 4,7 C 12,9 km/h (3 Bft)
24.05.2020 05:01 4,7 C 3,3 C 88 % 1029,8 hPa 0,0 l/m 8,0 km/h (2 Bft) S-SW 202 0 min 0,0 UV-I 0 W/m 2,9 C 3,3 C 11,3 km/h (2 Bft)
24.05.2020 05:02 4,6 C 3,3 C 88 % 1029,8 hPa 0,0 l/m 6,4 km/h (2 Bft) S-SW 202 0 min 0,0 UV-I 0 W/m 2,8 C 4,6 C 9,7 km/h (2 Bft)
24.05.2020 05:03 4,7 C 3,3 C 88 % 1029,8 hPa 0,0 l/m 6,4 km/h (2 Bft) SW 225 0 min 0,0 UV-I 0 W/m 2,9 C 4,7 C 11,3 km/h (2 Bft)
24.05.2020 05:04 4,7 C 3,3 C 88 % 1029,8 hPa 0,0 l/m 4,8 km/h (1 Bft) SW 225 0 min 0,0 UV-I 0 W/m 2,9 C 4,7 C 8,0 km/h (2 Bft)
24.05.2020 05:05 4,7 C 3,3 C 88 % 1029,8 hPa 0,0 l/m 6,4 km/h (2 Bft) SW 225 0 min 0,0 UV-I 0 W/m 2,9 C 4,7 C 9,7 km/h (2 Bft)
24.05.2020 05:06 4,7 C 3,3 C 88 % 1029,8 hPa 0,0 l/m 6,4 km/h (2 Bft) SW 225 0 min 0,0 UV-I 0 W/m 2,9 C 4,7 C 8,0 km/h (2 Bft)
24.05.2020 05:07 4,7 C 3,3 C 88 % 1029,8 hPa 0,0 l/m 6,4 km/h (2 Bft) SW 225 0 min 0,0 UV-I 0 W/m 2,9 C 4,7 C 9,7 km/h (2 Bft)
24.05.2020 05:08 4,7 C 3,3 C 88 % 1029,8 hPa 0,0 l/m 8,0 km/h (2 Bft) SW 225 0 min 0,0 UV-I 0 W/m 2,9 C 3,3 C 12,9 km/h (3 Bft)
24.05.2020 05:09 4,7 C 3,3 C 88 % 1029,9 hPa 0,0 l/m 6,4 km/h (2 Bft) SW 225 0 min 0,0 UV-I 0 W/m 2,9 C 4,7 C 11,3 km/h (2 Bft)
24.05.2020 05:10 4,7 C 3,3 C 88 % 1029,9 hPa 0,0 l/m 6,4 km/h (2 Bft) S-SW 202 0 min 0,0 UV-I 0 W/m 2,9 C 4,7 C 9,7 km/h (2 Bft)
24.05.2020 05:11 4,7 C 3,3 C 88 % 1029,9 hPa 0,0 l/m 4,8 km/h (1 Bft) SW 225 0 min 0,0 UV-I 0 W/m 2,9 C 4,7 C 8,0 km/h (2 Bft)
24.05.2020 05:12 4,7 C 3,3 C 88 % 1029,8 hPa 0,0 l/m 3,2 km/h (1 Bft) SW 225 0 min 0,0 UV-I 0 W/m 2,9 C 4,7 C 8,0 km/h (2 Bft)
24.05.2020 05:13 4,7 C 3,3 C 88 % 1029,9 hPa 0,0 l/m 6,4 km/h (2 Bft) SW 225 0 min 0,0 UV-I 0 W/m 2,9 C 4,7 C 8,0 km/h (2 Bft)
24.05.2020 05:14 4,8 C 3,3 C 88 % 1029,8 hPa 0,0 l/m 6,4 km/h (2 Bft) SW 225 0 min 0,0 UV-I 0 W/m 3,0 C 4,8 C 11,3 km/h (2 Bft)
24.05.2020 05:15 4,8 C 3,3 C 88 % 1029,8 hPa 0,0 l/m 8,0 km/h (2 Bft) SW 225 0 min 0,0 UV-I 0 W/m 3,0 C 3,4 C 11,3 km/h (2 Bft)
24.05.2020 05:16 4,8 C 3,3 C 88 % 1029,8 hPa 0,0 l/m 6,4 km/h (2 Bft) SW 225 0 min 0,0 UV-I 0 W/m 3,0 C 4,8 C 9,7 km/h (2 Bft)
24.05.2020 05:17 4,8 C 3,3 C 88 % 1029,9 hPa 0,0 l/m 3,2 km/h (1 Bft) S-SW 202 0 min 0,0 UV-I 0 W/m 3,0 C 4,8 C 8,0 km/h (2 Bft)
24.05.2020 05:18 4,9 C 3,3 C 88 % 1029,9 hPa 0,0 l/m 4,8 km/h (1 Bft) SW 225 0 min 0,0 UV-I 0 W/m 3,1 C 4,9 C 8,0 km/h (2 Bft)
24.05.2020 05:19 4,8 C 3,3 C 88 % 1029,7 hPa 0,0 l/m 6,4 km/h (2 Bft) SW 225 0 min 0,0 UV-I 0 W/m 3,0 C 4,8 C 9,7 km/h (2 Bft)
24.05.2020 05:20 4,8 C 3,3 C 88 % 1029,8 hPa 0,0 l/m 4,8 km/h (1 Bft) S-SW 202 0 min 0,0 UV-I 0 W/m 3,0 C 4,8 C 8,0 km/h (2 Bft)
24.05.2020 05:21 4,8 C 3,3 C 88 % 1029,9 hPa 0,0 l/m 6,4 km/h (2 Bft) S-SW 202 0 min 0,0 UV-I 0 W/m 3,0 C 4,8 C 8,0 km/h (2 Bft)
24.05.2020 05:22 4,8 C 3,9 C 88 % 1029,8 hPa 0,0 l/m 6,4 km/h (2 Bft) SW 225 0 min 0,0 UV-I 0 W/m 3,0 C 4,8 C 9,7 km/h (2 Bft)
24.05.2020 05:23 4,9 C 3,9 C 88 % 1029,9 hPa 0,0 l/m 6,4 km/h (2 Bft) S-SW 202 0 min 0,0 UV-I 0 W/m 3,1 C 4,9 C 11,3 km/h (2 Bft)
24.05.2020 05:24 4,9 C 3,9 C 88 % 1029,7 hPa 0,0 l/m 8,0 km/h (2 Bft) SW 225 0 min 0,0 UV-I 0 W/m 3,1 C 3,5 C 11,3 km/h (2 Bft)
24.05.2020 05:25 4,9 C 3,9 C 88 % 1029,8 hPa 0,0 l/m 3,2 km/h (1 Bft) W-SW 247 0 min 0,0 UV-I 0 W/m 3,1 C 4,9 C 6,4 km/h (2 Bft)
24.05.2020 05:26 4,9 C 3,9 C 88 % 1029,9 hPa 0,0 l/m 4,8 km/h (1 Bft) W-SW 247 0 min 0,0 UV-I 0 W/m 3,1 C 4,9 C 6,4 km/h (2 Bft)
24.05.2020 05:27 4,9 C 3,9 C 88 % 1029,8 hPa 0,0 l/m 4,8 km/h (1 Bft) SW 225 0 min 0,0 UV-I 0 W/m 3,1 C 4,9 C 8,0 km/h (2 Bft)
24.05.2020 05:28 4,9 C 3,9 C 88 % 1029,9 hPa 0,0 l/m 4,8 km/h (1 Bft) SW 225 0 min 0,0 UV-I 0 W/m 3,1 C 4,9 C 8,0 km/h (2 Bft)
24.05.2020 05:29 4,9 C 3,9 C 88 % 1029,9 hPa 0,0 l/m 6,4 km/h (2 Bft) SW 225 0 min 0,0 UV-I 0 W/m 3,1 C 4,9 C 8,0 km/h (2 Bft)
24.05.2020 05:30 5,0 C 3,9 C 88 % 1029,9 hPa 0,0 l/m 4,8 km/h (1 Bft) SW 225 0 min 0,0 UV-I 0 W/m 3,2 C 5,0 C 8,0 km/h (2 Bft)
24.05.2020 05:31 5,0 C 3,9 C 88 % 1029,8 hPa 0,0 l/m 4,8 km/h (1 Bft) SW 225 0 min 0,0 UV-I 0 W/m 3,2 C 5,0 C 8,0 km/h (2 Bft)
24.05.2020 05:32 4,9 C 3,9 C 88 % 1029,9 hPa 0,0 l/m 6,4 km/h (2 Bft) SW 225 0 min 0,0 UV-I 0 W/m 3,1 C 4,9 C 8,0 km/h (2 Bft)
24.05.2020 05:33 4,9 C 3,9 C 88 % 1029,9 hPa 0,0 l/m 4,8 km/h (1 Bft) SW 225 0 min 0,0 UV-I 0 W/m 3,1 C 4,9 C 8,0 km/h (2 Bft)
24.05.2020 05:34 4,9 C 3,9 C 88 % 1030,0 hPa 0,0 l/m 4,8 km/h (1 Bft) SW 225 0 min 0,0 UV-I 0 W/m 3,1 C 4,9 C 9,7 km/h (2 Bft)
24.05.2020 05:35 5,0 C 3,9 C 88 % 1029,9 hPa 0,0 l/m 3,2 km/h (1 Bft) SW 225 0 min 0,0 UV-I 0 W/m 3,2 C 5,0 C 6,4 km/h (2 Bft)
24.05.2020 05:36 5,0 C 3,9 C 88 % 1030,0 hPa 0,0 l/m 3,2 km/h (1 Bft) SW 225 0 min 0,0 UV-I 0 W/m 3,2 C 5,0 C 8,0 km/h (2 Bft)
24.05.2020 05:37 5,1 C 3,9 C 88 % 1030,0 hPa 0,0 l/m 4,8 km/h (1 Bft) W-SW 247 0 min 0,0 UV-I 0 W/m 3,3 C 5,1 C 8,0 km/h (2 Bft)
24.05.2020 05:38 5,1 C 3,9 C 88 % 1030,0 hPa 0,0 l/m 4,8 km/h (1 Bft) SW 225 0 min 0,0 UV-I 0 W/m 3,3 C 5,1 C 8,0 km/h (2 Bft)
24.05.2020 05:39 5,1 C 3,9 C 88 % 1030,0 hPa 0,0 l/m 4,8 km/h (1 Bft) SW 225 0 min 0,0 UV-I 0 W/m 3,3 C 5,1 C 8,0 km/h (2 Bft)
24.05.2020 05:40 5,1 C 3,9 C 88 % 1030,0 hPa 0,0 l/m 4,8 km/h (1 Bft) SW 225 0 min 0,0 UV-I 0 W/m 3,3 C 5,1 C 9,7 km/h (2 Bft)
24.05.2020 05:41 5,2 C 3,9 C 88 % 1030,0 hPa 0,0 l/m 8,0 km/h (2 Bft) SW 225 0 min 0,0 UV-I 0 W/m 3,4 C 3,8 C 9,7 km/h (2 Bft)
24.05.2020 05:42 5,2 C 4,4 C 88 % 1030,1 hPa 0,0 l/m 6,4 km/h (2 Bft) SW 225 0 min 0,0 UV-I 0 W/m 3,4 C 5,2 C 8,0 km/h (2 Bft)
24.05.2020 05:43 5,2 C 4,4 C 88 % 1030,0 hPa 0,0 l/m 8,0 km/h (2 Bft) S-SW 202 0 min 0,0 UV-I 0 W/m 3,4 C 3,8 C 11,3 km/h (2 Bft)
24.05.2020 05:44 5,3 C 4,4 C 88 % 1030,1 hPa 0,0 l/m 9,7 km/h (2 Bft) S-SW 202 0 min 0,0 UV-I 0 W/m 3,5 C 2,6 C 12,9 km/h (3 Bft)
24.05.2020 05:45 5,3 C 4,4 C 88 % 1030,1 hPa 0,0 l/m 9,7 km/h (2 Bft) S-SW 202 0 min 0,0 UV-I 0 W/m 3,5 C 2,6 C 12,9 km/h (3 Bft)
24.05.2020 05:46 5,3 C 4,4 C 88 % 1030,1 hPa 0,0 l/m 9,7 km/h (2 Bft) S-SW 202 0 min 0,0 UV-I 0 W/m 3,5 C 2,6 C 14,5 km/h (3 Bft)
24.05.2020 05:47 5,4 C 5,0 C 88 % 1030,0 hPa 0,0 l/m 9,7 km/h (2 Bft) SW 225 0 min 0,0 UV-I 0 W/m 3,6 C 2,7 C 11,3 km/h (2 Bft)
24.05.2020 05:48 5,4 C 5,0 C 88 % 1030,1 hPa 0,0 l/m 8,0 km/h (2 Bft) SW 225 0 min 0,0 UV-I 0 W/m 3,6 C 4,0 C 11,3 km/h (2 Bft)
24.05.2020 05:49 5,6 C 5,0 C 88 % 1030,1 hPa 0,0 l/m 6,4 km/h (2 Bft) SW 225 0 min 0,0 UV-I 0 W/m 3,8 C 5,6 C 9,7 km/h (2 Bft)
24.05.2020 05:50 5,6 C 5,0 C 88 % 1030,1 hPa 0,0 l/m 8,0 km/h (2 Bft) SW 225 0 min 0,0 UV-I 5 W/m 3,8 C 4,2 C 11,3 km/h (2 Bft)
24.05.2020 05:51 5,7 C 5,0 C 88 % 1030,0 hPa 0,0 l/m 6,4 km/h (2 Bft) S-SW 202 0 min 0,0 UV-I 5 W/m 3,9 C 5,7 C 8,0 km/h (2 Bft)
24.05.2020 05:52 5,7 C 5,0 C 88 % 1030,2 hPa 0,0 l/m 6,4 km/h (2 Bft) SW 225 0 min 0,0 UV-I 5 W/m 3,9 C 5,7 C 8,0 km/h (2 Bft)
24.05.2020 05:53 5,7 C 5,0 C 88 % 1030,0 hPa 0,0 l/m 6,4 km/h (2 Bft) SW 225 0 min 0,0 UV-I 5 W/m 3,9 C 5,7 C 11,3 km/h (2 Bft)
24.05.2020 05:54 5,8 C 5,0 C 88 % 1030,0 hPa 0,0 l/m 9,7 km/h (2 Bft) SW 225 0 min 0,0 UV-I 7 W/m 4,0 C 3,2 C 12,9 km/h (3 Bft)
24.05.2020 05:55 5,7 C 5,0 C 88 % 1030,0 hPa 0,0 l/m 8,0 km/h (2 Bft) SW 225 0 min 0,0 UV-I 7 W/m 3,9 C 4,3 C 12,9 km/h (3 Bft)
24.05.2020 05:56 5,8 C 5,0 C 87 % 1030,1 hPa 0,0 l/m 8,0 km/h (2 Bft) SW 225 0 min 0,0 UV-I 7 W/m 3,8 C 4,4 C 11,3 km/h (2 Bft)
24.05.2020 05:57 5,8 C 5,0 C 87 % 1030,1 hPa 0,0 l/m 8,0 km/h (2 Bft) SW 225 0 min 0,0 UV-I 9 W/m 3,8 C 4,4 C 12,9 km/h (3 Bft)
24.05.2020 05:58 5,8 C 5,0 C 87 % 1030,1 hPa 0,0 l/m 9,7 km/h (2 Bft) S-SW 202 0 min 0,0 UV-I 9 W/m 3,8 C 3,2 C 12,9 km/h (3 Bft)
24.05.2020 05:59 5,8 C 5,0 C 87 % 1030,1 hPa 0,0 l/m 11,3 km/h (2 Bft) SW 225 0 min 0,0 UV-I 9 W/m 3,8 C 2,1 C 16,1 km/h (3 Bft)
24.05.2020 06:00 5,8 C 5,6 C 87 % 1030,1 hPa 0,0 l/m 8,0 km/h (2 Bft) SW 225 0 min 0,0 UV-I 10 W/m 3,8 C 4,4 C 11,3 km/h (2 Bft)
24.05.2020 06:01 5,8 C 5,6 C 87 % 1030,1 hPa 0,0 l/m 8,0 km/h (2 Bft) S-SW 202 0 min 0,0 UV-I 11 W/m 3,8 C 4,4 C 11,3 km/h (2 Bft)
24.05.2020 06:02 5,9 C 5,6 C 87 % 1030,1 hPa 0,0 l/m 9,7 km/h (2 Bft) S-SW 202 0 min 0,0 UV-I 12 W/m 3,9 C 3,3 C 12,9 km/h (3 Bft)
24.05.2020 06:03 5,8 C 5,6 C 87 % 1030,2 hPa 0,0 l/m 9,7 km/h (2 Bft) SW 225 0 min 0,0 UV-I 12 W/m 3,8 C 3,2 C 11,3 km/h (2 Bft)
24.05.2020 06:04 5,9 C 5,6 C 87 % 1030,1 hPa 0,0 l/m 9,7 km/h (2 Bft) SW 225 0 min 0,0 UV-I 12 W/m 3,9 C 3,3 C 12,9 km/h (3 Bft)
24.05.2020 06:05 5,9 C 5,6 C 87 % 1030,1 hPa 0,0 l/m 9,7 km/h (2 Bft) S-SW 202 0 min 0,0 UV-I 12 W/m 3,9 C 3,3 C 11,3 km/h (2 Bft)
24.05.2020 06:06 5,9 C 5,6 C 87 % 1030,2 hPa 0,0 l/m 9,7 km/h (2 Bft) S-SW 202 0 min 0,0 UV-I 12 W/m 3,9 C 3,3 C 12,9 km/h (3 Bft)
24.05.2020 06:07 5,9 C 5,6 C 87 % 1030,1 hPa 0,0 l/m 9,7 km/h (2 Bft) SW 225 0 min 0,0 UV-I 14 W/m 3,9 C 3,3 C 14,5 km/h (3 Bft)
24.05.2020 06:08 5,9 C 5,6 C 87 % 1030,2 hPa 0,0 l/m 8,0 km/h (2 Bft) SW 225 0 min 0,0 UV-I 14 W/m 3,9 C 4,5 C 11,3 km/h (2 Bft)
24.05.2020 06:09 5,9 C 5,6 C 87 % 1030,2 hPa 0,0 l/m 9,7 km/h (2 Bft) S-SW 202 0 min 0,0 UV-I 16 W/m 3,9 C 3,3 C 14,5 km/h (3 Bft)
24.05.2020 06:10 5,9 C 5,6 C 87 % 1030,2 hPa 0,0 l/m 8,0 km/h (2 Bft) S-SW 202 0 min 0,0 UV-I 16 W/m 3,9 C 4,5 C 11,3 km/h (2 Bft)
24.05.2020 06:11 6,0 C 5,6 C 87 % 1030,2 hPa 0,0 l/m 8,0 km/h (2 Bft) SW 225 0 min 0,0 UV-I 18 W/m 4,0 C 4,7 C 9,7 km/h (2 Bft)
24.05.2020 06:12 5,9 C 5,6 C 87 % 1030,2 hPa 0,0 l/m 8,0 km/h (2 Bft) S-SW 202 0 min 0,0 UV-I 19 W/m 3,9 C 4,5 C 11,3 km/h (2 Bft)
24.05.2020 06:13 5,9 C 5,6 C 87 % 1030,2 hPa 0,0 l/m 8,0 km/h (2 Bft) SW 225 0 min 0,0 UV-I 21 W/m 3,9 C 4,5 C 9,7 km/h (2 Bft)
24.05.2020 06:14 5,9 C 5,6 C 87 % 1030,2 hPa 0,0 l/m 8,0 km/h (2 Bft) SW 225 0 min 0,0 UV-I 23 W/m 3,9 C 4,5 C 11,3 km/h (2 Bft)
24.05.2020 06:15 5,9 C 5,6 C 87 % 1030,3 hPa 0,0 l/m 8,0 km/h (2 Bft) S-SW 202 0 min 0,0 UV-I 25 W/m 3,9 C 4,5 C 11,3 km/h (2 Bft)
24.05.2020 06:16 5,9 C 5,6 C 87 % 1030,2 hPa 0,0 l/m 8,0 km/h (2 Bft) S-SW 202 0 min 0,0 UV-I 25 W/m 3,9 C 4,5 C 14,5 km/h (3 Bft)
24.05.2020 06:17 5,9 C 5,6 C 87 % 1030,2 hPa 0,0 l/m 8,0 km/h (2 Bft) S-SW 202 0 min 0,0 UV-I 26 W/m 3,9 C 4,5 C 9,7 km/h (2 Bft)
24.05.2020 06:18 5,9 C 5,6 C 87 % 1030,2 hPa 0,0 l/m 9,7 km/h (2 Bft) S-SW 202 0 min 0,0 UV-I 27 W/m 3,9 C 3,3 C 12,9 km/h (3 Bft)
24.05.2020 06:19 5,9 C 5,6 C 87 % 1030,2 hPa 0,0 l/m 8,0 km/h (2 Bft) SW 225 0 min 0,0 UV-I 28 W/m 3,9 C 4,5 C 9,7 km/h (2 Bft)
24.05.2020 06:20 5,9 C 5,6 C 87 % 1030,2 hPa 0,0 l/m 6,4 km/h (2 Bft) S-SW 202 0 min 0,0 UV-I 28 W/m 3,9 C 5,9 C 12,9 km/h (3 Bft)
24.05.2020 06:21 5,9 C 5,6 C 87 % 1030,3 hPa 0,0 l/m 8,0 km/h (2 Bft) S-SW 202 0 min 0,0 UV-I 28 W/m 3,9 C 4,5 C 11,3 km/h (2 Bft)
24.05.2020 06:22 5,8 C 5,6 C 87 % 1030,2 hPa 0,0 l/m 8,0 km/h (2 Bft) S-SW 202 0 min 0,0 UV-I 26 W/m 3,8 C 4,4 C 9,7 km/h (2 Bft)
24.05.2020 06:23 5,8 C 5,0 C 87 % 1030,3 hPa 0,0 l/m 6,4 km/h (2 Bft) S-SW 202 0 min 0,0 UV-I 26 W/m 3,8 C 5,8 C 9,7 km/h (2 Bft)
24.05.2020 06:24 5,8 C 5,0 C 87 % 1030,2 hPa 0,0 l/m 8,0 km/h (2 Bft) S-SW 202 0 min 0,0 UV-I 26 W/m 3,8 C 4,4 C 11,3 km/h (2 Bft)
24.05.2020 06:25 5,8 C 5,0 C 87 % 1030,3 hPa 0,0 l/m 6,4 km/h (2 Bft) SW 225 0 min 0,0 UV-I 26 W/m 3,8 C 5,8 C 9,7 km/h (2 Bft)
24.05.2020 06:26 5,8 C 5,0 C 87 % 1030,3 hPa 0,0 l/m 8,0 km/h (2 Bft) S-SW 202 0 min 0,0 UV-I 26 W/m 3,8 C 4,4 C 9,7 km/h (2 Bft)
24.05.2020 06:27 5,8 C 5,0 C 88 % 1030,3 hPa 0,0 l/m 8,0 km/h (2 Bft) S-SW 202 0 min 0,0 UV-I 26 W/m 4,0 C 4,4 C 11,3 km/h (2 Bft)
24.05.2020 06:28 5,7 C 5,0 C 88 % 1030,3 hPa 0,0 l/m 6,4 km/h (2 Bft) S-SW 202 0 min 0,0 UV-I 26 W/m 3,9 C 5,7 C 8,0 km/h (2 Bft)
24.05.2020 06:29 5,7 C 5,0 C 88 % 1030,4 hPa 0,0 l/m 6,4 km/h (2 Bft) S-SW 202 0 min 0,0 UV-I 26 W/m 3,9 C 5,7 C 11,3 km/h (2 Bft)
24.05.2020 06:30 5,7 C 5,0 C 88 % 1030,4 hPa 0,0 l/m 6,4 km/h (2 Bft) SW 225 0 min 0,0 UV-I 27 W/m 3,9 C 5,7 C 8,0 km/h (2 Bft)
24.05.2020 06:31 5,7 C 5,0 C 88 % 1030,3 hPa 0,0 l/m 6,4 km/h (2 Bft) S-SW 202 0 min 0,0 UV-I 28 W/m 3,9 C 5,7 C 8,0 km/h (2 Bft)
24.05.2020 06:32 5,7 C 5,0 C 88 % 1030,4 hPa 0,0 l/m 6,4 km/h (2 Bft) SW 225 0 min 0,0 UV-I 30 W/m 3,9 C 5,7 C 9,7 km/h (2 Bft)
24.05.2020 06:33 5,7 C 5,0 C 88 % 1030,3 hPa 0,0 l/m 9,7 km/h (2 Bft) S-SW 202 0 min 0,0 UV-I 32 W/m 3,9 C 3,1 C 12,9 km/h (3 Bft)
24.05.2020 06:34 5,7 C 5,0 C 88 % 1030,4 hPa 0,0 l/m 8,0 km/h (2 Bft) SW 225 0 min 0,0 UV-I 33 W/m 3,9 C 4,3 C 11,3 km/h (2 Bft)
24.05.2020 06:35 5,7 C 5,0 C 88 % 1030,4 hPa 0,0 l/m 4,8 km/h (1 Bft) SW 225 0 min 0,0 UV-I 35 W/m 3,9 C 5,7 C 11,3 km/h (2 Bft)
24.05.2020 06:36 5,7 C 5,0 C 88 % 1030,4 hPa 0,0 l/m 4,8 km/h (1 Bft) SW 225 0 min 0,0 UV-I 37 W/m 3,9 C 5,7 C 6,4 km/h (2 Bft)
24.05.2020 06:37 5,7 C 5,0 C 88 % 1030,4 hPa 0,0 l/m 4,8 km/h (1 Bft) SW 225 0 min 0,0 UV-I 39 W/m 3,9 C 5,7 C 8,0 km/h (2 Bft)
24.05.2020 06:38 5,7 C 5,0 C 88 % 1030,3 hPa 0,0 l/m 4,8 km/h (1 Bft) S-SW 202 0 min 0,0 UV-I 39 W/m 3,9 C 5,7 C 6,4 km/h (2 Bft)
24.05.2020 06:39 5,7 C 5,0 C 88 % 1030,4 hPa 0,0 l/m 4,8 km/h (1 Bft) SW 225 0 min 0,0 UV-I 39 W/m 3,9 C 5,7 C 8,0 km/h (2 Bft)
24.05.2020 06:40 5,7 C 5,0 C 88 % 1030,3 hPa 0,0 l/m 6,4 km/h (2 Bft) SW 225 0 min 0,0 UV-I 39 W/m 3,9 C 5,7 C 8,0 km/h (2 Bft)
24.05.2020 06:41 5,7 C 5,0 C 88 % 1030,4 hPa 0,0 l/m 6,4 km/h (2 Bft) SW 225 0 min 0,0 UV-I 39 W/m 3,9 C 5,7 C 8,0 km/h (2 Bft)
24.05.2020 06:42 5,7 C 5,0 C 88 % 1030,3 hPa 0,0 l/m 6,4 km/h (2 Bft) S-SW 202 0 min 0,0 UV-I 39 W/m 3,9 C 5,7 C 9,7 km/h (2 Bft)
24.05.2020 06:43 5,7 C 5,0 C 89 % 1030,3 hPa 0,0 l/m 4,8 km/h (1 Bft) SW 225 0 min 0,0 UV-I 40 W/m 4,0 C 5,7 C 6,4 km/h (2 Bft)
24.05.2020 06:44 5,7 C 5,0 C 88 % 1030,4 hPa 0,0 l/m 4,8 km/h (1 Bft) S-SW 202 0 min 0,0 UV-I 42 W/m 3,9 C 5,7 C 8,0 km/h (2 Bft)
24.05.2020 06:45 5,7 C 5,0 C 89 % 1030,3 hPa 0,0 l/m 6,4 km/h (2 Bft) S-SW 202 0 min 0,0 UV-I 42 W/m 4,0 C 5,7 C 9,7 km/h (2 Bft)
24.05.2020 06:46 5,8 C 5,0 C 89 % 1030,4 hPa 0,0 l/m 4,8 km/h (1 Bft) S-SW 202 0 min 0,0 UV-I 44 W/m 4,1 C 5,8 C 8,0 km/h (2 Bft)
24.05.2020 06:47 5,7 C 5,0 C 89 % 1030,3 hPa 0,0 l/m 4,8 km/h (1 Bft) S-SW 202 0 min 0,0 UV-I 48 W/m 4,0 C 5,7 C 8,0 km/h (2 Bft)
24.05.2020 06:48 5,8 C 5,0 C 89 % 1030,3 hPa 0,0 l/m 3,2 km/h (1 Bft) SW 225 0 min 0,0 UV-I 51 W/m 4,1 C 5,8 C 4,8 km/h (1 Bft)
24.05.2020 06:49 5,8 C 5,0 C 89 % 1030,4 hPa 0,0 l/m 4,8 km/h (1 Bft) SW 225 0 min 0,0 UV-I 54 W/m 4,1 C 5,8 C 8,0 km/h (2 Bft)
24.05.2020 06:50 5,8 C 5,0 C 89 % 1030,4 hPa 0,0 l/m 4,8 km/h (1 Bft) S-SW 202 0 min 0,0 UV-I 58 W/m 4,1 C 5,8 C 6,4 km/h (2 Bft)
24.05.2020 06:51 5,8 C 5,0 C 89 % 1030,4 hPa 0,0 l/m 6,4 km/h (2 Bft) S-SW 202 0 min 0,0 UV-I 63 W/m 4,1 C 5,8 C 8,0 km/h (2 Bft)
24.05.2020 06:52 5,8 C 5,0 C 89 % 1030,4 hPa 0,0 l/m 4,8 km/h (1 Bft) S-SW 202 0 min 0,0 UV-I 69 W/m 4,1 C 5,8 C 6,4 km/h (2 Bft)
24.05.2020 06:53 5,8 C 5,0 C 89 % 1030,4 hPa 0,0 l/m 1,6 km/h (1 Bft) S-SW 202 0 min 0,0 UV-I 83 W/m 4,1 C 5,8 C 3,2 km/h (1 Bft)
24.05.2020 06:54 5,8 C 5,0 C 89 % 1030,4 hPa 0,0 l/m 4,8 km/h (1 Bft) S-SW 202 0 min 0,0 UV-I 102 W/m 4,1 C 5,8 C 8,0 km/h (2 Bft)
24.05.2020 06:55 5,8 C 5,6 C 89 % 1030,3 hPa 0,0 l/m 4,8 km/h (1 Bft) SW 225 0 min 0,0 UV-I 97 W/m 4,1 C 5,8 C 6,4 km/h (2 Bft)
24.05.2020 06:56 5,9 C 5,6 C 89 % 1030,3 hPa 0,0 l/m 4,8 km/h (1 Bft) SW 225 0 min 0,0 UV-I 91 W/m 4,2 C 5,9 C 8,0 km/h (2 Bft)
24.05.2020 06:57 5,9 C 5,6 C 89 % 1030,4 hPa 0,0 l/m 4,8 km/h (1 Bft) SW 225 0 min 0,0 UV-I 84 W/m 4,2 C 5,9 C 8,0 km/h (2 Bft)
24.05.2020 06:58 6,0 C 5,6 C 89 % 1030,5 hPa 0,0 l/m 6,4 km/h (2 Bft) S-SW 202 0 min 0,0 UV-I 84 W/m 4,3 C 6,0 C 9,7 km/h (2 Bft)
24.05.2020 06:59 6,1 C 5,6 C 89 % 1030,4 hPa 0,0 l/m 4,8 km/h (1 Bft) SW 225 0 min 0,0 UV-I 100 W/m 4,4 C 6,1 C 6,4 km/h (2 Bft)
24.05.2020 07:00 6,1 C 5,6 C 89 % 1030,4 hPa 0,0 l/m 4,8 km/h (1 Bft) S-SW 202 0 min 0,0 UV-I 127 W/m 4,4 C 6,1 C 6,4 km/h (2 Bft)
24.05.2020 07:01 6,1 C 6,1 C 89 % 1030,5 hPa 0,0 l/m 4,8 km/h (1 Bft) SW 225 0 min 0,0 UV-I 132 W/m 4,4 C 6,1 C 6,4 km/h (2 Bft)
24.05.2020 07:02 6,2 C 6,1 C 89 % 1030,6 hPa 0,0 l/m 4,8 km/h (1 Bft) S-SW 202 0 min 0,0 UV-I 125 W/m 4,5 C 6,2 C 6,4 km/h (2 Bft)
24.05.2020 07:03 6,2 C 6,1 C 89 % 1030,6 hPa 0,0 l/m 6,4 km/h (2 Bft) SW 225 0 min 0,0 UV-I 98 W/m 4,5 C 6,2 C 9,7 km/h (2 Bft)
24.05.2020 07:04 6,2 C 6,1 C 88 % 1030,5 hPa 0,0 l/m 8,0 km/h (2 Bft) SW 225 0 min 0,0 UV-I 107 W/m 4,4 C 4,9 C 12,9 km/h (3 Bft)
24.05.2020 07:05 6,3 C 6,7 C 88 % 1030,6 hPa 0,0 l/m 6,4 km/h (2 Bft) SW 225 0 min 0,0 UV-I 130 W/m 4,5 C 6,3 C 11,3 km/h (2 Bft)
24.05.2020 07:06 6,3 C 6,7 C 88 % 1030,5 hPa 0,0 l/m 6,4 km/h (2 Bft) SW 225 0 min 0,5 UV-I 141 W/m 4,5 C 6,3 C 8,0 km/h (2 Bft)
24.05.2020 07:07 6,4 C 6,7 C 88 % 1030,7 hPa 0,0 l/m 6,4 km/h (2 Bft) S-SW 202 0 min 0,5 UV-I 144 W/m 4,6 C 6,4 C 8,0 km/h (2 Bft)
24.05.2020 07:08 6,4 C 6,7 C 88 % 1030,6 hPa 0,0 l/m 8,0 km/h (2 Bft) SW 225 0 min 0,0 UV-I 135 W/m 4,6 C 5,1 C 8,0 km/h (2 Bft)
24.05.2020 07:09 6,4 C 7,2 C 88 % 1030,7 hPa 0,0 l/m 9,7 km/h (2 Bft) S-SW 202 0 min 0,0 UV-I 146 W/m 4,6 C 3,8 C 11,3 km/h (2 Bft)
24.05.2020 07:10 6,5 C 7,2 C 88 % 1030,7 hPa 0,0 l/m 8,0 km/h (2 Bft) SW 225 0 min 0,0 UV-I 149 W/m 4,7 C 5,2 C 11,3 km/h (2 Bft)
24.05.2020 07:11 6,6 C 7,2 C 88 % 1030,8 hPa 0,0 l/m 6,4 km/h (2 Bft) S-SW 202 0 min 0,0 UV-I 144 W/m 4,8 C 6,6 C 8,0 km/h (2 Bft)
24.05.2020 07:12 6,6 C 7,2 C 88 % 1030,7 hPa 0,0 l/m 6,4 km/h (2 Bft) SW 225 0 min 0,3 UV-I 120 W/m 4,8 C 6,6 C 8,0 km/h (2 Bft)
24.05.2020 07:13 6,6 C 7,2 C 88 % 1030,7 hPa 0,0 l/m 8,0 km/h (2 Bft) S-SW 202 0 min 0,5 UV-I 116 W/m 4,8 C 5,3 C 9,7 km/h (2 Bft)
24.05.2020 07:14 6,7 C 7,2 C 88 % 1030,6 hPa 0,0 l/m 8,0 km/h (2 Bft) S-SW 202 0 min 0,5 UV-I 120 W/m 4,9 C 5,4 C 9,7 km/h (2 Bft)
24.05.2020 07:15 6,7 C 7,2 C 88 % 1030,5 hPa 0,0 l/m 4,8 km/h (1 Bft) S-SW 202 0 min 0,6 UV-I 195 W/m 4,9 C 6,7 C 9,7 km/h (2 Bft)
24.05.2020 07:16 6,8 C 7,8 C 88 % 1030,6 hPa 0,0 l/m 6,4 km/h (2 Bft) S-SW 202 0 min 0,6 UV-I 190 W/m 5,0 C 6,8 C 8,0 km/h (2 Bft)
24.05.2020 07:17 6,8 C 7,8 C 88 % 1030,7 hPa 0,0 l/m 6,4 km/h (2 Bft) S-SW 202 0 min 0,6 UV-I 221 W/m 5,0 C 6,8 C 8,0 km/h (2 Bft)
24.05.2020 07:18 6,9 C 7,8 C 88 % 1030,6 hPa 0,0 l/m 8,0 km/h (2 Bft) SW 225 0 min 0,7 UV-I 176 W/m 5,1 C 5,6 C 11,3 km/h (2 Bft)
24.05.2020 07:19 7,0 C 7,8 C 88 % 1030,6 hPa 0,0 l/m 6,4 km/h (2 Bft) S-SW 202 0 min 0,6 UV-I 232 W/m 5,2 C 7,0 C 9,7 km/h (2 Bft)
24.05.2020 07:20 7,1 C 8,3 C 88 % 1030,6 hPa 0,0 l/m 9,7 km/h (2 Bft) S-SW 202 0 min 0,6 UV-I 193 W/m 5,2 C 4,6 C 14,5 km/h (3 Bft)
24.05.2020 07:21 7,1 C 8,3 C 88 % 1030,6 hPa 0,0 l/m 9,7 km/h (2 Bft) SW 225 0 min 0,7 UV-I 264 W/m 5,2 C 4,6 C 12,9 km/h (3 Bft)
24.05.2020 07:22 7,2 C 8,3 C 87 % 1030,6 hPa 0,0 l/m 8,0 km/h (2 Bft) SW 225 0 min 0,6 UV-I 236 W/m 5,2 C 5,9 C 9,7 km/h (2 Bft)
24.05.2020 07:23 7,2 C 8,3 C 87 % 1030,8 hPa 0,0 l/m 6,4 km/h (2 Bft) S-SW 202 0 min 0,6 UV-I 186 W/m 5,2 C 7,2 C 8,0 km/h (2 Bft)
24.05.2020 07:24 7,3 C 8,3 C 87 % 1030,7 hPa 0,0 l/m 8,0 km/h (2 Bft) S-SW 202 0 min 0,6 UV-I 171 W/m 5,3 C 6,0 C 11,3 km/h (2 Bft)
24.05.2020 07:25 7,3 C 8,3 C 87 % 1030,8 hPa 0,0 l/m 9,7 km/h (2 Bft) S-SW 202 0 min 0,6 UV-I 163 W/m 5,3 C 4,8 C 11,3 km/h (2 Bft)
24.05.2020 07:26 7,3 C 8,3 C 87 % 1030,6 hPa 0,0 l/m 12,9 km/h (3 Bft) S-SW 202 0 min 0,6 UV-I 179 W/m 5,3 C 2,9 C 19,3 km/h (3 Bft)
24.05.2020 07:27 7,3 C 8,3 C 87 % 1030,6 hPa 0,0 l/m 8,0 km/h (2 Bft) S-SW 202 0 min 0,6 UV-I 165 W/m 5,3 C 6,0 C 11,3 km/h (2 Bft)
24.05.2020 07:28 7,3 C 8,3 C 87 % 1030,6 hPa 0,0 l/m 9,7 km/h (2 Bft) S-SW 202 0 min 0,6 UV-I 195 W/m 5,3 C 4,8 C 12,9 km/h (3 Bft)
24.05.2020 07:29 7,3 C 8,3 C 87 % 1030,6 hPa 0,0 l/m 11,3 km/h (2 Bft) S-SW 202 0 min 0,7 UV-I 176 W/m 5,3 C 3,8 C 14,5 km/h (3 Bft)
24.05.2020 07:30 7,3 C 8,3 C 87 % 1030,6 hPa 0,0 l/m 9,7 km/h (2 Bft) S-SW 202 0 min 0,6 UV-I 156 W/m 5,3 C 4,8 C 12,9 km/h (3 Bft)
24.05.2020 07:31 7,3 C 8,3 C 87 % 1030,6 hPa 0,0 l/m 8,0 km/h (2 Bft) S-SW 202 0 min 0,6 UV-I 148 W/m 5,3 C 6,0 C 12,9 km/h (3 Bft)
24.05.2020 07:32 7,3 C 8,3 C 87 % 1030,5 hPa 0,0 l/m 9,7 km/h (2 Bft) SW 225 0 min 0,6 UV-I 148 W/m 5,3 C 4,8 C 12,9 km/h (3 Bft)
24.05.2020 07:33 7,4 C 8,3 C 87 % 1030,6 hPa 0,0 l/m 8,0 km/h (2 Bft) SW 225 0 min 0,5 UV-I 141 W/m 5,4 C 6,1 C 11,3 km/h (2 Bft)
24.05.2020 07:34 7,3 C 8,3 C 87 % 1030,8 hPa 0,0 l/m 8,0 km/h (2 Bft) SW 225 0 min 0,5 UV-I 115 W/m 5,3 C 6,0 C 11,3 km/h (2 Bft)
24.05.2020 07:35 7,3 C 8,3 C 87 % 1030,8 hPa 0,0 l/m 9,7 km/h (2 Bft) S-SW 202 0 min 0,5 UV-I 104 W/m 5,3 C 4,8 C 16,1 km/h (3 Bft)
24.05.2020 07:36 7,3 C 7,8 C 87 % 1030,7 hPa 0,0 l/m 6,4 km/h (2 Bft) S-SW 202 0 min 0,5 UV-I 100 W/m 5,3 C 7,3 C 9,7 km/h (2 Bft)
24.05.2020 07:37 7,3 C 7,8 C 87 % 1030,7 hPa 0,0 l/m 8,0 km/h (2 Bft) SW 225 0 min 0,5 UV-I 95 W/m 5,3 C 6,0 C 11,3 km/h (2 Bft)
24.05.2020 07:38 7,3 C 7,8 C 87 % 1030,7 hPa 0,0 l/m 11,3 km/h (2 Bft) SW 225 0 min 0,5 UV-I 91 W/m 5,3 C 3,8 C 14,5 km/h (3 Bft)
24.05.2020 07:39 7,3 C 7,8 C 87 % 1030,7 hPa 0,0 l/m 11,3 km/h (2 Bft) SW 225 0 min 0,6 UV-I 98 W/m 5,3 C 3,8 C 14,5 km/h (3 Bft)
24.05.2020 07:40 7,2 C 7,8 C 87 % 1030,7 hPa 0,0 l/m 11,3 km/h (2 Bft) SW 225 0 min 0,6 UV-I 111 W/m 5,2 C 3,7 C 14,5 km/h (3 Bft)
24.05.2020 07:41 7,2 C 7,8 C 87 % 1030,6 hPa 0,0 l/m 9,7 km/h (2 Bft) S-SW 202 0 min 0,6 UV-I 125 W/m 5,2 C 4,7 C 11,3 km/h (2 Bft)
24.05.2020 07:42 7,2 C 7,8 C 87 % 1030,7 hPa 0,0 l/m 12,9 km/h (3 Bft) S-SW 202 0 min 0,5 UV-I 113 W/m 5,2 C 2,8 C 16,1 km/h (3 Bft)
24.05.2020 07:43 7,2 C 7,8 C 87 % 1030,7 hPa 0,0 l/m 11,3 km/h (2 Bft) SW 225 0 min 0,5 UV-I 107 W/m 5,2 C 3,7 C 14,5 km/h (3 Bft)
24.05.2020 07:44 7,2 C 7,8 C 87 % 1030,7 hPa 0,0 l/m 9,7 km/h (2 Bft) S-SW 202 0 min 0,6 UV-I 93 W/m 5,2 C 4,7 C 12,9 km/h (3 Bft)
24.05.2020 07:45 7,2 C 7,8 C 87 % 1030,6 hPa 0,0 l/m 9,7 km/h (2 Bft) S-SW 202 0 min 0,6 UV-I 88 W/m 5,2 C 4,7 C 14,5 km/h (3 Bft)
24.05.2020 07:46 7,2 C 7,8 C 87 % 1030,7 hPa 0,0 l/m 11,3 km/h (2 Bft) SW 225 0 min 0,6 UV-I 103 W/m 5,2 C 3,7 C 14,5 km/h (3 Bft)
24.05.2020 07:47 7,2 C 7,8 C 87 % 1030,7 hPa 0,0 l/m 9,7 km/h (2 Bft) S-SW 202 0 min 0,6 UV-I 84 W/m 5,2 C 4,7 C 14,5 km/h (3 Bft)
24.05.2020 07:48 7,2 C 7,2 C 87 % 1030,7 hPa 0,0 l/m 11,3 km/h (2 Bft) S-SW 202 0 min 0,6 UV-I 91 W/m 5,2 C 3,7 C 16,1 km/h (3 Bft)
24.05.2020 07:49 7,2 C 7,2 C 87 % 1030,7 hPa 0,0 l/m 11,3 km/h (2 Bft) S-SW 202 0 min 0,6 UV-I 91 W/m 5,2 C 3,7 C 14,5 km/h (3 Bft)
24.05.2020 07:50 7,2 C 7,2 C 87 % 1030,7 hPa 0,0 l/m 11,3 km/h (2 Bft) SW 225 0 min 0,6 UV-I 95 W/m 5,2 C 3,7 C 14,5 km/h (3 Bft)
24.05.2020 07:51 7,1 C 7,2 C 87 % 1030,8 hPa 0,0 l/m 11,3 km/h (2 Bft) SW 225 0 min 0,6 UV-I 93 W/m 5,1 C 3,6 C 14,5 km/h (3 Bft)
24.05.2020 07:52 7,2 C 7,8 C 87 % 1030,7 hPa 0,0 l/m 12,9 km/h (3 Bft) S-SW 202 0 min 0,6 UV-I 98 W/m 5,2 C 2,8 C 17,7 km/h (3 Bft)
24.05.2020 07:53 7,1 C 7,2 C 87 % 1030,7 hPa 0,0 l/m 12,9 km/h (3 Bft) SW 225 0 min 0,6 UV-I 109 W/m 5,1 C 2,7 C 17,7 km/h (3 Bft)
24.05.2020 07:54 7,1 C 7,8 C 87 % 1030,7 hPa 0,0 l/m 9,7 km/h (2 Bft) SW 225 0 min 0,7 UV-I 128 W/m 5,1 C 4,6 C 14,5 km/h (3 Bft)
24.05.2020 07:55 7,1 C 7,8 C 88 % 1030,7 hPa 0,0 l/m 9,7 km/h (2 Bft) SW 225 0 min 0,7 UV-I 132 W/m 5,2 C 4,6 C 14,5 km/h (3 Bft)
24.05.2020 07:56 7,2 C 7,8 C 88 % 1030,9 hPa 0,0 l/m 9,7 km/h (2 Bft) S-SW 202 0 min 0,7 UV-I 165 W/m 5,3 C 4,7 C 11,3 km/h (2 Bft)
24.05.2020 07:57 7,2 C 7,8 C 88 % 1030,8 hPa 0,0 l/m 8,0 km/h (2 Bft) SW 225 0 min 0,7 UV-I 206 W/m 5,3 C 5,9 C 11,3 km/h (2 Bft)
24.05.2020 07:58 7,2 C 8,3 C 88 % 1030,8 hPa 0,0 l/m 8,0 km/h (2 Bft) S-SW 202 0 min 0,7 UV-I 168 W/m 5,3 C 5,9 C 11,3 km/h (2 Bft)
24.05.2020 07:59 7,2 C 8,3 C 88 % 1031,0 hPa 0,0 l/m 9,7 km/h (2 Bft) SW 225 0 min 0,7 UV-I 158 W/m 5,3 C 4,7 C 12,9 km/h (3 Bft)
24.05.2020 08:00 7,2 C 8,3 C 87 % 1030,8 hPa 0,0 l/m 9,7 km/h (2 Bft) SW 225 0 min 0,7 UV-I 167 W/m 5,2 C 4,7 C 12,9 km/h (3 Bft)
24.05.2020 08:01 7,3 C 8,3 C 88 % 1031,0 hPa 0,0 l/m 8,0 km/h (2 Bft) SW 225 0 min 0,7 UV-I 156 W/m 5,4 C 6,0 C 9,7 km/h (2 Bft)
24.05.2020 08:02 7,3 C 8,3 C 88 % 1030,9 hPa 0,0 l/m 8,0 km/h (2 Bft) SW 225 0 min 0,6 UV-I 137 W/m 5,4 C 6,0 C 11,3 km/h (2 Bft)
24.05.2020 08:03 7,3 C 8,3 C 87 % 1030,9 hPa 0,0 l/m 8,0 km/h (2 Bft) SW 225 0 min 0,6 UV-I 111 W/m 5,3 C 6,0 C 11,3 km/h (2 Bft)
24.05.2020 08:04 7,3 C 8,3 C 88 % 1031,0 hPa 0,0 l/m 9,7 km/h (2 Bft) S-SW 202 0 min 0,6 UV-I 128 W/m 5,4 C 4,8 C 11,3 km/h (2 Bft)
24.05.2020 08:05 7,3 C 8,3 C 88 % 1031,0 hPa 0,0 l/m 6,4 km/h (2 Bft) W-SW 247 0 min 0,7 UV-I 137 W/m 5,4 C 7,3 C 8,0 km/h (2 Bft)
24.05.2020 08:06 7,3 C 8,3 C 88 % 1031,1 hPa 0,0 l/m 4,8 km/h (1 Bft) SW 225 0 min 0,7 UV-I 114 W/m 5,4 C 7,3 C 9,7 km/h (2 Bft)
24.05.2020 08:07 7,4 C 8,3 C 88 % 1031,0 hPa 0,0 l/m 8,0 km/h (2 Bft) S-SW 202 0 min 0,8 UV-I 116 W/m 5,5 C 6,1 C 12,9 km/h (3 Bft)
24.05.2020 08:08 7,4 C 8,3 C 88 % 1031,1 hPa 0,0 l/m 8,0 km/h (2 Bft) S-SW 202 0 min 0,8 UV-I 132 W/m 5,5 C 6,1 C 11,3 km/h (2 Bft)
24.05.2020 08:09 7,4 C 8,3 C 88 % 1031,0 hPa 0,0 l/m 11,3 km/h (2 Bft) S-SW 202 0 min 1,0 UV-I 178 W/m 5,5 C 3,9 C 16,1 km/h (3 Bft)
24.05.2020 08:10 7,4 C 8,3 C 88 % 1031,1 hPa 0,0 l/m 6,4 km/h (2 Bft) S-SW 202 0 min 0,9 UV-I 206 W/m 5,5 C 7,4 C 11,3 km/h (2 Bft)
24.05.2020 08:11 7,5 C 8,3 C 88 % 1031,1 hPa 0,0 l/m 6,4 km/h (2 Bft) SW 225 0 min 0,9 UV-I 195 W/m 5,6 C 7,5 C 8,0 km/h (2 Bft)
24.05.2020 08:12 7,5 C 8,9 C 88 % 1031,1 hPa 0,0 l/m 9,7 km/h (2 Bft) SW 225 0 min 0,9 UV-I 185 W/m 5,6 C 5,0 C 12,9 km/h (3 Bft)
24.05.2020 08:13 7,6 C 8,9 C 88 % 1031,1 hPa 0,0 l/m 11,3 km/h (2 Bft) SW 225 0 min 0,9 UV-I 200 W/m 5,7 C 4,1 C 12,9 km/h (3 Bft)
24.05.2020 08:14 7,6 C 8,9 C 87 % 1031,1 hPa 0,0 l/m 6,4 km/h (2 Bft) SW 225 0 min 0,9 UV-I 253 W/m 5,6 C 7,6 C 11,3 km/h (2 Bft)
24.05.2020 08:15 7,6 C 8,9 C 88 % 1031,1 hPa 0,0 l/m 9,7 km/h (2 Bft) S-SW 202 0 min 0,8 UV-I 180 W/m 5,7 C 5,1 C 12,9 km/h (3 Bft)
24.05.2020 08:16 7,6 C 8,9 C 88 % 1031,2 hPa 0,0 l/m 6,4 km/h (2 Bft) S-SW 202 0 min 0,9 UV-I 192 W/m 5,7 C 7,6 C 11,3 km/h (2 Bft)
24.05.2020 08:17 7,6 C 8,9 C 87 % 1031,2 hPa 0,0 l/m 9,7 km/h (2 Bft) S-SW 202 0 min 1,0 UV-I 206 W/m 5,6 C 5,1 C 11,3 km/h (2 Bft)
24.05.2020 08:18 7,6 C 8,9 C 87 % 1031,1 hPa 0,0 l/m 8,0 km/h (2 Bft) S-SW 202 0 min 1,1 UV-I 206 W/m 5,6 C 6,3 C 12,9 km/h (3 Bft)
24.05.2020 08:19 7,7 C 9,4 C 87 % 1031,1 hPa 0,0 l/m 8,0 km/h (2 Bft) S-SW 202 0 min 1,0 UV-I 206 W/m 5,7 C 6,4 C 11,3 km/h (2 Bft)
24.05.2020 08:20 7,8 C 9,4 C 88 % 1031,2 hPa 0,0 l/m 8,0 km/h (2 Bft) S-SW 202 0 min 1,0 UV-I 206 W/m 5,9 C 6,5 C 9,7 km/h (2 Bft)
24.05.2020 08:21 7,8 C 9,4 C 88 % 1031,2 hPa 0,0 l/m 8,0 km/h (2 Bft) SW 225 0 min 1,0 UV-I 202 W/m 5,9 C 6,5 C 11,3 km/h (2 Bft)
24.05.2020 08:22 7,9 C 9,4 C 87 % 1031,1 hPa 0,0 l/m 8,0 km/h (2 Bft) S-SW 202 0 min 1,0 UV-I 227 W/m 5,9 C 6,6 C 11,3 km/h (2 Bft)
24.05.2020 08:23 7,9 C 9,4 C 87 % 1031,1 hPa 0,0 l/m 9,7 km/h (2 Bft) S-SW 202 0 min 1,1 UV-I 227 W/m 5,9 C 5,5 C 14,5 km/h (3 Bft)
24.05.2020 08:24 8,0 C 9,4 C 87 % 1031,1 hPa 0,0 l/m 9,7 km/h (2 Bft) S-SW 202 0 min 0,9 UV-I 227 W/m 6,0 C 5,6 C 14,5 km/h (3 Bft)
24.05.2020 08:25 8,0 C 10,0 C 87 % 1031,1 hPa 0,0 l/m 8,0 km/h (2 Bft) SW 225 0 min 0,9 UV-I 197 W/m 6,0 C 6,8 C 12,9 km/h (3 Bft)
24.05.2020 08:26 8,0 C 9,4 C 87 % 1031,1 hPa 0,0 l/m 11,3 km/h (2 Bft) S-SW 202 0 min 0,9 UV-I 206 W/m 6,0 C 4,6 C 14,5 km/h (3 Bft)
24.05.2020 08:27 7,9 C 9,4 C 86 % 1031,1 hPa 0,0 l/m 11,3 km/h (2 Bft) S-SW 202 0 min 0,7 UV-I 168 W/m 5,7 C 4,5 C 16,1 km/h (3 Bft)
24.05.2020 08:28 7,8 C 9,4 C 86 % 1031,1 hPa 0,0 l/m 14,5 km/h (3 Bft) S-SW 202 0 min 0,8 UV-I 162 W/m 5,6 C 2,7 C 19,3 km/h (3 Bft)
24.05.2020 08:29 7,8 C 8,9 C 86 % 1031,2 hPa 0,0 l/m 14,5 km/h (3 Bft) S-SW 202 0 min 0,9 UV-I 171 W/m 5,6 C 2,7 C 17,7 km/h (3 Bft)
24.05.2020 08:30 7,8 C 8,9 C 86 % 1031,1 hPa 0,0 l/m 9,7 km/h (2 Bft) S-SW 202 0 min 0,9 UV-I 197 W/m 5,6 C 5,4 C 14,5 km/h (3 Bft)
24.05.2020 08:31 7,8 C 8,9 C 87 % 1031,2 hPa 0,0 l/m 9,7 km/h (2 Bft) S-SW 202 0 min 0,9 UV-I 213 W/m 5,8 C 5,4 C 14,5 km/h (3 Bft)
24.05.2020 08:32 7,7 C 8,9 C 87 % 1031,2 hPa 0,0 l/m 6,4 km/h (2 Bft) S-SW 202 0 min 0,9 UV-I 209 W/m 5,7 C 7,7 C 9,7 km/h (2 Bft)
24.05.2020 08:33 7,8 C 8,9 C 87 % 1031,2 hPa 0,0 l/m 11,3 km/h (2 Bft) S-SW 202 0 min 0,7 UV-I 162 W/m 5,8 C 4,4 C 14,5 km/h (3 Bft)
24.05.2020 08:34 7,8 C 8,9 C 87 % 1031,2 hPa 0,0 l/m 9,7 km/h (2 Bft) SW 225 0 min 0,7 UV-I 155 W/m 5,8 C 5,4 C 14,5 km/h (3 Bft)
24.05.2020 08:35 7,8 C 8,9 C 87 % 1031,2 hPa 0,0 l/m 11,3 km/h (2 Bft) SW 225 0 min 0,6 UV-I 132 W/m 5,8 C 4,4 C 14,5 km/h (3 Bft)
24.05.2020 08:36 7,8 C 8,9 C 87 % 1031,2 hPa 0,0 l/m 11,3 km/h (2 Bft) SW 225 0 min 0,6 UV-I 135 W/m 5,8 C 4,4 C 16,1 km/h (3 Bft)
24.05.2020 08:37 7,8 C 8,9 C 87 % 1031,2 hPa 0,0 l/m 11,3 km/h (2 Bft) S-SW 202 0 min 0,7 UV-I 148 W/m 5,8 C 4,4 C 14,5 km/h (3 Bft)
24.05.2020 08:38 7,8 C 8,9 C 87 % 1031,2 hPa 0,0 l/m 11,3 km/h (2 Bft) S-SW 202 0 min 0,9 UV-I 183 W/m 5,8 C 4,4 C 14,5 km/h (3 Bft)
24.05.2020 08:39 7,8 C 8,9 C 87 % 1031,2 hPa 0,0 l/m 11,3 km/h (2 Bft) S-SW 202 0 min 0,9 UV-I 203 W/m 5,8 C 4,4 C 14,5 km/h (3 Bft)
24.05.2020 08:40 7,8 C 8,9 C 87 % 1031,1 hPa 0,0 l/m 12,9 km/h (3 Bft) SW 225 0 min 0,9 UV-I 195 W/m 5,8 C 3,5 C 16,1 km/h (3 Bft)
24.05.2020 08:41 7,8 C 8,9 C 87 % 1031,1 hPa 0,0 l/m 9,7 km/h (2 Bft) S-SW 202 0 min 0,7 UV-I 172 W/m 5,8 C 5,4 C 16,1 km/h (3 Bft)
24.05.2020 08:42 7,8 C 8,9 C 87 % 1031,2 hPa 0,0 l/m 14,5 km/h (3 Bft) S-SW 202 0 min 0,7 UV-I 141 W/m 5,8 C 2,7 C 17,7 km/h (3 Bft)
24.05.2020 08:43 7,8 C 8,9 C 87 % 1031,2 hPa 0,0 l/m 11,3 km/h (2 Bft) S-SW 202 0 min 0,6 UV-I 146 W/m 5,8 C 4,4 C 17,7 km/h (3 Bft)
24.05.2020 08:44 7,8 C 8,9 C 87 % 1031,2 hPa 0,0 l/m 8,0 km/h (2 Bft) SW 225 0 min 0,7 UV-I 159 W/m 5,8 C 6,5 C 11,3 km/h (2 Bft)
24.05.2020 08:45 7,9 C 8,9 C 87 % 1031,2 hPa 0,0 l/m 12,9 km/h (3 Bft) SW 225 0 min 0,9 UV-I 202 W/m 5,9 C 3,6 C 16,1 km/h (3 Bft)
24.05.2020 08:46 7,9 C 9,4 C 87 % 1031,1 hPa 0,0 l/m 11,3 km/h (2 Bft) SW 225 0 min 1,1 UV-I 223 W/m 5,9 C 4,5 C 12,9 km/h (3 Bft)
24.05.2020 08:47 7,9 C 9,4 C 87 % 1031,1 hPa 0,0 l/m 12,9 km/h (3 Bft) S-SW 202 0 min 1,2 UV-I 227 W/m 5,9 C 3,6 C 16,1 km/h (3 Bft)
24.05.2020 08:48 8,0 C 9,4 C 86 % 1031,1 hPa 0,0 l/m 11,3 km/h (2 Bft) S-SW 202 0 min 1,2 UV-I 239 W/m 5,8 C 4,6 C 12,9 km/h (3 Bft)
24.05.2020 08:49 8,1 C 9,4 C 87 % 1031,1 hPa 0,0 l/m 11,3 km/h (2 Bft) S-SW 202 0 min 1,2 UV-I 246 W/m 6,1 C 4,7 C 16,1 km/h (3 Bft)
24.05.2020 08:50 8,1 C 10,0 C 87 % 1031,2 hPa 0,0 l/m 9,7 km/h (2 Bft) S-SW 202 0 min 1,3 UV-I 277 W/m 6,1 C 5,7 C 12,9 km/h (3 Bft)
24.05.2020 08:51 8,3 C 10,0 C 87 % 1031,1 hPa 0,0 l/m 9,7 km/h (2 Bft) SW 225 0 min 1,3 UV-I 309 W/m 6,3 C 5,9 C 16,1 km/h (3 Bft)
24.05.2020 08:52 8,3 C 10,6 C 87 % 1031,1 hPa 0,0 l/m 8,0 km/h (2 Bft) SW 225 0 min 1,3 UV-I 267 W/m 6,3 C 7,1 C 14,5 km/h (3 Bft)
24.05.2020 08:53 8,4 C 10,6 C 87 % 1031,1 hPa 0,0 l/m 9,7 km/h (2 Bft) SW 225 0 min 1,3 UV-I 274 W/m 6,4 C 6,0 C 12,9 km/h (3 Bft)
24.05.2020 08:54 8,6 C 10,6 C 86 % 1031,1 hPa 0,0 l/m 9,7 km/h (2 Bft) SW 225 0 min 1,2 UV-I 269 W/m 6,4 C 6,2 C 11,3 km/h (2 Bft)
24.05.2020 08:55 8,6 C 10,6 C 86 % 1031,1 hPa 0,0 l/m 11,3 km/h (2 Bft) SW 225 0 min 1,3 UV-I 269 W/m 6,4 C 5,3 C 14,5 km/h (3 Bft)
24.05.2020 08:56 8,8 C 10,6 C 86 % 1031,1 hPa 0,0 l/m 4,8 km/h (1 Bft) SW 225 0 min 1,0 UV-I 178 W/m 6,6 C 8,8 C 9,7 km/h (2 Bft)
24.05.2020 08:57 8,8 C 11,1 C 86 % 1031,1 hPa 0,0 l/m 8,0 km/h (2 Bft) SW 225 0 min 1,2 UV-I 239 W/m 6,6 C 7,6 C 17,7 km/h (3 Bft)
24.05.2020 08:58 8,8 C 11,1 C 85 % 1031,1 hPa 0,0 l/m 9,7 km/h (2 Bft) SW 225 0 min 1,2 UV-I 264 W/m 6,4 C 6,5 C 12,9 km/h (3 Bft)
24.05.2020 08:59 8,8 C 10,6 C 85 % 1031,2 hPa 0,0 l/m 4,8 km/h (1 Bft) SW 225 0 min 1,5 UV-I 264 W/m 6,4 C 8,8 C 11,3 km/h (2 Bft)
24.05.2020 09:00 8,8 C 10,6 C 84 % 1031,2 hPa 0,0 l/m 6,4 km/h (2 Bft) SW 225 0 min 1,1 UV-I 264 W/m 6,2 C 8,8 C 8,0 km/h (2 Bft)
24.05.2020 09:01 8,8 C 10,6 C 84 % 1031,2 hPa 0,0 l/m 8,0 km/h (2 Bft) S-SW 202 0 min 1,3 UV-I 214 W/m 6,2 C 7,6 C 12,9 km/h (3 Bft)
24.05.2020 09:02 8,9 C 10,6 C 84 % 1031,1 hPa 0,0 l/m 9,7 km/h (2 Bft) S-SW 202 0 min 1,4 UV-I 287 W/m 6,3 C 6,6 C 11,3 km/h (2 Bft)
24.05.2020 09:03 8,8 C 11,1 C 84 % 1031,2 hPa 0,0 l/m 6,4 km/h (2 Bft) S-SW 202 0 min 1,5 UV-I 330 W/m 6,2 C 8,8 C 8,0 km/h (2 Bft)
24.05.2020 09:04 9,0 C 11,1 C 85 % 1031,2 hPa 0,0 l/m 6,4 km/h (2 Bft) SW 225 0 min 1,2 UV-I 236 W/m 6,6 C 9,0 C 12,9 km/h (3 Bft)
24.05.2020 09:05 9,1 C 11,1 C 83 % 1031,2 hPa 0,0 l/m 9,7 km/h (2 Bft) SW 225 0 min 1,0 UV-I 197 W/m 6,4 C 6,8 C 16,1 km/h (3 Bft)
24.05.2020 09:06 9,1 C 11,1 C 84 % 1031,3 hPa 0,0 l/m 17,7 km/h (3 Bft) S-SW 202 0 min 1,0 UV-I 200 W/m 6,5 C 2,9 C 20,9 km/h (4 Bft)
24.05.2020 09:07 9,0 C 10,6 C 84 % 1031,2 hPa 0,0 l/m 12,9 km/h (3 Bft) S-SW 202 0 min 1,1 UV-I 225 W/m 6,4 C 4,9 C 22,5 km/h (4 Bft)
24.05.2020 09:08 9,0 C 10,6 C 84 % 1031,1 hPa 0,0 l/m 11,3 km/h (2 Bft) SW 225 0 min 1,2 UV-I 245 W/m 6,4 C 5,7 C 17,7 km/h (3 Bft)
24.05.2020 09:09 9,0 C 10,6 C 84 % 1031,2 hPa 0,0 l/m 12,9 km/h (3 Bft) S-SW 202 0 min 1,5 UV-I 239 W/m 6,4 C 4,9 C 17,7 km/h (3 Bft)
24.05.2020 09:10 9,0 C 10,6 C 84 % 1031,2 hPa 0,0 l/m 11,3 km/h (2 Bft) S-SW 202 0 min 1,1 UV-I 239 W/m 6,4 C 5,7 C 20,9 km/h (4 Bft)
24.05.2020 09:11 9,0 C 10,6 C 84 % 1031,2 hPa 0,0 l/m 14,5 km/h (3 Bft) S-SW 202 0 min 1,1 UV-I 197 W/m 6,4 C 4,1 C 19,3 km/h (3 Bft)
24.05.2020 09:12 9,0 C 10,6 C 84 % 1031,2 hPa 0,0 l/m 14,5 km/h (3 Bft) S-SW 202 0 min 1,2 UV-I 183 W/m 6,4 C 4,1 C 19,3 km/h (3 Bft)
24.05.2020 09:13 9,0 C 10,6 C 84 % 1031,2 hPa 0,0 l/m 9,7 km/h (2 Bft) SW 225 0 min 1,3 UV-I 199 W/m 6,4 C 6,7 C 14,5 km/h (3 Bft)
24.05.2020 09:14 8,9 C 10,6 C 84 % 1031,3 hPa 0,0 l/m 11,3 km/h (2 Bft) S-SW 202 0 min 1,4 UV-I 222 W/m 6,3 C 5,6 C 14,5 km/h (3 Bft)
24.05.2020 09:15 8,9 C 10,6 C 84 % 1031,2 hPa 0,0 l/m 9,7 km/h (2 Bft) S-SW 202 0 min 2,0 UV-I 229 W/m 6,3 C 6,6 C 12,9 km/h (3 Bft)
24.05.2020 09:16 9,1 C 11,1 C 84 % 1031,3 hPa 0,0 l/m 11,3 km/h (2 Bft) S-SW 202 0 min 1,9 UV-I 587 W/m 6,5 C 5,9 C 14,5 km/h (3 Bft)
24.05.2020 09:17 9,2 C 11,1 C 84 % 1031,3 hPa 0,0 l/m 9,7 km/h (2 Bft) S-SW 202 0 min 2,0 UV-I 587 W/m 6,6 C 6,9 C 11,3 km/h (2 Bft)
24.05.2020 09:18 9,3 C 11,1 C 83 % 1031,2 hPa 0,0 l/m 9,7 km/h (2 Bft) S-SW 202 0 min 1,6 UV-I 330 W/m 6,6 C 7,0 C 12,9 km/h (3 Bft)
24.05.2020 09:19 9,3 C 11,7 C 84 % 1031,2 hPa 0,0 l/m 11,3 km/h (2 Bft) S-SW 202 0 min 2,2 UV-I 330 W/m 6,7 C 6,1 C 16,1 km/h (3 Bft)
24.05.2020 09:20 9,4 C 11,7 C 83 % 1031,1 hPa 0,0 l/m 12,9 km/h (3 Bft) S-SW 202 0 min 1,3 UV-I 237 W/m 6,7 C 5,4 C 19,3 km/h (3 Bft)
24.05.2020 09:21 9,4 C 11,7 C 83 % 1031,1 hPa 0,0 l/m 11,3 km/h (2 Bft) S-SW 202 0 min 1,4 UV-I 232 W/m 6,7 C 6,2 C 14,5 km/h (3 Bft)
24.05.2020 09:22 9,4 C 11,7 C 82 % 1031,1 hPa 0,0 l/m 11,3 km/h (2 Bft) SW 225 0 min 1,5 UV-I 214 W/m 6,5 C 6,2 C 16,1 km/h (3 Bft)
24.05.2020 09:23 9,4 C 11,7 C 83 % 1031,2 hPa 0,0 l/m 9,7 km/h (2 Bft) SW 225 0 min 2,0 UV-I 214 W/m 6,7 C 7,1 C 12,9 km/h (3 Bft)
24.05.2020 09:24 9,6 C 11,7 C 82 % 1031,2 hPa 0,0 l/m 12,9 km/h (3 Bft) S-SW 202 0 min 1,9 UV-I 214 W/m 6,7 C 5,6 C 17,7 km/h (3 Bft)
24.05.2020 09:25 9,7 C 11,7 C 82 % 1031,2 hPa 0,0 l/m 12,9 km/h (3 Bft) W-SW 247 0 min 1,5 UV-I 243 W/m 6,8 C 5,7 C 19,3 km/h (3 Bft)
24.05.2020 09:26 9,8 C 11,7 C 81 % 1031,2 hPa 0,0 l/m 8,0 km/h (2 Bft) SW 225 0 min 1,5 UV-I 243 W/m 6,7 C 8,6 C 9,7 km/h (2 Bft)
24.05.2020 09:27 9,9 C 11,7 C 82 % 1031,3 hPa 0,0 l/m 12,9 km/h (3 Bft) S-SW 202 0 min 1,6 UV-I 243 W/m 7,0 C 6,0 C 17,7 km/h (3 Bft)
24.05.2020 09:28 9,9 C 11,7 C 81 % 1031,3 hPa 0,0 l/m 16,1 km/h (3 Bft) W-SW 247 0 min 1,7 UV-I 264 W/m 6,8 C 4,6 C 24,1 km/h (4 Bft)
24.05.2020 09:29 9,8 C 11,7 C 79 % 1031,2 hPa 0,0 l/m 16,1 km/h (3 Bft) SW 225 0 min 2,7 UV-I 357 W/m 6,3 C 4,4 C 25,7 km/h (4 Bft)
24.05.2020 09:30 9,9 C 11,7 C 79 % 1031,2 hPa 0,0 l/m 20,9 km/h (4 Bft) SW 225 0 min 2,7 UV-I 357 W/m 6,4 C 2,9 C 30,6 km/h (5 Bft)
24.05.2020 09:31 10,0 C 12,2 C 78 % 1031,2 hPa 0,0 l/m 16,1 km/h (3 Bft) SW 225 0 min 1,5 UV-I 343 W/m 6,3 C 4,7 C 30,6 km/h (5 Bft)
24.05.2020 09:32 10,1 C 12,2 C 78 % 1031,2 hPa 0,0 l/m 12,9 km/h (3 Bft) SW 225 0 min 1,6 UV-I 343 W/m 6,4 C 6,2 C 20,9 km/h (4 Bft)
24.05.2020 09:33 10,1 C 12,2 C 78 % 1031,1 hPa 0,0 l/m 19,3 km/h (3 Bft) S-SW 202 0 min 1,3 UV-I 162 W/m 6,4 C 3,6 C 25,7 km/h (4 Bft)
24.05.2020 09:34 10,0 C 11,7 C 78 % 1031,2 hPa 0,0 l/m 17,7 km/h (3 Bft) S-SW 202 0 min 1,5 UV-I 199 W/m 6,3 C 4,1 C 24,1 km/h (4 Bft)
24.05.2020 09:35 9,9 C 11,1 C 78 % 1031,1 hPa 0,0 l/m 17,7 km/h (3 Bft) S-SW 202 0 min 1,8 UV-I 257 W/m 6,2 C 4,0 C 22,5 km/h (4 Bft)
24.05.2020 09:36 9,8 C 11,1 C 78 % 1031,2 hPa 0,0 l/m 14,5 km/h (3 Bft) SW 225 0 min 1,9 UV-I 257 W/m 6,1 C 5,1 C 22,5 km/h (4 Bft)
24.05.2020 09:37 9,9 C 11,7 C 79 % 1031,2 hPa 0,0 l/m 14,5 km/h (3 Bft) SW 225 0 min 3,1 UV-I 257 W/m 6,4 C 5,2 C 20,9 km/h (4 Bft)
24.05.2020 09:38 10,1 C 12,2 C 79 % 1031,2 hPa 0,0 l/m 16,1 km/h (3 Bft) S-SW 202 0 min 2,0 UV-I 257 W/m 6,6 C 4,8 C 22,5 km/h (4 Bft)
24.05.2020 09:39 10,2 C 12,2 C 79 % 1031,1 hPa 0,0 l/m 12,9 km/h (3 Bft) S-SW 202 0 min 2,6 UV-I 352 W/m 6,7 C 6,3 C 24,1 km/h (4 Bft)
24.05.2020 09:40 10,2 C 12,2 C 79 % 1031,1 hPa 0,0 l/m 14,5 km/h (3 Bft) SW 225 0 min 2,1 UV-I 352 W/m 6,7 C 5,6 C 19,3 km/h (3 Bft)
24.05.2020 09:41 10,3 C 12,2 C 78 % 1031,2 hPa 0,0 l/m 11,3 km/h (2 Bft) SW 225 0 min 1,9 UV-I 352 W/m 6,6 C 7,2 C 17,7 km/h (3 Bft)
24.05.2020 09:42 10,3 C 11,7 C 78 % 1031,2 hPa 0,0 l/m 12,9 km/h (3 Bft) SW 225 0 min 1,6 UV-I 188 W/m 6,6 C 6,4 C 20,9 km/h (4 Bft)
24.05.2020 09:43 10,2 C 11,7 C 78 % 1031,2 hPa 0,0 l/m 12,9 km/h (3 Bft) W-SW 247 0 min 1,8 UV-I 192 W/m 6,5 C 6,3 C 20,9 km/h (4 Bft)
24.05.2020 09:44 10,3 C 12,2 C 78 % 1031,2 hPa 0,0 l/m 16,1 km/h (3 Bft) SW 225 0 min 3,1 UV-I 573 W/m 6,6 C 5,1 C 30,6 km/h (5 Bft)
24.05.2020 09:45 10,4 C 12,2 C 77 % 1031,2 hPa 0,0 l/m 12,9 km/h (3 Bft) SW 225 0 min 3,0 UV-I 573 W/m 6,5 C 6,5 C 17,7 km/h (3 Bft)
24.05.2020 09:46 10,4 C 12,8 C 77 % 1031,1 hPa 0,0 l/m 14,5 km/h (3 Bft) SW 225 0 min 3,0 UV-I 548 W/m 6,5 C 5,8 C 24,1 km/h (4 Bft)
24.05.2020 09:47 10,6 C 12,8 C 78 % 1031,2 hPa 0,0 l/m 14,5 km/h (3 Bft) W-SW 247 0 min 3,1 UV-I 557 W/m 6,9 C 6,1 C 24,1 km/h (4 Bft)
24.05.2020 09:48 10,8 C 12,8 C 76 % 1031,1 hPa 0,0 l/m 16,1 km/h (3 Bft) W 270 0 min 3,1 UV-I 585 W/m 6,7 C 5,7 C 22,5 km/h (4 Bft)
24.05.2020 09:49 10,8 C 12,8 C 77 % 1031,1 hPa 0,0 l/m 12,9 km/h (3 Bft) W-SW 247 1 min 3,2 UV-I 623 W/m 6,9 C 7,0 C 19,3 km/h (3 Bft)
24.05.2020 09:50 11,1 C 13,3 C 77 % 1031,1 hPa 0,0 l/m 12,9 km/h (3 Bft) W-SW 247 1 min 3,3 UV-I 682 W/m 7,2 C 7,4 C 22,5 km/h (4 Bft)
24.05.2020 09:51 11,3 C 13,9 C 78 % 1031,2 hPa 0,0 l/m 14,5 km/h (3 Bft) SW 225 1 min 2,6 UV-I 682 W/m 7,6 C 6,9 C 19,3 km/h (3 Bft)
24.05.2020 09:52 11,3 C 13,9 C 75 % 1031,2 hPa 0,0 l/m 16,1 km/h (3 Bft) SW 225 0 min 2,3 UV-I 508 W/m 7,0 C 6,3 C 24,1 km/h (4 Bft)
24.05.2020 09:53 11,2 C 13,9 C 75 % 1031,1 hPa 0,0 l/m 14,5 km/h (3 Bft) W-SW 247 0 min 1,7 UV-I 508 W/m 6,9 C 6,8 C 20,9 km/h (4 Bft)
24.05.2020 09:54 11,2 C 13,3 C 75 % 1031,2 hPa 0,0 l/m 20,9 km/h (4 Bft) W-SW 247 0 min 1,6 UV-I 213 W/m 6,9 C 4,6 C 33,8 km/h (5 Bft)
24.05.2020 09:55 11,0 C 12,8 C 74 % 1031,0 hPa 0,0 l/m 19,3 km/h (3 Bft) W 270 0 min 1,7 UV-I 219 W/m 6,5 C 4,8 C 27,4 km/h (4 Bft)
24.05.2020 09:56 10,8 C 12,2 C 74 % 1031,0 hPa 0,0 l/m 17,7 km/h (3 Bft) W-SW 247 0 min 2,0 UV-I 232 W/m 6,4 C 5,1 C 33,8 km/h (5 Bft)
24.05.2020 09:57 10,7 C 12,2 C 74 % 1031,1 hPa 0,0 l/m 14,5 km/h (3 Bft) SW 225 0 min 2,6 UV-I 232 W/m 6,3 C 6,2 C 20,9 km/h (4 Bft)
24.05.2020 09:58 10,6 C 12,2 C 74 % 1031,1 hPa 0,0 l/m 20,9 km/h (4 Bft) W-SW 247 0 min 2,1 UV-I 232 W/m 6,2 C 3,8 C 27,4 km/h (4 Bft)
24.05.2020 09:59 10,7 C 12,2 C 74 % 1031,1 hPa 0,0 l/m 16,1 km/h (3 Bft) S-SW 202 0 min 3,1 UV-I 232 W/m 6,3 C 5,5 C 20,9 km/h (4 Bft)
24.05.2020 10:02 11,1 C 13,3 C 75 % 1031,2 hPa 0,0 l/m 12,7 km/h (3 Bft) SW 216 3 min 2,5 UV-I 687 W/m 6,8 C 7,5 C 16,1 km/h (3 Bft)
24.05.2020 10:04 11,1 C 13,3 C 76 % 1031,2 hPa 0,0 l/m 15,8 km/h (3 Bft) W 259 0 min 2,1 UV-I 422 W/m 7,0 C 6,2 C 25,7 km/h (4 Bft)
24.05.2020 10:06 11,1 C 12,8 C 74 % 1031,3 hPa 0,0 l/m 16,5 km/h (3 Bft) SW 224 0 min 1,8 UV-I 267 W/m 6,6 C 5,9 C 25,7 km/h (4 Bft)
24.05.2020 10:08 10,9 C 13,3 C 74 % 1031,3 hPa 0,0 l/m 11,5 km/h (2 Bft) W-SW 256 0 min 2,9 UV-I 304 W/m 6,5 C 7,8 C 20,9 km/h (4 Bft)
24.05.2020 10:10 11,1 C 13,3 C 74 % 1031,3 hPa 0,0 l/m 16,9 km/h (3 Bft) W 269 2 min 2,6 UV-I 663 W/m 6,6 C 5,7 C 24,1 km/h (4 Bft)
24.05.2020 10:12 11,1 C 13,3 C 74 % 1031,3 hPa 0,0 l/m 16,9 km/h (3 Bft) W 279 0 min 1,9 UV-I 490 W/m 6,6 C 5,7 C 25,7 km/h (4 Bft)
24.05.2020 10:14 10,8 C 12,8 C 74 % 1031,4 hPa 0,0 l/m 14,0 km/h (3 Bft) SW 219 0 min 1,7 UV-I 258 W/m 6,4 C 6,5 C 24,1 km/h (4 Bft)
24.05.2020 10:16 10,7 C 12,8 C 75 % 1031,4 hPa 0,0 l/m 12,9 km/h (3 Bft) SW 221 0 min 1,9 UV-I 289 W/m 6,5 C 6,9 C 19,3 km/h (3 Bft)
24.05.2020 10:18 10,8 C 12,8 C 76 % 1031,4 hPa 0,0 l/m 9,4 km/h (2 Bft) S 186 0 min 2,0 UV-I 304 W/m 6,7 C 8,8 C 17,7 km/h (3 Bft)
24.05.2020 10:20 10,8 C 12,8 C 76 % 1031,4 hPa 0,0 l/m 11,4 km/h (2 Bft) W-NW 284 0 min 2,1 UV-I 307 W/m 6,7 C 7,7 C 19,3 km/h (3 Bft)
24.05.2020 10:22 10,9 C 12,8 C 76 % 1031,5 hPa 0,0 l/m 12,9 km/h (3 Bft) W 274 0 min 1,6 UV-I 270 W/m 6,8 C 7,1 C 19,3 km/h (3 Bft)
24.05.2020 10:24 10,9 C 12,8 C 76 % 1031,5 hPa 0,0 l/m 12,7 km/h (3 Bft) SW 217 0 min 1,7 UV-I 256 W/m 6,8 C 7,2 C 25,7 km/h (4 Bft)
24.05.2020 10:26 10,8 C 12,8 C 76 % 1031,4 hPa 0,0 l/m 11,6 km/h (2 Bft) SW 217 0 min 1,9 UV-I 251 W/m 6,7 C 7,6 C 19,3 km/h (3 Bft)
24.05.2020 10:28 10,8 C 12,8 C 76 % 1031,5 hPa 0,0 l/m 10,1 km/h (2 Bft) SW 215 0 min 2,2 UV-I 302 W/m 6,7 C 8,4 C 19,3 km/h (3 Bft)
24.05.2020 10:30 10,6 C 12,8 C 75 % 1031,4 hPa 0,0 l/m 12,5 km/h (3 Bft) SW 229 0 min 2,1 UV-I 318 W/m 6,4 C 7,0 C 20,9 km/h (4 Bft)
24.05.2020 10:32 10,6 C 12,2 C 76 % 1031,4 hPa 0,0 l/m 12,5 km/h (3 Bft) S-SW 195 0 min 1,9 UV-I 280 W/m 6,5 C 7,0 C 17,7 km/h (3 Bft)
24.05.2020 10:34 10,7 C 12,2 C 77 % 1031,5 hPa 0,0 l/m 9,4 km/h (2 Bft) W-SW 254 0 min 2,0 UV-I 283 W/m 6,8 C 8,7 C 14,5 km/h (3 Bft)
24.05.2020 10:36 10,7 C 12,2 C 75 % 1031,4 hPa 0,0 l/m 13,9 km/h (3 Bft) W-SW 248 0 min 2,1 UV-I 275 W/m 6,5 C 6,4 C 24,1 km/h (4 Bft)
24.05.2020 10:38 10,8 C 12,8 C 75 % 1031,4 hPa 0,0 l/m 14,9 km/h (3 Bft) SW 222 0 min 2,6 UV-I 385 W/m 6,5 C 6,1 C 24,1 km/h (4 Bft)
24.05.2020 10:40 11,1 C 13,3 C 74 % 1031,4 hPa 0,0 l/m 10,2 km/h (2 Bft) W-SW 241 0 min 3,4 UV-I 406 W/m 6,6 C 8,7 C 17,7 km/h (3 Bft)
24.05.2020 10:42 11,2 C 13,3 C 73 % 1031,5 hPa 0,0 l/m 14,3 km/h (3 Bft) W-SW 257 0 min 3,2 UV-I 406 W/m 6,5 C 6,9 C 24,1 km/h (4 Bft)
24.05.2020 10:44 11,6 C 15,0 C 72 % 1031,3 hPa 0,0 l/m 14,9 km/h (3 Bft) W 260 0 min 4,3 UV-I 565 W/m 6,7 C 7,1 C 25,7 km/h (4 Bft)
24.05.2020 10:46 11,7 C 14,4 C 71 % 1031,3 hPa 0,0 l/m 16,5 km/h (3 Bft) W 264 2 min 2,8 UV-I 766 W/m 6,6 C 6,6 C 24,1 km/h (4 Bft)
24.05.2020 10:48 11,7 C 14,4 C 73 % 1031,5 hPa 0,0 l/m 13,9 km/h (3 Bft) SW 217 2 min 3,8 UV-I 692 W/m 7,0 C 7,6 C 20,9 km/h (4 Bft)
24.05.2020 10:50 11,6 C 13,9 C 72 % 1031,4 hPa 0,0 l/m 19,0 km/h (3 Bft) SW 235 2 min 2,9 UV-I 912 W/m 6,7 C 5,7 C 27,4 km/h (4 Bft)
24.05.2020 10:52 11,4 C 13,9 C 71 % 1031,4 hPa 0,0 l/m 17,0 km/h (3 Bft) SW 220 2 min 2,8 UV-I 880 W/m 6,3 C 6,1 C 27,4 km/h (4 Bft)
24.05.2020 10:54 11,2 C 12,8 C 70 % 1031,5 hPa 0,0 l/m 17,2 km/h (3 Bft) SW 223 0 min 3,3 UV-I 246 W/m 5,9 C 5,8 C 27,4 km/h (4 Bft)
24.05.2020 10:56 11,3 C 13,3 C 71 % 1031,4 hPa 0,0 l/m 18,7 km/h (3 Bft) W 259 2 min 3,9 UV-I 661 W/m 6,2 C 5,4 C 27,4 km/h (4 Bft)
24.05.2020 10:58 11,3 C 13,3 C 72 % 1031,2 hPa 0,0 l/m 13,5 km/h (3 Bft) S 181 0 min 3,9 UV-I 348 W/m 6,4 C 7,3 C 24,1 km/h (4 Bft)
24.05.2020 11:00 11,8 C 14,4 C 73 % 1031,2 hPa 0,0 l/m 6,0 km/h (2 Bft) SW 231 2 min 4,7 UV-I 880 W/m 7,1 C 11,8 C 11,3 km/h (2 Bft)
24.05.2020 11:02 12,0 C 14,4 C 70 % 1031,2 hPa 0,0 l/m 19,0 km/h (3 Bft) SW 217 0 min 3,0 UV-I 398 W/m 6,7 C 6,2 C 30,6 km/h (5 Bft)
24.05.2020 11:04 11,8 C 13,9 C 72 % 1031,2 hPa 0,0 l/m 12,8 km/h (3 Bft) W-SW 248 0 min 3,6 UV-I 286 W/m 6,9 C 8,2 C 20,9 km/h (4 Bft)
24.05.2020 11:06 12,1 C 15,0 C 72 % 1031,4 hPa 0,0 l/m 14,6 km/h (3 Bft) SW 215 2 min 4,4 UV-I 950 W/m 7,2 C 7,8 C 24,1 km/h (4 Bft)
24.05.2020 11:08 12,4 C 15,6 C 70 % 1031,3 hPa 0,0 l/m 16,0 km/h (3 Bft) SW 232 2 min 4,1 UV-I 950 W/m 7,1 C 7,7 C 25,7 km/h (4 Bft)
24.05.2020 11:10 12,2 C 13,9 C 69 % 1031,3 hPa 0,0 l/m 20,5 km/h (4 Bft) SW 229 2 min 2,9 UV-I 665 W/m 6,7 C 6,0 C 29,0 km/h (5 Bft)
24.05.2020 11:12 12,1 C 15,0 C 70 % 1031,3 hPa 0,0 l/m 16,8 km/h (3 Bft) S-SW 203 2 min 4,7 UV-I 690 W/m 6,8 C 7,0 C 25,7 km/h (4 Bft)
24.05.2020 11:14 12,2 C 15,0 C 71 % 1031,2 hPa 0,0 l/m 12,8 km/h (3 Bft) S-SW 194 0 min 4,5 UV-I 508 W/m 7,1 C 8,7 C 24,1 km/h (4 Bft)
24.05.2020 11:16 12,4 C 15,6 C 68 % 1031,2 hPa 0,0 l/m 19,2 km/h (3 Bft) W-SW 244 2 min 5,2 UV-I 784 W/m 6,7 C 6,6 C 29,0 km/h (5 Bft)
24.05.2020 11:18 12,4 C 15,6 C 68 % 1031,2 hPa 0,0 l/m 14,2 km/h (3 Bft) S 182 2 min 4,4 UV-I 846 W/m 6,7 C 8,4 C 27,4 km/h (4 Bft)
24.05.2020 11:20 12,6 C 16,7 C 68 % 1031,3 hPa 0,0 l/m 12,8 km/h (3 Bft) SW 215 2 min 4,5 UV-I 952 W/m 6,9 C 9,2 C 19,3 km/h (3 Bft)
24.05.2020 11:22 12,3 C 15,6 C 66 % 1031,2 hPa 0,0 l/m 12,2 km/h (2 Bft) W-SW 240 0 min 3,3 UV-I 392 W/m 6,1 C 9,1 C 20,9 km/h (4 Bft)
24.05.2020 11:24 12,3 C 15,0 C 68 % 1031,2 hPa 0,0 l/m 10,8 km/h (2 Bft) SW 226 0 min 3,1 UV-I 321 W/m 6,6 C 9,7 C 19,3 km/h (3 Bft)
24.05.2020 11:26 12,3 C 14,4 C 69 % 1031,2 hPa 0,0 l/m 13,4 km/h (3 Bft) W-SW 248 0 min 3,4 UV-I 290 W/m 6,8 C 8,6 C 24,1 km/h (4 Bft)
24.05.2020 11:28 12,4 C 16,7 C 69 % 1031,2 hPa 0,0 l/m 16,3 km/h (3 Bft) S-SW 198 0 min 5,4 UV-I 563 W/m 6,9 C 7,6 C 22,5 km/h (4 Bft)
24.05.2020 11:30 12,6 C 17,2 C 68 % 1031,2 hPa 0,0 l/m 12,9 km/h (3 Bft) SW 219 2 min 5,5 UV-I 896 W/m 6,9 C 9,1 C 17,7 km/h (3 Bft)
24.05.2020 11:32 12,9 C 17,2 C 69 % 1031,3 hPa 0,0 l/m 14,5 km/h (3 Bft) SW 216 2 min 4,9 UV-I 885 W/m 7,4 C 8,8 C 22,5 km/h (4 Bft)
24.05.2020 11:34 12,9 C 16,7 C 68 % 1031,3 hPa 0,0 l/m 16,8 km/h (3 Bft) S-SW 210 0 min 3,9 UV-I 420 W/m 7,1 C 8,0 C 27,4 km/h (4 Bft)
24.05.2020 11:36 12,9 C 17,2 C 67 % 1031,3 hPa 0,0 l/m 18,3 km/h (3 Bft) SW 224 2 min 5,6 UV-I 767 W/m 6,9 C 7,5 C 29,0 km/h (5 Bft)
24.05.2020 11:38 12,8 C 16,1 C 65 % 1031,3 hPa 0,0 l/m 16,2 km/h (3 Bft) W-SW 248 2 min 3,8 UV-I 749 W/m 6,4 C 8,1 C 24,1 km/h (4 Bft)
24.05.2020 11:40 12,6 C 15,6 C 67 % 1031,2 hPa 0,0 l/m 10,1 km/h (2 Bft) W-SW 241 0 min 4,2 UV-I 280 W/m 6,6 C 10,4 C 16,1 km/h (3 Bft)
24.05.2020 11:42 12,6 C 16,1 C 69 % 1031,2 hPa 0,0 l/m 15,1 km/h (3 Bft) W 266 0 min 4,4 UV-I 395 W/m 7,1 C 8,2 C 22,5 km/h (4 Bft)
24.05.2020 11:44 13,1 C 17,8 C 68 % 1031,2 hPa 0,0 l/m 16,2 km/h (3 Bft) W-NW 294 2 min 5,7 UV-I 910 W/m 7,3 C 8,5 C 27,4 km/h (4 Bft)
24.05.2020 11:46 13,4 C 17,8 C 69 % 1031,3 hPa 0,0 l/m 15,2 km/h (3 Bft) W 271 2 min 4,6 UV-I 875 W/m 7,8 C 9,2 C 20,9 km/h (4 Bft)
24.05.2020 11:48 13,3 C 16,7 C 65 % 1031,3 hPa 0,0 l/m 17,0 km/h (3 Bft) W 259 0 min 5,1 UV-I 288 W/m 6,9 C 8,5 C 27,4 km/h (4 Bft)
24.05.2020 11:50 13,4 C 17,8 C 64 % 1031,3 hPa 0,0 l/m 17,6 km/h (3 Bft) W-SW 246 2 min 5,7 UV-I 826 W/m 6,7 C 8,4 C 27,4 km/h (4 Bft)
24.05.2020 11:52 13,4 C 16,7 C 65 % 1031,3 hPa 0,0 l/m 18,3 km/h (3 Bft) W-SW 241 2 min 4,2 UV-I 712 W/m 7,0 C 8,2 C 33,8 km/h (5 Bft)
24.05.2020 11:54 13,2 C 16,7 C 64 % 1031,3 hPa 0,0 l/m 16,6 km/h (3 Bft) SW 236 0 min 3,6 UV-I 438 W/m 6,5 C 8,5 C 24,1 km/h (4 Bft)
24.05.2020 11:56 13,3 C 16,7 C 65 % 1031,2 hPa 0,0 l/m 13,8 km/h (3 Bft) W-NW 285 2 min 4,0 UV-I 606 W/m 6,9 C 9,6 C 24,1 km/h (4 Bft)
24.05.2020 11:58 13,5 C 16,7 C 66 % 1031,4 hPa 0,0 l/m 13,7 km/h (3 Bft) W-SW 258 0 min 4,6 UV-I 585 W/m 7,3 C 9,9 C 24,1 km/h (4 Bft)
24.05.2020 12:00 13,7 C 17,8 C 66 % 1031,3 hPa 0,0 l/m 13,2 km/h (3 Bft) S 186 0 min 5,1 UV-I 514 W/m 7,5 C 10,3 C 20,9 km/h (4 Bft)
24.05.2020 12:02 13,9 C 18,3 C 64 % 1031,3 hPa 0,0 l/m 16,3 km/h (3 Bft) S-SW 209 2 min 5,7 UV-I 1046 W/m 7,2 C 9,4 C 24,1 km/h (4 Bft)
24.05.2020 12:04 13,8 C 18,9 C 65 % 1031,3 hPa 0,0 l/m 15,9 km/h (3 Bft) SW 219 2 min 6,1 UV-I 1049 W/m 7,3 C 9,4 C 24,1 km/h (4 Bft)
24.05.2020 12:06 13,9 C 17,8 C 64 % 1031,3 hPa 0,0 l/m 17,9 km/h (3 Bft) W 263 2 min 4,6 UV-I 894 W/m 7,2 C 8,9 C 25,7 km/h (4 Bft)
24.05.2020 12:08 13,7 C 17,8 C 64 % 1031,3 hPa 0,0 l/m 13,4 km/h (3 Bft) W 267 0 min 4,9 UV-I 408 W/m 7,0 C 10,2 C 19,3 km/h (3 Bft)
24.05.2020 12:10 14,1 C 18,9 C 68 % 1031,2 hPa 0,0 l/m 9,2 km/h (2 Bft) W-SW 242 2 min 6,6 UV-I 1008 W/m 8,3 C 12,5 C 14,5 km/h (3 Bft)
24.05.2020 12:12 14,1 C 17,8 C 63 % 1031,2 hPa 0,0 l/m 17,9 km/h (3 Bft) W 261 2 min 4,4 UV-I 1023 W/m 7,2 C 9,2 C 32,2 km/h (5 Bft)
24.05.2020 12:14 13,8 C 16,1 C 63 % 1031,3 hPa 0,0 l/m 15,2 km/h (3 Bft) W-SW 241 0 min 3,1 UV-I 456 W/m 6,9 C 9,7 C 27,4 km/h (4 Bft)
24.05.2020 12:16 13,6 C 15,6 C 65 % 1031,3 hPa 0,0 l/m 13,7 km/h (3 Bft) W-SW 239 0 min 2,9 UV-I 295 W/m 7,1 C 10,0 C 27,4 km/h (4 Bft)
24.05.2020 12:18 13,5 C 15,6 C 64 % 1031,4 hPa 0,0 l/m 13,0 km/h (3 Bft) SW 214 0 min 3,9 UV-I 323 W/m 6,8 C 10,1 C 22,5 km/h (4 Bft)
24.05.2020 12:20 13,6 C 16,7 C 65 % 1031,5 hPa 0,0 l/m 13,4 km/h (3 Bft) W-SW 242 0 min 4,0 UV-I 373 W/m 7,1 C 10,1 C 24,1 km/h (4 Bft)
24.05.2020 12:22 13,6 C 16,1 C 65 % 1031,5 hPa 0,0 l/m 13,7 km/h (3 Bft) SW 235 0 min 3,2 UV-I 372 W/m 7,1 C 10,0 C 20,9 km/h (4 Bft)
24.05.2020 12:24 13,5 C 16,1 C 65 % 1031,5 hPa 0,0 l/m 13,7 km/h (3 Bft) W 269 0 min 3,2 UV-I 380 W/m 7,1 C 9,9 C 24,1 km/h (4 Bft)
24.05.2020 12:26 13,4 C 16,1 C 66 % 1031,4 hPa 0,0 l/m 17,4 km/h (3 Bft) W 273 0 min 3,4 UV-I 387 W/m 7,2 C 8,4 C 27,4 km/h (4 Bft)
24.05.2020 12:28 13,5 C 16,1 C 65 % 1031,4 hPa 0,0 l/m 19,1 km/h (3 Bft) SW 222 0 min 4,7 UV-I 412 W/m 7,1 C 8,1 C 35,4 km/h (5 Bft)
24.05.2020 12:30 14,1 C 18,3 C 67 % 1031,4 hPa 0,0 l/m 13,0 km/h (3 Bft) W-SW 242 0 min 5,9 UV-I 431 W/m 8,1 C 10,8 C 25,7 km/h (4 Bft)
24.05.2020 12:32 14,4 C 18,3 C 63 % 1031,3 hPa 0,0 l/m 12,5 km/h (3 Bft) W-SW 254 2 min 4,0 UV-I 921 W/m 7,4 C 11,4 C 22,5 km/h (4 Bft)
24.05.2020 12:34 14,3 C 17,2 C 64 % 1031,4 hPa 0,0 l/m 11,1 km/h (2 Bft) W-SW 248 2 min 4,6 UV-I 1007 W/m 7,6 C 11,8 C 25,7 km/h (4 Bft)
24.05.2020 12:36 13,9 C 16,7 C 64 % 1031,4 hPa 0,0 l/m 13,4 km/h (3 Bft) S-SW 197 0 min 3,2 UV-I 551 W/m 7,2 C 10,4 C 24,1 km/h (4 Bft)
24.05.2020 12:38 13,7 C 16,1 C 64 % 1031,3 hPa 0,0 l/m 15,1 km/h (3 Bft) SW 229 0 min 2,9 UV-I 372 W/m 7,0 C 9,6 C 20,9 km/h (4 Bft)
24.05.2020 12:40 13,3 C 15,6 C 65 % 1031,5 hPa 0,0 l/m 17,1 km/h (3 Bft) SW 220 0 min 2,5 UV-I 311 W/m 6,9 C 8,4 C 25,7 km/h (4 Bft)
24.05.2020 12:42 13,2 C 15,6 C 67 % 1031,3 hPa 0,0 l/m 13,0 km/h (3 Bft) W-SW 251 0 min 2,6 UV-I 301 W/m 7,2 C 9,8 C 22,5 km/h (4 Bft)
24.05.2020 12:44 13,2 C 15,0 C 66 % 1031,3 hPa 0,0 l/m 16,3 km/h (3 Bft) SW 221 0 min 2,8 UV-I 324 W/m 7,0 C 8,6 C 22,5 km/h (4 Bft)
24.05.2020 12:46 12,9 C 14,4 C 65 % 1031,4 hPa 0,0 l/m 14,5 km/h (3 Bft) W 265 0 min 2,6 UV-I 269 W/m 6,5 C 8,8 C 22,5 km/h (4 Bft)
24.05.2020 12:48 12,9 C 14,4 C 67 % 1031,3 hPa 0,0 l/m 11,7 km/h (2 Bft) W 260 0 min 2,6 UV-I 254 W/m 6,9 C 10,0 C 17,7 km/h (3 Bft)
24.05.2020 12:50 12,9 C 14,4 C 66 % 1031,3 hPa 0,0 l/m 14,7 km/h (3 Bft) SW 232 0 min 2,5 UV-I 254 W/m 6,7 C 8,8 C 24,1 km/h (4 Bft)
24.05.2020 12:52 12,9 C 14,4 C 67 % 1031,3 hPa 0,0 l/m 9,0 km/h (2 Bft) W-SW 250 0 min 2,7 UV-I 274 W/m 6,9 C 11,3 C 14,5 km/h (3 Bft)
24.05.2020 12:54 12,8 C 14,4 C 68 % 1031,2 hPa 0,0 l/m 15,5 km/h (3 Bft) SW 230 0 min 2,8 UV-I 289 W/m 7,0 C 8,3 C 24,1 km/h (4 Bft)
24.05.2020 12:56 12,8 C 15,0 C 68 % 1031,3 hPa 0,0 l/m 14,2 km/h (3 Bft) SW 214 0 min 3,1 UV-I 314 W/m 7,0 C 8,8 C 20,9 km/h (4 Bft)
24.05.2020 12:58 13,0 C 15,6 C 68 % 1031,1 hPa 0,0 l/m 17,5 km/h (3 Bft) W 273 0 min 4,9 UV-I 336 W/m 7,2 C 7,9 C 27,4 km/h (4 Bft)
24.05.2020 13:00 13,3 C 16,7 C 67 % 1031,2 hPa 0,0 l/m 21,8 km/h (4 Bft) W-SW 254 0 min 5,7 UV-I 336 W/m 7,3 C 7,1 C 29,0 km/h (5 Bft)
24.05.2020 13:02 13,7 C 17,8 C 68 % 1031,2 hPa 0,0 l/m 13,5 km/h (3 Bft) W 273 2 min 6,3 UV-I 922 W/m 7,9 C 10,2 C 25,7 km/h (4 Bft)
24.05.2020 13:04 13,9 C 17,8 C 67 % 1031,3 hPa 0,0 l/m 12,9 km/h (3 Bft) SW 228 0 min 5,5 UV-I 427 W/m 7,9 C 10,6 C 20,9 km/h (4 Bft)
24.05.2020 13:06 14,1 C 18,9 C 65 % 1031,1 hPa 0,0 l/m 15,8 km/h (3 Bft) SW 234 2 min 6,6 UV-I 986 W/m 7,6 C 9,8 C 22,5 km/h (4 Bft)
24.05.2020 13:08 14,1 C 17,2 C 63 % 1030,8 hPa 0,0 l/m 18,7 km/h (3 Bft) W 263 2 min 3,9 UV-I 772 W/m 7,2 C 8,9 C 35,4 km/h (5 Bft)
24.05.2020 13:10 13,9 C 16,7 C 64 % 1031,2 hPa 0,0 l/m 13,9 km/h (3 Bft) W-SW 241 0 min 4,0 UV-I 474 W/m 7,2 C 10,3 C 22,5 km/h (4 Bft)
24.05.2020 13:12 13,8 C 16,7 C 63 % 1031,2 hPa 0,0 l/m 15,4 km/h (3 Bft) W-SW 258 0 min 3,8 UV-I 470 W/m 6,9 C 9,6 C 22,5 km/h (4 Bft)
24.05.2020 13:14 13,9 C 16,7 C 66 % 1031,2 hPa 0,0 l/m 12,5 km/h (3 Bft) W-SW 244 0 min 3,0 UV-I 476 W/m 7,7 C 10,8 C 20,9 km/h (4 Bft)
24.05.2020 13:16 13,9 C 16,1 C 66 % 1031,2 hPa 0,0 l/m 15,0 km/h (3 Bft) S-SW 194 0 min 2,5 UV-I 309 W/m 7,7 C 9,9 C 25,7 km/h (4 Bft)
24.05.2020 13:18 13,6 C 15,6 C 66 % 1031,4 hPa 0,0 l/m 18,2 km/h (3 Bft) SW 219 0 min 2,6 UV-I 326 W/m 7,4 C 8,5 C 32,2 km/h (5 Bft)
24.05.2020 13:20 13,5 C 15,6 C 67 % 1031,3 hPa 0,0 l/m 13,8 km/h (3 Bft) W-SW 240 0 min 4,0 UV-I 349 W/m 7,5 C 9,8 C 25,7 km/h (4 Bft)
24.05.2020 13:22 13,6 C 16,1 C 68 % 1031,4 hPa 0,0 l/m 17,6 km/h (3 Bft) W-SW 239 0 min 2,8 UV-I 371 W/m 7,8 C 8,6 C 32,2 km/h (5 Bft)
24.05.2020 13:24 13,6 C 15,6 C 67 % 1031,3 hPa 0,0 l/m 18,1 km/h (3 Bft) SW 223 0 min 2,8 UV-I 397 W/m 7,6 C 8,5 C 32,2 km/h (5 Bft)
24.05.2020 13:26 13,3 C 15,0 C 66 % 1031,4 hPa 0,0 l/m 18,8 km/h (3 Bft) SW 231 0 min 2,5 UV-I 301 W/m 7,1 C 7,9 C 29,0 km/h (5 Bft)
24.05.2020 13:28 13,2 C 14,4 C 67 % 1031,4 hPa 0,0 l/m 13,9 km/h (3 Bft) W 276 0 min 2,0 UV-I 249 W/m 7,2 C 9,4 C 24,1 km/h (4 Bft)
24.05.2020 13:30 13,2 C 14,4 C 69 % 1031,5 hPa 0,0 l/m 15,5 km/h (3 Bft) W 279 0 min 2,0 UV-I 249 W/m 7,6 C 8,8 C 29,0 km/h (5 Bft)
24.05.2020 13:32 13,2 C 14,4 C 68 % 1031,4 hPa 0,0 l/m 15,0 km/h (3 Bft) W-SW 246 0 min 2,2 UV-I 276 W/m 7,4 C 9,0 C 20,9 km/h (4 Bft)
24.05.2020 13:34 13,2 C 15,0 C 68 % 1031,5 hPa 0,0 l/m 16,4 km/h (3 Bft) W 263 0 min 2,9 UV-I 353 W/m 7,4 C 8,5 C 24,1 km/h (4 Bft)
24.05.2020 13:36 13,4 C 15,6 C 69 % 1031,5 hPa 0,0 l/m 11,4 km/h (2 Bft) W 277 0 min 3,1 UV-I 384 W/m 7,8 C 10,7 C 19,3 km/h (3 Bft)
24.05.2020 13:38 13,5 C 15,6 C 68 % 1031,4 hPa 0,0 l/m 16,1 km/h (3 Bft) W-SW 240 0 min 3,5 UV-I 423 W/m 7,7 C 9,0 C 25,7 km/h (4 Bft)
24.05.2020 13:40 13,6 C 15,6 C 68 % 1031,4 hPa 0,0 l/m 17,4 km/h (3 Bft) S-SW 208 0 min 3,4 UV-I 413 W/m 7,8 C 8,7 C 27,4 km/h (4 Bft)
24.05.2020 13:42 13,6 C 15,6 C 67 % 1031,5 hPa 0,0 l/m 14,3 km/h (3 Bft) W-SW 237 0 min 3,3 UV-I 383 W/m 7,6 C 9,7 C 25,7 km/h (4 Bft)
24.05.2020 13:44 13,4 C 15,0 C 66 % 1031,4 hPa 0,0 l/m 16,4 km/h (3 Bft) W-NW 295 0 min 2,4 UV-I 260 W/m 7,2 C 8,8 C 25,7 km/h (4 Bft)
24.05.2020 13:46 13,3 C 14,4 C 67 % 1031,4 hPa 0,0 l/m 15,2 km/h (3 Bft) W-SW 252 0 min 1,9 UV-I 236 W/m 7,3 C 9,1 C 22,5 km/h (4 Bft)
24.05.2020 13:48 13,3 C 14,4 C 69 % 1031,4 hPa 0,0 l/m 12,9 km/h (3 Bft) SW 235 0 min 2,0 UV-I 247 W/m 7,7 C 9,9 C 32,2 km/h (5 Bft)
24.05.2020 13:50 13,2 C 14,4 C 67 % 1031,6 hPa 0,0 l/m 22,6 km/h (4 Bft) W-SW 252 0 min 2,6 UV-I 280 W/m 7,2 C 6,7 C 33,8 km/h (5 Bft)
24.05.2020 13:52 13,2 C 14,4 C 69 % 1031,6 hPa 0,0 l/m 12,8 km/h (3 Bft) SW 230 0 min 2,9 UV-I 340 W/m 7,6 C 9,9 C 25,7 km/h (4 Bft)
24.05.2020 13:54 13,3 C 15,0 C 69 % 1031,5 hPa 0,0 l/m 11,7 km/h (2 Bft) SW 228 0 min 3,4 UV-I 404 W/m 7,7 C 10,4 C 19,3 km/h (3 Bft)
24.05.2020 13:56 13,4 C 16,1 C 69 % 1031,6 hPa 0,0 l/m 10,7 km/h (2 Bft) SW 217 0 min 3,6 UV-I 434 W/m 7,8 C 11,0 C 19,3 km/h (3 Bft)
24.05.2020 13:58 13,4 C 16,1 C 68 % 1031,6 hPa 0,0 l/m 14,5 km/h (3 Bft) SW 216 0 min 4,0 UV-I 455 W/m 7,6 C 9,4 C 24,1 km/h (4 Bft)
24.05.2020 14:00 13,5 C 16,7 C 68 % 1031,6 hPa 0,0 l/m 15,3 km/h (3 Bft) W-SW 252 0 min 4,9 UV-I 455 W/m 7,7 C 9,3 C 22,5 km/h (4 Bft)
24.05.2020 14:02 13,6 C 16,7 C 69 % 1031,5 hPa 0,0 l/m 13,5 km/h (3 Bft) W-SW 242 0 min 3,8 UV-I 482 W/m 8,0 C 10,1 C 24,1 km/h (4 Bft)
24.05.2020 14:04 13,8 C 17,2 C 68 % 1031,5 hPa 0,0 l/m 15,8 km/h (3 Bft) W-NW 286 0 min 4,8 UV-I 490 W/m 8,0 C 9,5 C 24,1 km/h (4 Bft)
24.05.2020 14:06 13,9 C 16,7 C 68 % 1031,6 hPa 0,0 l/m 16,8 km/h (3 Bft) S-SW 210 0 min 3,4 UV-I 420 W/m 8,1 C 9,3 C 27,4 km/h (4 Bft)
24.05.2020 14:08 13,8 C 16,1 C 68 % 1031,5 hPa 0,0 l/m 15,6 km/h (3 Bft) SW 223 0 min 2,8 UV-I 335 W/m 8,0 C 9,5 C 24,1 km/h (4 Bft)
24.05.2020 14:10 13,6 C 15,0 C 69 % 1031,6 hPa 0,0 l/m 11,9 km/h (2 Bft) W-SW 246 0 min 2,3 UV-I 280 W/m 8,0 C 10,7 C 17,7 km/h (3 Bft)
24.05.2020 14:12 13,4 C 15,0 C 68 % 1031,6 hPa 0,0 l/m 15,1 km/h (3 Bft) S 180 0 min 2,2 UV-I 276 W/m 7,6 C 9,2 C 24,1 km/h (4 Bft)
24.05.2020 14:14 13,3 C 14,4 C 69 % 1031,6 hPa 0,0 l/m 15,3 km/h (3 Bft) SW 223 0 min 2,2 UV-I 269 W/m 7,7 C 9,0 C 27,4 km/h (4 Bft)
24.05.2020 14:16 13,2 C 14,4 C 69 % 1031,6 hPa 0,0 l/m 14,0 km/h (3 Bft) SW 218 0 min 2,1 UV-I 261 W/m 7,6 C 9,4 C 22,5 km/h (4 Bft)
24.05.2020 14:18 13,1 C 14,4 C 69 % 1031,7 hPa 0,0 l/m 18,6 km/h (3 Bft) W-NW 288 0 min 2,2 UV-I 272 W/m 7,5 C 7,7 C 32,2 km/h (5 Bft)
24.05.2020 14:20 13,1 C 15,6 C 70 % 1031,7 hPa 0,0 l/m 12,2 km/h (2 Bft) W-SW 257 0 min 2,6 UV-I 322 W/m 7,8 C 10,0 C 19,3 km/h (3 Bft)
24.05.2020 14:22 13,3 C 16,1 C 70 % 1031,7 hPa 0,0 l/m 14,5 km/h (3 Bft) SW 231 0 min 4,2 UV-I 322 W/m 7,9 C 9,3 C 22,5 km/h (4 Bft)
24.05.2020 14:24 13,6 C 16,7 C 70 % 1031,6 hPa 0,0 l/m 13,2 km/h (3 Bft) W-SW 237 0 min 4,1 UV-I 472 W/m 8,2 C 10,2 C 19,3 km/h (3 Bft)
24.05.2020 14:26 13,8 C 16,7 C 69 % 1031,6 hPa 0,0 l/m 14,8 km/h (3 Bft) W-SW 251 0 min 4,2 UV-I 480 W/m 8,2 C 9,8 C 22,5 km/h (4 Bft)
24.05.2020 14:28 13,9 C 17,2 C 70 % 1031,6 hPa 0,0 l/m 12,3 km/h (3 Bft) W-SW 254 0 min 4,6 UV-I 508 W/m 8,5 C 10,9 C 16,1 km/h (3 Bft)
24.05.2020 14:30 14,3 C 17,8 C 71 % 1031,7 hPa 0,0 l/m 10,2 km/h (2 Bft) SW 231 0 min 4,1 UV-I 516 W/m 9,1 C 12,3 C 16,1 km/h (3 Bft)
24.05.2020 14:32 14,3 C 17,2 C 68 % 1031,7 hPa 0,0 l/m 12,8 km/h (3 Bft) SW 215 0 min 3,3 UV-I 392 W/m 8,5 C 11,1 C 25,7 km/h (4 Bft)
24.05.2020 14:34 14,1 C 16,7 C 68 % 1031,6 hPa 0,0 l/m 14,0 km/h (3 Bft) SW 223 0 min 3,7 UV-I 406 W/m 8,3 C 10,5 C 24,1 km/h (4 Bft)
24.05.2020 14:36 13,9 C 17,2 C 69 % 1031,6 hPa 0,0 l/m 12,7 km/h (3 Bft) SW 229 0 min 4,5 UV-I 424 W/m 8,3 C 10,7 C 24,1 km/h (4 Bft)
24.05.2020 14:38 14,2 C 17,2 C 69 % 1031,6 hPa 0,0 l/m 13,7 km/h (3 Bft) S-SW 205 0 min 6,0 UV-I 411 W/m 8,6 C 10,7 C 25,7 km/h (4 Bft)
24.05.2020 14:40 14,6 C 20,0 C 68 % 1031,7 hPa 0,0 l/m 18,0 km/h (3 Bft) SW 229 2 min 6,5 UV-I 986 W/m 8,8 C 9,8 C 30,6 km/h (5 Bft)
24.05.2020 14:42 14,7 C 19,4 C 67 % 1031,6 hPa 0,0 l/m 19,8 km/h (3 Bft) S-SW 200 2 min 6,6 UV-I 1134 W/m 8,6 C 9,4 C 30,6 km/h (5 Bft)
24.05.2020 14:44 14,6 C 19,4 C 66 % 1031,6 hPa 0,0 l/m 19,1 km/h (3 Bft) W 263 2 min 5,8 UV-I 763 W/m 8,3 C 9,5 C 29,0 km/h (5 Bft)
24.05.2020 14:46 14,6 C 18,3 C 69 % 1031,6 hPa 0,0 l/m 13,9 km/h (3 Bft) W 267 0 min 3,6 UV-I 533 W/m 9,0 C 11,1 C 27,4 km/h (4 Bft)
24.05.2020 14:48 14,4 C 17,2 C 66 % 1031,6 hPa 0,0 l/m 21,4 km/h (4 Bft) W-SW 253 0 min 3,0 UV-I 348 W/m 8,1 C 8,6 C 29,0 km/h (5 Bft)
24.05.2020 14:50 14,2 C 16,7 C 68 % 1031,6 hPa 0,0 l/m 14,5 km/h (3 Bft) SW 234 0 min 3,5 UV-I 384 W/m 8,4 C 10,4 C 25,7 km/h (4 Bft)
24.05.2020 14:52 14,1 C 17,8 C 69 % 1031,8 hPa 0,0 l/m 16,1 km/h (3 Bft) SW 219 0 min 4,9 UV-I 432 W/m 8,5 C 9,7 C 32,2 km/h (5 Bft)
24.05.2020 14:54 14,1 C 17,2 C 68 % 1031,8 hPa 0,0 l/m 17,4 km/h (3 Bft) SW 228 0 min 3,0 UV-I 374 W/m 8,3 C 9,3 C 25,7 km/h (4 Bft)
24.05.2020 14:56 13,9 C 16,1 C 68 % 1031,9 hPa 0,0 l/m 20,3 km/h (4 Bft) W-SW 240 0 min 3,1 UV-I 392 W/m 8,1 C 8,2 C 32,2 km/h (5 Bft)
24.05.2020 14:58 13,9 C 16,1 C 69 % 1031,7 hPa 0,0 l/m 18,7 km/h (3 Bft) SW 221 0 min 3,2 UV-I 412 W/m 8,3 C 8,7 C 29,0 km/h (5 Bft)
24.05.2020 15:00 13,9 C 16,1 C 68 % 1031,8 hPa 0,0 l/m 20,4 km/h (4 Bft) W 263 0 min 3,3 UV-I 422 W/m 8,1 C 8,2 C 30,6 km/h (5 Bft)
24.05.2020 15:02 13,8 C 16,1 C 69 % 1031,7 hPa 0,0 l/m 17,8 km/h (3 Bft) SW 217 0 min 3,1 UV-I 395 W/m 8,2 C 8,8 C 24,1 km/h (4 Bft)
24.05.2020 15:04 13,8 C 16,1 C 69 % 1031,7 hPa 0,0 l/m 15,6 km/h (3 Bft) SW 236 0 min 2,7 UV-I 339 W/m 8,2 C 9,5 C 29,0 km/h (5 Bft)
24.05.2020 15:06 13,8 C 16,1 C 70 % 1031,8 hPa 0,0 l/m 17,3 km/h (3 Bft) W-SW 250 0 min 2,8 UV-I 340 W/m 8,4 C 9,0 C 29,0 km/h (5 Bft)
24.05.2020 15:08 13,8 C 16,1 C 70 % 1031,8 hPa 0,0 l/m 14,1 km/h (3 Bft) W-SW 256 0 min 3,2 UV-I 392 W/m 8,4 C 10,1 C 20,9 km/h (4 Bft)
24.05.2020 15:10 13,9 C 16,1 C 69 % 1031,8 hPa 0,0 l/m 13,7 km/h (3 Bft) W 261 0 min 3,3 UV-I 386 W/m 8,3 C 10,3 C 24,1 km/h (4 Bft)
24.05.2020 15:12 13,9 C 16,7 C 69 % 1031,8 hPa 0,0 l/m 19,1 km/h (3 Bft) W-SW 258 0 min 4,2 UV-I 397 W/m 8,3 C 8,6 C 30,6 km/h (5 Bft)
24.05.2020 15:14 14,3 C 18,9 C 70 % 1031,9 hPa 0,0 l/m 14,8 km/h (3 Bft) W-SW 254 0 min 5,2 UV-I 397 W/m 8,9 C 10,4 C 25,7 km/h (4 Bft)
24.05.2020 15:16 14,5 C 18,3 C 68 % 1031,8 hPa 0,0 l/m 15,3 km/h (3 Bft) S-SW 208 0 min 3,4 UV-I 411 W/m 8,7 C 10,5 C 24,1 km/h (4 Bft)
24.05.2020 15:18 14,3 C 17,2 C 68 % 1031,9 hPa 0,0 l/m 14,7 km/h (3 Bft) S-SW 211 0 min 3,2 UV-I 413 W/m 8,5 C 10,4 C 24,1 km/h (4 Bft)
24.05.2020 15:20 14,2 C 17,2 C 69 % 1032,0 hPa 0,0 l/m 13,7 km/h (3 Bft) W 273 0 min 3,0 UV-I 380 W/m 8,6 C 10,7 C 20,9 km/h (4 Bft)
24.05.2020 15:22 14,2 C 16,7 C 69 % 1031,9 hPa 0,0 l/m 11,7 km/h (2 Bft) SW 225 0 min 2,9 UV-I 367 W/m 8,6 C 11,5 C 19,3 km/h (3 Bft)
24.05.2020 15:24 14,2 C 16,1 C 69 % 1032,0 hPa 0,0 l/m 14,9 km/h (3 Bft) W-SW 244 0 min 2,5 UV-I 330 W/m 8,6 C 10,3 C 30,6 km/h (5 Bft)
24.05.2020 15:26 13,9 C 15,6 C 69 % 1032,0 hPa 0,0 l/m 19,7 km/h (3 Bft) W 263 0 min 1,6 UV-I 217 W/m 8,3 C 8,4 C 30,6 km/h (5 Bft)
24.05.2020 15:28 13,7 C 15,0 C 70 % 1032,0 hPa 0,0 l/m 14,3 km/h (3 Bft) W-NW 283 0 min 1,4 UV-I 192 W/m 8,3 C 9,9 C 29,0 km/h (5 Bft)
24.05.2020 15:30 13,6 C 14,4 C 70 % 1032,0 hPa 0,0 l/m 16,0 km/h (3 Bft) SW 232 0 min 1,5 UV-I 205 W/m 8,2 C 9,2 C 25,7 km/h (4 Bft)
24.05.2020 15:32 13,4 C 15,0 C 72 % 1032,1 hPa 0,0 l/m 13,3 km/h (3 Bft) W-SW 250 0 min 1,7 UV-I 231 W/m 8,5 C 9,9 C 22,5 km/h (4 Bft)
24.05.2020 15:34 13,4 C 15,0 C 71 % 1032,1 hPa 0,0 l/m 13,0 km/h (3 Bft) W 279 0 min 1,4 UV-I 188 W/m 8,3 C 10,0 C 22,5 km/h (4 Bft)
24.05.2020 15:36 13,4 C 14,4 C 71 % 1032,1 hPa 0,0 l/m 15,3 km/h (3 Bft) SW 217 0 min 1,2 UV-I 167 W/m 8,3 C 9,1 C 25,7 km/h (4 Bft)
24.05.2020 15:38 13,3 C 13,9 C 72 % 1032,0 hPa 0,0 l/m 9,9 km/h (2 Bft) W-NW 298 0 min 1,1 UV-I 150 W/m 8,4 C 11,3 C 19,3 km/h (3 Bft)
24.05.2020 15:40 13,3 C 14,4 C 72 % 1032,1 hPa 0,0 l/m 13,1 km/h (3 Bft) W-SW 251 0 min 1,4 UV-I 202 W/m 8,4 C 9,9 C 19,3 km/h (3 Bft)
24.05.2020 15:42 13,3 C 15,0 C 72 % 1032,1 hPa 0,0 l/m 11,8 km/h (2 Bft) SW 229 0 min 1,8 UV-I 272 W/m 8,4 C 10,4 C 20,9 km/h (4 Bft)
24.05.2020 15:44 13,7 C 17,2 C 73 % 1032,1 hPa 0,0 l/m 8,9 km/h (2 Bft) S-SW 205 0 min 3,8 UV-I 394 W/m 8,9 C 12,2 C 14,5 km/h (3 Bft)
24.05.2020 15:46 13,8 C 17,2 C 70 % 1032,1 hPa 0,0 l/m 20,3 km/h (4 Bft) SW 217 0 min 3,0 UV-I 443 W/m 8,4 C 8,1 C 33,8 km/h (5 Bft)
24.05.2020 15:48 13,8 C 16,1 C 70 % 1032,0 hPa 0,0 l/m 18,0 km/h (3 Bft) SW 227 0 min 1,9 UV-I 260 W/m 8,4 C 8,8 C 27,4 km/h (4 Bft)
24.05.2020 15:50 13,6 C 15,0 C 70 % 1032,1 hPa 0,0 l/m 20,5 km/h (4 Bft) W-SW 256 0 min 1,4 UV-I 189 W/m 8,2 C 7,8 C 27,4 km/h (4 Bft)
24.05.2020 15:52 13,4 C 14,4 C 71 % 1032,0 hPa 0,0 l/m 11,4 km/h (2 Bft) W-SW 242 0 min 1,4 UV-I 187 W/m 8,3 C 10,7 C 20,9 km/h (4 Bft)
24.05.2020 15:54 13,2 C 14,4 C 71 % 1032,0 hPa 0,0 l/m 10,2 km/h (2 Bft) S-SW 213 0 min 1,6 UV-I 212 W/m 8,1 C 11,0 C 19,3 km/h (3 Bft)
24.05.2020 15:56 13,3 C 14,4 C 73 % 1032,1 hPa 0,0 l/m 8,0 km/h (2 Bft) W-SW 237 0 min 1,3 UV-I 174 W/m 8,6 C 12,3 C 14,5 km/h (3 Bft)
24.05.2020 15:58 13,3 C 14,4 C 73 % 1032,0 hPa 0,0 l/m 8,8 km/h (2 Bft) W 266 0 min 0,8 UV-I 114 W/m 8,6 C 11,9 C 14,5 km/h (3 Bft)
24.05.2020 16:00 13,3 C 13,9 C 73 % 1032,2 hPa 0,0 l/m 11,7 km/h (2 Bft) SW 224 0 min 0,5 UV-I 79 W/m 8,6 C 10,4 C 20,9 km/h (4 Bft)
24.05.2020 16:02 13,1 C 13,3 C 72 % 1032,1 hPa 0,0 l/m 10,1 km/h (2 Bft) W 270 0 min 0,1 UV-I 61 W/m 8,2 C 11,0 C 16,1 km/h (3 Bft)
24.05.2020 16:04 13,0 C 12,8 C 72 % 1032,2 hPa 0,0 l/m 14,2 km/h (3 Bft) W-SW 240 0 min 0,0 UV-I 54 W/m 8,1 C 9,1 C 25,7 km/h (4 Bft)
24.05.2020 16:06 12,9 C 12,8 C 72 % 1032,0 hPa 0,0 l/m 19,0 km/h (3 Bft) W-SW 252 0 min 0,0 UV-I 47 W/m 8,0 C 7,3 C 29,0 km/h (5 Bft)
24.05.2020 16:08 12,8 C 12,8 C 72 % 1032,1 hPa 0,0 l/m 15,0 km/h (3 Bft) SW 217 0 min 0,0 UV-I 41 W/m 7,9 C 8,5 C 24,1 km/h (4 Bft)
24.05.2020 16:10 12,7 C 12,8 C 73 % 1032,0 hPa 0,0 l/m 6,9 km/h (2 Bft) W-SW 240 0 min 0,0 UV-I 42 W/m 8,0 C 12,4 C 14,5 km/h (3 Bft)
24.05.2020 16:12 12,7 C 12,2 C 73 % 1032,1 hPa 0,0 l/m 15,9 km/h (3 Bft) W 275 0 min 0,0 UV-I 48 W/m 8,0 C 8,1 C 24,1 km/h (4 Bft)
24.05.2020 16:14 12,6 C 12,2 C 75 % 1032,1 hPa 0,0 l/m 13,7 km/h (3 Bft) W 262 0 min 0,0 UV-I 50 W/m 8,3 C 8,8 C 19,3 km/h (3 Bft)
24.05.2020 16:16 12,4 C 12,2 C 75 % 1032,1 hPa 0,0 l/m 10,2 km/h (2 Bft) W 267 0 min 0,0 UV-I 56 W/m 8,1 C 10,1 C 16,1 km/h (3 Bft)
24.05.2020 16:18 12,4 C 12,2 C 76 % 1032,2 hPa 0,0 l/m 9,5 km/h (2 Bft) W 261 0 min 0,0 UV-I 54 W/m 8,3 C 10,5 C 25,7 km/h (4 Bft)
24.05.2020 16:20 12,3 C 11,7 C 76 % 1032,2 hPa 0,0 l/m 18,4 km/h (3 Bft) SW 234 0 min 0,0 UV-I 48 W/m 8,2 C 6,7 C 33,8 km/h (5 Bft)
24.05.2020 16:22 12,2 C 11,7 C 76 % 1032,2 hPa 0,0 l/m 11,1 km/h (2 Bft) W 264 0 min 0,0 UV-I 44 W/m 8,1 C 9,5 C 16,1 km/h (3 Bft)
24.05.2020 16:24 12,2 C 11,7 C 77 % 1032,3 hPa 0,0 l/m 13,5 km/h (3 Bft) SW 220 0 min 0,0 UV-I 52 W/m 8,3 C 8,4 C 20,9 km/h (4 Bft)
24.05.2020 16:26 12,1 C 11,7 C 77 % 1032,3 hPa 0,0 l/m 12,9 km/h (3 Bft) W-SW 238 0 min 0,4 UV-I 63 W/m 8,2 C 8,5 C 20,9 km/h (4 Bft)
24.05.2020 16:28 12,1 C 12,2 C 78 % 1032,3 hPa 0,0 l/m 10,6 km/h (2 Bft) W-SW 253 0 min 0,5 UV-I 73 W/m 8,4 C 9,6 C 19,3 km/h (3 Bft)
24.05.2020 16:30 12,1 C 12,2 C 78 % 1032,3 hPa 0,0 l/m 10,0 km/h (2 Bft) W 271 0 min 0,6 UV-I 79 W/m 8,4 C 9,9 C 16,1 km/h (3 Bft)
24.05.2020 16:32 12,1 C 12,2 C 78 % 1032,4 hPa 0,0 l/m 11,7 km/h (2 Bft) W 261 0 min 0,6 UV-I 79 W/m 8,4 C 9,1 C 17,7 km/h (3 Bft)
24.05.2020 16:34 12,1 C 12,2 C 78 % 1032,3 hPa 0,0 l/m 10,0 km/h (2 Bft) SW 233 0 min 0,5 UV-I 72 W/m 8,4 C 9,9 C 12,9 km/h (3 Bft)
24.05.2020 16:36 12,1 C 12,2 C 78 % 1032,3 hPa 0,0 l/m 11,6 km/h (2 Bft) W-SW 244 0 min 0,5 UV-I 72 W/m 8,4 C 9,1 C 22,5 km/h (4 Bft)
24.05.2020 16:38 12,1 C 12,2 C 78 % 1032,4 hPa 0,0 l/m 12,7 km/h (3 Bft) W-SW 243 0 min 0,6 UV-I 79 W/m 8,4 C 8,6 C 19,3 km/h (3 Bft)
24.05.2020 16:40 12,2 C 12,2 C 78 % 1032,3 hPa 0,0 l/m 7,5 km/h (2 Bft) W-SW 246 0 min 0,7 UV-I 92 W/m 8,5 C 11,5 C 14,5 km/h (3 Bft)
24.05.2020 16:42 12,2 C 12,2 C 78 % 1032,4 hPa 0,0 l/m 7,4 km/h (2 Bft) W 263 0 min 0,7 UV-I 95 W/m 8,5 C 11,5 C 12,9 km/h (3 Bft)
24.05.2020 16:44 12,2 C 12,8 C 79 % 1032,3 hPa 0,0 l/m 4,6 km/h (1 Bft) S-SW 213 0 min 0,7 UV-I 101 W/m 8,7 C 12,2 C 8,0 km/h (2 Bft)
24.05.2020 16:46 12,3 C 12,8 C 78 % 1032,4 hPa 0,0 l/m 6,5 km/h (2 Bft) S-SW 209 0 min 0,8 UV-I 111 W/m 8,6 C 12,3 C 9,7 km/h (2 Bft)
24.05.2020 16:48 12,3 C 12,8 C 79 % 1032,3 hPa 0,0 l/m 5,8 km/h (2 Bft) SW 221 0 min 0,9 UV-I 119 W/m 8,8 C 12,3 C 11,3 km/h (2 Bft)
24.05.2020 16:50 12,3 C 12,8 C 78 % 1032,2 hPa 0,0 l/m 10,0 km/h (2 Bft) SW 231 0 min 0,9 UV-I 115 W/m 8,6 C 10,1 C 17,7 km/h (3 Bft)
24.05.2020 16:52 12,4 C 12,8 C 78 % 1032,3 hPa 0,0 l/m 9,2 km/h (2 Bft) SW 229 0 min 0,7 UV-I 98 W/m 8,7 C 10,7 C 14,5 km/h (3 Bft)
24.05.2020 16:54 12,4 C 12,8 C 78 % 1032,3 hPa 0,0 l/m 11,0 km/h (2 Bft) SW 231 0 min 0,6 UV-I 86 W/m 8,7 C 9,7 C 16,1 km/h (3 Bft)
24.05.2020 16:56 12,3 C 12,8 C 78 % 1032,4 hPa 0,0 l/m 8,6 km/h (2 Bft) S-SW 210 0 min 0,5 UV-I 73 W/m 8,6 C 10,9 C 16,1 km/h (3 Bft)
24.05.2020 16:58 12,3 C 12,2 C 78 % 1032,3 hPa 0,0 l/m 10,4 km/h (2 Bft) SW 217 0 min 0,5 UV-I 70 W/m 8,6 C 9,9 C 17,7 km/h (3 Bft)
24.05.2020 17:00 12,3 C 12,2 C 78 % 1032,4 hPa 0,0 l/m 11,1 km/h (2 Bft) SW 226 0 min 0,5 UV-I 72 W/m 8,6 C 9,6 C 16,1 km/h (3 Bft)
24.05.2020 17:02 12,2 C 12,2 C 79 % 1032,3 hPa 0,0 l/m 12,0 km/h (2 Bft) W-NW 300 0 min 0,1 UV-I 57 W/m 8,7 C 9,0 C 17,7 km/h (3 Bft)
24.05.2020 17:04 12,2 C 12,2 C 79 % 1032,4 hPa 0,0 l/m 12,4 km/h (3 Bft) W 262 0 min 0,0 UV-I 48 W/m 8,7 C 8,9 C 19,3 km/h (3 Bft)
24.05.2020 17:06 12,1 C 11,7 C 79 % 1032,4 hPa 0,0 l/m 14,7 km/h (3 Bft) W-SW 238 0 min 0,0 UV-I 47 W/m 8,6 C 7,8 C 24,1 km/h (4 Bft)
24.05.2020 17:08 12,0 C 11,7 C 80 % 1032,6 hPa 0,0 l/m 16,9 km/h (3 Bft) W-SW 255 0 min 0,0 UV-I 55 W/m 8,7 C 6,9 C 25,7 km/h (4 Bft)
24.05.2020 17:10 11,9 C 11,7 C 80 % 1032,5 hPa 0,0 l/m 18,6 km/h (3 Bft) W-SW 255 0 min 0,6 UV-I 92 W/m 8,6 C 6,2 C 24,1 km/h (4 Bft)
24.05.2020 17:12 11,8 C 11,7 C 81 % 1032,5 hPa 0,0 l/m 8,8 km/h (2 Bft) SW 234 0 min 0,9 UV-I 141 W/m 8,6 C 10,3 C 20,9 km/h (4 Bft)
24.05.2020 17:14 11,9 C 12,8 C 81 % 1032,4 hPa 0,0 l/m 4,6 km/h (1 Bft) W-SW 257 0 min 1,3 UV-I 184 W/m 8,7 C 11,9 C 8,0 km/h (2 Bft)
24.05.2020 17:16 12,1 C 12,8 C 81 % 1032,5 hPa 0,0 l/m 8,8 km/h (2 Bft) W 261 0 min 1,5 UV-I 209 W/m 8,9 C 10,6 C 17,7 km/h (3 Bft)
24.05.2020 17:18 12,2 C 13,3 C 81 % 1032,4 hPa 0,0 l/m 5,6 km/h (1 Bft) W-SW 248 0 min 1,5 UV-I 210 W/m 9,0 C 12,2 C 11,3 km/h (2 Bft)
24.05.2020 17:20 12,3 C 13,3 C 81 % 1032,4 hPa 0,0 l/m 8,6 km/h (2 Bft) W-SW 242 0 min 1,3 UV-I 185 W/m 9,1 C 10,9 C 12,9 km/h (3 Bft)
24.05.2020 17:22 12,3 C 13,3 C 80 % 1032,5 hPa 0,0 l/m 11,3 km/h (2 Bft) SW 230 0 min 0,9 UV-I 141 W/m 8,9 C 9,5 C 17,7 km/h (3 Bft)
24.05.2020 17:24 12,2 C 12,8 C 81 % 1032,5 hPa 0,0 l/m 6,8 km/h (2 Bft) W-SW 257 0 min 0,7 UV-I 101 W/m 9,0 C 11,9 C 14,5 km/h (3 Bft)
24.05.2020 17:26 12,2 C 12,8 C 81 % 1032,5 hPa 0,0 l/m 7,4 km/h (2 Bft) W-SW 237 0 min 0,5 UV-I 73 W/m 9,0 C 11,5 C 12,9 km/h (3 Bft)
24.05.2020 17:28 12,1 C 12,2 C 81 % 1032,6 hPa 0,0 l/m 6,5 km/h (2 Bft) SW 215 0 min 0,0 UV-I 59 W/m 8,9 C 12,1 C 11,3 km/h (2 Bft)
24.05.2020 17:30 12,0 C 12,2 C 81 % 1032,5 hPa 0,0 l/m 9,1 km/h (2 Bft) S-SW 209 0 min 0,0 UV-I 48 W/m 8,8 C 10,3 C 14,5 km/h (3 Bft)
24.05.2020 17:32 11,9 C 12,2 C 81 % 1032,5 hPa 0,0 l/m 8,4 km/h (2 Bft) W-SW 254 0 min 0,0 UV-I 38 W/m 8,7 C 10,6 C 12,9 km/h (3 Bft)
24.05.2020 17:34 11,9 C 11,7 C 82 % 1032,5 hPa 0,0 l/m 9,9 km/h (2 Bft) W-SW 247 0 min 0,0 UV-I 38 W/m 8,9 C 9,7 C 20,9 km/h (4 Bft)
24.05.2020 17:36 11,8 C 11,7 C 82 % 1032,5 hPa 0,0 l/m 13,5 km/h (3 Bft) SW 232 0 min 0,0 UV-I 31 W/m 8,8 C 7,9 C 19,3 km/h (3 Bft)
24.05.2020 17:38 11,7 C 11,1 C 83 % 1032,6 hPa 0,0 l/m 11,4 km/h (2 Bft) SW 225 0 min 0,0 UV-I 32 W/m 8,9 C 8,8 C 22,5 km/h (4 Bft)
24.05.2020 17:40 11,7 C 11,1 C 83 % 1032,6 hPa 0,0 l/m 14,1 km/h (3 Bft) SW 231 0 min 0,0 UV-I 31 W/m 8,9 C 7,6 C 27,4 km/h (4 Bft)
24.05.2020 17:42 11,6 C 11,1 C 83 % 1032,5 hPa 0,0 l/m 10,8 km/h (2 Bft) SW 223 0 min 0,0 UV-I 40 W/m 8,8 C 8,9 C 19,3 km/h (3 Bft)
24.05.2020 17:44 11,6 C 11,1 C 84 % 1032,6 hPa 0,0 l/m 11,9 km/h (2 Bft) S-SW 203 0 min 0,0 UV-I 47 W/m 9,0 C 8,4 C 20,9 km/h (4 Bft)
24.05.2020 17:46 11,5 C 11,1 C 84 % 1032,6 hPa 0,0 l/m 11,2 km/h (2 Bft) SW 227 0 min 0,0 UV-I 52 W/m 8,9 C 8,6 C 19,3 km/h (3 Bft)
24.05.2020 17:48 11,5 C 11,1 C 84 % 1032,6 hPa 0,0 l/m 9,6 km/h (2 Bft) W-SW 255 0 min 0,0 UV-I 50 W/m 8,9 C 9,5 C 19,3 km/h (3 Bft)
24.05.2020 17:50 11,4 C 11,1 C 84 % 1032,7 hPa 0,0 l/m 8,3 km/h (2 Bft) SW 216 0 min 0,0 UV-I 43 W/m 8,8 C 10,1 C 14,5 km/h (3 Bft)
24.05.2020 17:52 11,4 C 11,1 C 85 % 1032,6 hPa 0,0 l/m 8,7 km/h (2 Bft) W 267 0 min 0,0 UV-I 39 W/m 9,0 C 9,9 C 16,1 km/h (3 Bft)
24.05.2020 17:54 11,3 C 11,1 C 85 % 1032,7 hPa 0,0 l/m 8,8 km/h (2 Bft) S-SW 212 0 min 0,0 UV-I 44 W/m 8,9 C 9,7 C 14,5 km/h (3 Bft)
24.05.2020 17:56 11,3 C 11,1 C 86 % 1032,6 hPa 0,0 l/m 10,5 km/h (2 Bft) W 259 0 min 0,0 UV-I 61 W/m 9,0 C 8,8 C 14,5 km/h (3 Bft)
24.05.2020 17:58 11,3 C 11,1 C 86 % 1032,7 hPa 0,0 l/m 9,4 km/h (2 Bft) S-SW 207 0 min 0,3 UV-I 76 W/m 9,0 C 9,4 C 14,5 km/h (3 Bft)
24.05.2020 18:00 11,2 C 11,1 C 86 % 1032,7 hPa 0,0 l/m 8,5 km/h (2 Bft) SW 225 0 min 0,5 UV-I 82 W/m 8,9 C 9,8 C 12,9 km/h (3 Bft)
24.05.2020 18:02 11,2 C 11,1 C 87 % 1032,6 hPa 0,0 l/m 8,3 km/h (2 Bft) W-SW 242 0 min 0,6 UV-I 88 W/m 9,1 C 9,9 C 12,9 km/h (3 Bft)
24.05.2020 18:04 11,2 C 11,7 C 87 % 1032,6 hPa 0,0 l/m 7,9 km/h (2 Bft) SW 224 0 min 0,5 UV-I 79 W/m 9,1 C 10,2 C 12,9 km/h (3 Bft)
24.05.2020 18:06 11,2 C 11,7 C 87 % 1032,6 hPa 0,0 l/m 8,2 km/h (2 Bft) S-SW 211 0 min 0,5 UV-I 86 W/m 9,1 C 10,0 C 11,3 km/h (2 Bft)
24.05.2020 18:08 11,3 C 11,7 C 87 % 1032,7 hPa 0,0 l/m 7,0 km/h (2 Bft) SW 219 0 min 0,6 UV-I 101 W/m 9,2 C 10,9 C 11,3 km/h (2 Bft)
24.05.2020 18:10 11,3 C 11,7 C 87 % 1032,6 hPa 0,0 l/m 9,4 km/h (2 Bft) S-SW 209 0 min 0,7 UV-I 106 W/m 9,2 C 9,4 C 12,9 km/h (3 Bft)
24.05.2020 18:12 11,3 C 11,7 C 87 % 1032,7 hPa 0,0 l/m 5,6 km/h (1 Bft) S-SW 209 0 min 0,7 UV-I 105 W/m 9,2 C 11,3 C 9,7 km/h (2 Bft)
24.05.2020 18:14 11,4 C 12,2 C 87 % 1032,7 hPa 0,0 l/m 4,9 km/h (1 Bft) S-SW 205 0 min 0,7 UV-I 110 W/m 9,3 C 11,4 C 8,0 km/h (2 Bft)
24.05.2020 18:16 11,4 C 12,2 C 87 % 1032,7 hPa 0,0 l/m 8,5 km/h (2 Bft) SW 226 0 min 0,5 UV-I 88 W/m 9,3 C 10,0 C 12,9 km/h (3 Bft)
24.05.2020 18:18 11,4 C 11,7 C 87 % 1032,8 hPa 0,0 l/m 9,3 km/h (2 Bft) W-SW 245 0 min 0,5 UV-I 85 W/m 9,3 C 9,5 C 16,1 km/h (3 Bft)
24.05.2020 18:20 11,4 C 11,7 C 87 % 1032,7 hPa 0,0 l/m 7,5 km/h (2 Bft) W-SW 247 0 min 0,7 UV-I 108 W/m 9,3 C 10,7 C 16,1 km/h (3 Bft)
24.05.2020 18:22 11,4 C 12,2 C 87 % 1032,7 hPa 0,0 l/m 7,1 km/h (2 Bft) S-SW 193 0 min 0,7 UV-I 122 W/m 9,3 C 10,9 C 12,9 km/h (3 Bft)
24.05.2020 18:24 11,4 C 12,2 C 87 % 1032,7 hPa 0,0 l/m 9,0 km/h (2 Bft) SW 215 0 min 0,7 UV-I 121 W/m 9,3 C 9,7 C 14,5 km/h (3 Bft)
24.05.2020 18:26 11,4 C 12,2 C 87 % 1032,7 hPa 0,0 l/m 9,0 km/h (2 Bft) SW 233 0 min 0,7 UV-I 129 W/m 9,3 C 9,7 C 14,5 km/h (3 Bft)
24.05.2020 18:28 11,5 C 12,2 C 87 % 1032,8 hPa 0,0 l/m 4,6 km/h (1 Bft) SW 216 0 min 0,7 UV-I 126 W/m 9,4 C 11,5 C 11,3 km/h (2 Bft)
24.05.2020 18:30 11,5 C 12,2 C 87 % 1032,6 hPa 0,0 l/m 11,1 km/h (2 Bft) SW 217 0 min 0,6 UV-I 111 W/m 9,4 C 8,7 C 16,1 km/h (3 Bft)
24.05.2020 18:32 11,4 C 12,2 C 87 % 1032,6 hPa 0,0 l/m 9,1 km/h (2 Bft) S-SW 209 0 min 0,6 UV-I 106 W/m 9,3 C 9,6 C 14,5 km/h (3 Bft)
24.05.2020 18:34 11,4 C 11,7 C 87 % 1032,8 hPa 0,0 l/m 10,7 km/h (2 Bft) S-SW 208 0 min 0,6 UV-I 98 W/m 9,3 C 8,8 C 16,1 km/h (3 Bft)
24.05.2020 18:36 11,4 C 11,7 C 87 % 1032,8 hPa 0,0 l/m 7,5 km/h (2 Bft) S-SW 212 0 min 0,1 UV-I 68 W/m 9,3 C 10,7 C 14,5 km/h (3 Bft)
24.05.2020 18:38 11,3 C 11,7 C 87 % 1032,7 hPa 0,0 l/m 8,0 km/h (2 Bft) S-SW 194 0 min 0,0 UV-I 50 W/m 9,2 C 10,2 C 11,3 km/h (2 Bft)
24.05.2020 18:40 11,3 C 11,1 C 87 % 1032,7 hPa 0,0 l/m 9,8 km/h (2 Bft) SW 218 0 min 0,0 UV-I 42 W/m 9,2 C 9,1 C 16,1 km/h (3 Bft)
24.05.2020 18:42 11,2 C 11,1 C 88 % 1032,7 hPa 0,0 l/m 9,4 km/h (2 Bft) S-SW 202 0 min 0,0 UV-I 42 W/m 9,3 C 9,3 C 16,1 km/h (3 Bft)
24.05.2020 18:44 11,2 C 11,1 C 88 % 1032,8 hPa 0,0 l/m 8,8 km/h (2 Bft) S 184 0 min 0,0 UV-I 45 W/m 9,3 C 9,6 C 12,9 km/h (3 Bft)
24.05.2020 18:46 11,1 C 11,1 C 88 % 1032,8 hPa 0,0 l/m 7,6 km/h (2 Bft) SW 214 0 min 0,0 UV-I 39 W/m 9,2 C 10,3 C 11,3 km/h (2 Bft)
24.05.2020 18:48 11,1 C 11,1 C 89 % 1032,8 hPa 0,0 l/m 7,4 km/h (2 Bft) S-SW 211 0 min 0,0 UV-I 35 W/m 9,4 C 10,4 C 12,9 km/h (3 Bft)
24.05.2020 18:50 11,1 C 11,1 C 89 % 1032,8 hPa 0,0 l/m 6,6 km/h (2 Bft) S-SW 209 0 min 0,0 UV-I 40 W/m 9,4 C 11,0 C 9,7 km/h (2 Bft)
24.05.2020 18:52 11,0 C 11,1 C 89 % 1032,8 hPa 0,0 l/m 5,4 km/h (1 Bft) SW 218 0 min 0,0 UV-I 58 W/m 9,3 C 11,0 C 11,3 km/h (2 Bft)
24.05.2020 18:54 11,1 C 11,1 C 89 % 1032,8 hPa 0,0 l/m 10,3 km/h (2 Bft) W 267 0 min 0,0 UV-I 67 W/m 9,4 C 8,6 C 19,3 km/h (3 Bft)
24.05.2020 18:56 11,1 C 11,1 C 89 % 1032,9 hPa 0,0 l/m 5,8 km/h (2 Bft) W 259 0 min 0,0 UV-I 70 W/m 9,4 C 11,1 C 11,3 km/h (2 Bft)
24.05.2020 18:58 11,1 C 11,1 C 90 % 1032,8 hPa 0,0 l/m 6,6 km/h (2 Bft) SW 232 0 min 0,0 UV-I 62 W/m 9,5 C 11,0 C 12,9 km/h (3 Bft)
24.05.2020 19:00 11,1 C 11,1 C 89 % 1032,8 hPa 0,0 l/m 9,9 km/h (2 Bft) W-SW 248 0 min 0,0 UV-I 57 W/m 9,4 C 8,9 C 14,5 km/h (3 Bft)
24.05.2020 19:02 11,2 C 11,1 C 89 % 1032,9 hPa 0,0 l/m 9,8 km/h (2 Bft) W-SW 257 0 min 0,0 UV-I 61 W/m 9,5 C 9,0 C 16,1 km/h (3 Bft)
24.05.2020 19:04 11,2 C 11,1 C 89 % 1032,9 hPa 0,0 l/m 7,3 km/h (2 Bft) SW 227 0 min 0,0 UV-I 67 W/m 9,5 C 10,6 C 17,7 km/h (3 Bft)
24.05.2020 19:06 11,3 C 11,7 C 89 % 1032,9 hPa 0,0 l/m 8,1 km/h (2 Bft) SW 226 0 min 0,0 UV-I 67 W/m 9,6 C 10,2 C 17,7 km/h (3 Bft)
24.05.2020 19:08 11,3 C 11,7 C 89 % 1032,9 hPa 0,0 l/m 6,8 km/h (2 Bft) W-SW 239 0 min 0,0 UV-I 73 W/m 9,6 C 11,0 C 9,7 km/h (2 Bft)
24.05.2020 19:10 11,3 C 11,7 C 89 % 1032,9 hPa 0,0 l/m 11,1 km/h (2 Bft) W 275 0 min 0,0 UV-I 71 W/m 9,6 C 8,5 C 19,3 km/h (3 Bft)
24.05.2020 19:12 11,4 C 11,7 C 88 % 1032,9 hPa 0,0 l/m 8,9 km/h (2 Bft) W-SW 255 0 min 0,0 UV-I 53 W/m 9,5 C 9,8 C 14,5 km/h (3 Bft)
24.05.2020 19:14 11,4 C 11,7 C 88 % 1032,9 hPa 0,0 l/m 6,4 km/h (2 Bft) W 261 0 min 0,0 UV-I 42 W/m 9,5 C 11,4 C 11,3 km/h (2 Bft)
24.05.2020 19:16 11,4 C 11,7 C 88 % 1032,9 hPa 0,0 l/m 7,6 km/h (2 Bft) S-SW 201 0 min 0,0 UV-I 39 W/m 9,5 C 10,6 C 12,9 km/h (3 Bft)
24.05.2020 19:18 11,3 C 11,1 C 88 % 1032,9 hPa 0,0 l/m 7,5 km/h (2 Bft) W 279 0 min 0,0 UV-I 28 W/m 9,4 C 10,5 C 14,5 km/h (3 Bft)
24.05.2020 19:20 11,3 C 11,1 C 88 % 1032,8 hPa 0,0 l/m 6,4 km/h (2 Bft) SW 232 0 min 0,0 UV-I 24 W/m 9,4 C 11,3 C 14,5 km/h (3 Bft)
24.05.2020 19:22 11,3 C 11,1 C 88 % 1032,8 hPa 0,0 l/m 4,3 km/h (1 Bft) SW 225 0 min 0,0 UV-I 23 W/m 9,4 C 11,3 C 9,7 km/h (2 Bft)
24.05.2020 19:24 11,3 C 11,1 C 88 % 1032,8 hPa 0,0 l/m 10,6 km/h (2 Bft) SW 227 0 min 0,0 UV-I 26 W/m 9,4 C 8,7 C 17,7 km/h (3 Bft)
24.05.2020 19:26 11,3 C 11,1 C 88 % 1032,8 hPa 0,0 l/m 9,9 km/h (2 Bft) SW 217 0 min 0,0 UV-I 27 W/m 9,4 C 9,1 C 14,5 km/h (3 Bft)
24.05.2020 19:28 11,3 C 11,1 C 88 % 1032,8 hPa 0,0 l/m 8,5 km/h (2 Bft) SW 219 0 min 0,0 UV-I 25 W/m 9,4 C 9,9 C 12,9 km/h (3 Bft)
24.05.2020 19:30 11,3 C 11,1 C 88 % 1032,9 hPa 0,0 l/m 5,3 km/h (1 Bft) S-SW 208 0 min 0,0 UV-I 26 W/m 9,4 C 11,3 C 9,7 km/h (2 Bft)
24.05.2020 19:32 11,3 C 11,1 C 88 % 1032,9 hPa 0,0 l/m 6,6 km/h (2 Bft) SW 231 0 min 0,0 UV-I 26 W/m 9,4 C 11,2 C 14,5 km/h (3 Bft)
24.05.2020 19:34 11,3 C 11,1 C 88 % 1032,9 hPa 0,0 l/m 5,2 km/h (1 Bft) SW 229 0 min 0,0 UV-I 21 W/m 9,4 C 11,3 C 9,7 km/h (2 Bft)
24.05.2020 19:36 11,3 C 11,1 C 88 % 1032,8 hPa 0,0 l/m 8,2 km/h (2 Bft) SW 221 0 min 0,0 UV-I 13 W/m 9,4 C 10,1 C 14,5 km/h (3 Bft)
24.05.2020 19:38 11,3 C 11,1 C 88 % 1032,9 hPa 0,0 l/m 5,3 km/h (1 Bft) W-SW 244 0 min 0,0 UV-I 12 W/m 9,4 C 11,3 C 8,0 km/h (2 Bft)
24.05.2020 19:40 11,3 C 11,1 C 88 % 1032,9 hPa 0,0 l/m 6,1 km/h (2 Bft) SW 235 0 min 0,0 UV-I 12 W/m 9,4 C 11,3 C 11,3 km/h (2 Bft)
24.05.2020 19:42 11,3 C 11,1 C 88 % 1032,8 hPa 0,0 l/m 6,8 km/h (2 Bft) SW 215 0 min 0,0 UV-I 14 W/m 9,4 C 11,0 C 11,3 km/h (2 Bft)
24.05.2020 19:44 11,2 C 11,1 C 88 % 1032,9 hPa 0,0 l/m 7,0 km/h (2 Bft) W-SW 243 0 min 0,0 UV-I 18 W/m 9,3 C 10,8 C 11,3 km/h (2 Bft)
24.05.2020 19:46 11,3 C 11,1 C 88 % 1032,9 hPa 0,0 l/m 8,4 km/h (2 Bft) SW 232 0 min 0,0 UV-I 19 W/m 9,4 C 10,0 C 14,5 km/h (3 Bft)
24.05.2020 19:48 11,2 C 10,6 C 88 % 1032,9 hPa 0,0 l/m 11,3 km/h (2 Bft) W-SW 253 0 min 0,0 UV-I 18 W/m 9,3 C 8,2 C 16,1 km/h (3 Bft)
24.05.2020 19:50 11,2 C 10,6 C 88 % 1032,9 hPa 0,0 l/m 12,2 km/h (2 Bft) S-SW 205 0 min 0,0 UV-I 18 W/m 9,3 C 7,8 C 17,7 km/h (3 Bft)
24.05.2020 19:52 11,2 C 10,6 C 88 % 1032,9 hPa 0,0 l/m 7,8 km/h (2 Bft) W 268 0 min 0,0 UV-I 16 W/m 9,3 C 10,2 C 12,9 km/h (3 Bft)
24.05.2020 19:54 11,2 C 10,6 C 88 % 1033,0 hPa 0,0 l/m 9,0 km/h (2 Bft) W-SW 238 0 min 0,0 UV-I 16 W/m 9,3 C 9,5 C 14,5 km/h (3 Bft)
24.05.2020 19:56 11,1 C 10,6 C 89 % 1033,0 hPa 0,0 l/m 8,1 km/h (2 Bft) SW 229 0 min 0,0 UV-I 16 W/m 9,4 C 9,9 C 16,1 km/h (3 Bft)
24.05.2020 19:58 11,1 C 10,6 C 89 % 1033,0 hPa 0,0 l/m 10,5 km/h (2 Bft) W 259 0 min 0,0 UV-I 12 W/m 9,4 C 8,5 C 16,1 km/h (3 Bft)
24.05.2020 20:00 11,1 C 10,6 C 89 % 1033,0 hPa 0,0 l/m 7,3 km/h (2 Bft) W 276 0 min 0,0 UV-I 12 W/m 9,4 C 10,5 C 12,9 km/h (3 Bft)
24.05.2020 20:02 11,1 C 10,6 C 89 % 1032,9 hPa 0,0 l/m 7,3 km/h (2 Bft) W-SW 238 0 min 0,0 UV-I 14 W/m 9,4 C 10,5 C 11,3 km/h (2 Bft)
24.05.2020 20:04 11,1 C 10,6 C 89 % 1032,9 hPa 0,0 l/m 12,1 km/h (2 Bft) SW 229 0 min 0,0 UV-I 17 W/m 9,4 C 7,7 C 25,7 km/h (4 Bft)
24.05.2020 20:06 11,1 C 10,6 C 89 % 1032,9 hPa 0,0 l/m 12,5 km/h (3 Bft) W 261 0 min 0,0 UV-I 24 W/m 9,4 C 7,5 C 17,7 km/h (3 Bft)
24.05.2020 20:08 11,1 C 10,6 C 89 % 1033,0 hPa 0,0 l/m 11,1 km/h (2 Bft) SW 221 0 min 0,0 UV-I 30 W/m 9,4 C 8,2 C 17,7 km/h (3 Bft)
24.05.2020 20:10 11,1 C 10,6 C 89 % 1032,8 hPa 0,0 l/m 9,5 km/h (2 Bft) W-SW 244 0 min 0,0 UV-I 30 W/m 9,4 C 9,1 C 14,5 km/h (3 Bft)
24.05.2020 20:12 11,1 C 10,6 C 89 % 1032,9 hPa 0,0 l/m 8,5 km/h (2 Bft) S-SW 209 0 min 0,0 UV-I 29 W/m 9,4 C 9,7 C 14,5 km/h (3 Bft)
24.05.2020 20:14 11,1 C 10,6 C 89 % 1033,1 hPa 0,0 l/m 10,1 km/h (2 Bft) W-SW 251 0 min 0,0 UV-I 32 W/m 9,4 C 8,8 C 14,5 km/h (3 Bft)
24.05.2020 20:16 11,1 C 10,6 C 89 % 1033,1 hPa 0,0 l/m 8,3 km/h (2 Bft) W 271 0 min 0,0 UV-I 27 W/m 9,4 C 9,8 C 14,5 km/h (3 Bft)
24.05.2020 20:18 11,1 C 10,6 C 89 % 1033,1 hPa 0,0 l/m 10,1 km/h (2 Bft) W-SW 248 0 min 0,0 UV-I 21 W/m 9,4 C 8,8 C 14,5 km/h (3 Bft)
24.05.2020 20:20 11,1 C 10,6 C 89 % 1033,1 hPa 0,0 l/m 7,3 km/h (2 Bft) SW 218 0 min 0,0 UV-I 13 W/m 9,4 C 10,5 C 12,9 km/h (3 Bft)
24.05.2020 20:22 11,1 C 10,6 C 89 % 1033,2 hPa 0,0 l/m 10,1 km/h (2 Bft) SW 230 0 min 0,0 UV-I 11 W/m 9,4 C 8,8 C 19,3 km/h (3 Bft)
24.05.2020 20:24 11,1 C 10,6 C 89 % 1033,1 hPa 0,0 l/m 5,7 km/h (1 Bft) W-SW 242 0 min 0,0 UV-I 13 W/m 9,4 C 11,1 C 11,3 km/h (2 Bft)
24.05.2020 20:26 11,1 C 10,6 C 89 % 1033,2 hPa 0,0 l/m 4,0 km/h (1 Bft) W-SW 257 0 min 0,0 UV-I 13 W/m 9,4 C 11,1 C 6,4 km/h (2 Bft)
24.05.2020 20:28 11,1 C 10,6 C 89 % 1033,2 hPa 0,0 l/m 4,3 km/h (1 Bft) SW 231 0 min 0,0 UV-I 11 W/m 9,4 C 11,1 C 6,4 km/h (2 Bft)
24.05.2020 20:30 11,1 C 10,6 C 89 % 1033,2 hPa 0,0 l/m 3,2 km/h (1 Bft) SW 229 0 min 0,0 UV-I 14 W/m 9,4 C 11,1 C 6,4 km/h (2 Bft)
24.05.2020 20:32 11,1 C 10,6 C 89 % 1033,2 hPa 0,0 l/m 4,2 km/h (1 Bft) W-NW 288 0 min 0,0 UV-I 19 W/m 9,4 C 11,1 C 12,9 km/h (3 Bft)
24.05.2020 20:34 11,1 C 10,6 C 89 % 1033,2 hPa 0,0 l/m 7,9 km/h (2 Bft) W-SW 250 0 min 0,0 UV-I 27 W/m 9,4 C 10,1 C 14,5 km/h (3 Bft)
24.05.2020 20:36 11,1 C 10,6 C 89 % 1033,3 hPa 0,0 l/m 6,0 km/h (2 Bft) W-SW 256 0 min 0,0 UV-I 28 W/m 9,4 C 11,1 C 11,3 km/h (2 Bft)
24.05.2020 20:38 11,1 C 11,1 C 89 % 1033,2 hPa 0,0 l/m 5,8 km/h (2 Bft) W-SW 243 0 min 0,0 UV-I 30 W/m 9,4 C 11,1 C 8,0 km/h (2 Bft)
24.05.2020 20:40 11,1 C 11,1 C 89 % 1033,3 hPa 0,0 l/m 2,8 km/h (1 Bft) SW 219 0 min 0,0 UV-I 26 W/m 9,4 C 11,1 C 4,8 km/h (1 Bft)
24.05.2020 20:42 11,1 C 11,1 C 89 % 1033,3 hPa 0,0 l/m 5,6 km/h (1 Bft) W-SW 241 0 min 0,0 UV-I 23 W/m 9,4 C 11,1 C 8,0 km/h (2 Bft)
24.05.2020 20:44 11,1 C 11,1 C 89 % 1033,3 hPa 0,0 l/m 3,3 km/h (1 Bft) W-SW 257 0 min 0,0 UV-I 22 W/m 9,4 C 11,1 C 9,7 km/h (2 Bft)
24.05.2020 20:46 11,1 C 11,1 C 89 % 1033,4 hPa 0,0 l/m 5,6 km/h (1 Bft) W-SW 248 0 min 0,0 UV-I 20 W/m 9,4 C 11,1 C 11,3 km/h (2 Bft)
24.05.2020 20:48 11,1 C 11,1 C 89 % 1033,3 hPa 0,0 l/m 5,0 km/h (1 Bft) SW 221 0 min 0,0 UV-I 19 W/m 9,4 C 11,1 C 9,7 km/h (2 Bft)
24.05.2020 20:50 11,1 C 10,6 C 89 % 1033,4 hPa 0,0 l/m 4,5 km/h (1 Bft) SW 225 0 min 0,0 UV-I 18 W/m 9,4 C 11,1 C 8,0 km/h (2 Bft)
24.05.2020 20:52 11,1 C 10,6 C 89 % 1033,3 hPa 0,0 l/m 6,6 km/h (2 Bft) W-SW 254 0 min 0,0 UV-I 14 W/m 9,4 C 11,0 C 14,5 km/h (3 Bft)
24.05.2020 20:54 11,1 C 10,6 C 89 % 1033,3 hPa 0,0 l/m 6,5 km/h (2 Bft) S-SW 198 0 min 0,0 UV-I 11 W/m 9,4 C 11,1 C 9,7 km/h (2 Bft)
24.05.2020 20:56 11,1 C 10,6 C 89 % 1033,4 hPa 0,0 l/m 5,4 km/h (1 Bft) W-SW 238 0 min 0,0 UV-I 9 W/m 9,4 C 11,1 C 9,7 km/h (2 Bft)
24.05.2020 20:58 11,1 C 10,6 C 89 % 1033,4 hPa 0,0 l/m 7,2 km/h (2 Bft) SW 232 0 min 0,0 UV-I 11 W/m 9,4 C 10,5 C 12,9 km/h (3 Bft)
24.05.2020 21:00 11,0 C 10,6 C 89 % 1033,3 hPa 0,0 l/m 6,7 km/h (2 Bft) SW 226 0 min 0,0 UV-I 18 W/m 9,3 C 10,8 C 11,3 km/h (2 Bft)
24.05.2020 21:02 11,0 C 10,6 C 89 % 1033,4 hPa 0,0 l/m 4,6 km/h (1 Bft) SW 234 0 min 0,0 UV-I 21 W/m 9,3 C 11,0 C 9,7 km/h (2 Bft)
24.05.2020 21:04 10,9 C 10,6 C 89 % 1033,4 hPa 0,0 l/m 7,2 km/h (2 Bft) W-SW 238 0 min 0,0 UV-I 13 W/m 9,2 C 10,3 C 12,9 km/h (3 Bft)
24.05.2020 21:06 10,9 C 10,6 C 89 % 1033,4 hPa 0,0 l/m 7,2 km/h (2 Bft) SW 232 0 min 0,0 UV-I 10 W/m 9,2 C 10,3 C 12,9 km/h (3 Bft)
24.05.2020 21:08 10,8 C 10,6 C 89 % 1033,4 hPa 0,0 l/m 7,4 km/h (2 Bft) W-SW 250 0 min 0,0 UV-I 8 W/m 9,1 C 10,1 C 12,9 km/h (3 Bft)
24.05.2020 21:10 10,8 C 10,0 C 89 % 1033,4 hPa 0,0 l/m 6,9 km/h (2 Bft) W-SW 252 0 min 0,0 UV-I 7 W/m 9,1 C 10,5 C 12,9 km/h (3 Bft)
24.05.2020 21:12 10,8 C 10,6 C 89 % 1033,5 hPa 0,0 l/m 8,3 km/h (2 Bft) W-SW 246 0 min 0,0 UV-I 5 W/m 9,1 C 9,5 C 16,1 km/h (3 Bft)
24.05.2020 21:14 10,8 C 10,6 C 89 % 1033,5 hPa 0,0 l/m 7,4 km/h (2 Bft) W 267 0 min 0,0 UV-I 2 W/m 9,1 C 10,1 C 16,1 km/h (3 Bft)
24.05.2020 21:16 10,8 C 10,6 C 89 % 1033,5 hPa 0,0 l/m 7,2 km/h (2 Bft) W-SW 251 0 min 0,0 UV-I 0 W/m 9,1 C 10,2 C 16,1 km/h (3 Bft)
24.05.2020 21:18 10,8 C 10,6 C 89 % 1033,5 hPa 0,0 l/m 6,1 km/h (2 Bft) SW 217 0 min 0,0 UV-I 0 W/m 9,1 C 10,8 C 11,3 km/h (2 Bft)
24.05.2020 21:20 10,9 C 10,6 C 89 % 1033,5 hPa 0,0 l/m 4,9 km/h (1 Bft) S-SW 213 0 min 0,0 UV-I 0 W/m 9,2 C 10,9 C 11,3 km/h (2 Bft)
24.05.2020 21:22 10,8 C 10,6 C 89 % 1033,5 hPa 0,0 l/m 6,7 km/h (2 Bft) W-SW 250 0 min 0,0 UV-I 0 W/m 9,1 C 10,6 C 11,3 km/h (2 Bft)
24.05.2020 21:24 10,9 C 10,6 C 89 % 1033,5 hPa 0,0 l/m 6,1 km/h (2 Bft) SW 225 0 min 0,0 UV-I 0 W/m 9,2 C 10,9 C 11,3 km/h (2 Bft)
24.05.2020 21:26 10,9 C 10,6 C 89 % 1033,6 hPa 0,0 l/m 5,6 km/h (1 Bft) W-SW 241 0 min 0,0 UV-I 0 W/m 9,2 C 10,9 C 12,9 km/h (3 Bft)
24.05.2020 21:28 10,9 C 10,6 C 89 % 1033,6 hPa 0,0 l/m 7,0 km/h (2 Bft) W-SW 237 0 min 0,0 UV-I 0 W/m 9,2 C 10,5 C 11,3 km/h (2 Bft)
24.05.2020 21:30 10,9 C 10,6 C 89 % 1033,5 hPa 0,0 l/m 4,5 km/h (1 Bft) W-SW 242 0 min 0,0 UV-I 0 W/m 9,2 C 10,9 C 8,0 km/h (2 Bft)
24.05.2020 21:32 10,8 C 10,6 C 89 % 1033,6 hPa 0,0 l/m 4,7 km/h (1 Bft) W 261 0 min 0,0 UV-I 0 W/m 9,1 C 10,8 C 11,3 km/h (2 Bft)
24.05.2020 21:34 10,9 C 10,6 C 89 % 1033,6 hPa 0,0 l/m 6,1 km/h (2 Bft) W-SW 244 0 min 0,0 UV-I 0 W/m 9,2 C 10,9 C 11,3 km/h (2 Bft)
24.05.2020 21:36 10,9 C 10,6 C 89 % 1033,5 hPa 0,0 l/m 5,0 km/h (1 Bft) SW 227 0 min 0,0 UV-I 0 W/m 9,2 C 10,9 C 6,4 km/h (2 Bft)
24.05.2020 21:38 10,9 C 10,6 C 89 % 1033,5 hPa 0,0 l/m 4,6 km/h (1 Bft) W-SW 254 0 min 0,0 UV-I 0 W/m 9,2 C 10,9 C 11,3 km/h (2 Bft)
24.05.2020 21:40 10,9 C 10,6 C 89 % 1033,6 hPa 0,0 l/m 6,5 km/h (2 Bft) W-SW 245 0 min 0,0 UV-I 0 W/m 9,2 C 10,9 C 9,7 km/h (2 Bft)
24.05.2020 21:42 10,9 C 10,6 C 89 % 1033,6 hPa 0,0 l/m 4,4 km/h (1 Bft) W-SW 242 0 min 0,0 UV-I 0 W/m 9,2 C 10,9 C 8,0 km/h (2 Bft)
24.05.2020 21:44 10,9 C 10,6 C 89 % 1033,6 hPa 0,0 l/m 4,2 km/h (1 Bft) SW 230 0 min 0,0 UV-I 0 W/m 9,2 C 10,9 C 8,0 km/h (2 Bft)
24.05.2020 21:46 10,9 C 10,6 C 89 % 1033,6 hPa 0,0 l/m 4,7 km/h (1 Bft) W-SW 240 0 min 0,0 UV-I 0 W/m 9,2 C 10,9 C 12,9 km/h (3 Bft)
24.05.2020 21:48 10,8 C 10,6 C 89 % 1033,7 hPa 0,0 l/m 5,0 km/h (1 Bft) S-SW 210 0 min 0,0 UV-I 0 W/m 9,1 C 10,8 C 9,7 km/h (2 Bft)
24.05.2020 21:50 10,8 C 10,6 C 89 % 1033,7 hPa 0,0 l/m 6,2 km/h (2 Bft) W-SW 245 0 min 0,0 UV-I 0 W/m 9,1 C 10,8 C 9,7 km/h (2 Bft)
24.05.2020 21:52 10,8 C 10,6 C 89 % 1033,7 hPa 0,0 l/m 7,0 km/h (2 Bft) SW 236 0 min 0,0 UV-I 0 W/m 9,1 C 10,4 C 11,3 km/h (2 Bft)
24.05.2020 21:54 10,8 C 10,6 C 89 % 1033,7 hPa 0,0 l/m 5,1 km/h (1 Bft) SW 232 0 min 0,0 UV-I 0 W/m 9,1 C 10,8 C 11,3 km/h (2 Bft)
24.05.2020 21:56 10,8 C 10,6 C 89 % 1033,8 hPa 0,0 l/m 6,1 km/h (2 Bft) W 260 0 min 0,0 UV-I 0 W/m 9,1 C 10,8 C 11,3 km/h (2 Bft)
24.05.2020 21:58 10,8 C 10,6 C 89 % 1033,7 hPa 0,0 l/m 6,7 km/h (2 Bft) W-SW 237 0 min 0,0 UV-I 0 W/m 9,1 C 10,6 C 11,3 km/h (2 Bft)
24.05.2020 22:00 10,8 C 10,6 C 89 % 1033,8 hPa 0,0 l/m 5,6 km/h (1 Bft) SW 216 0 min 0,0 UV-I 0 W/m 9,1 C 10,8 C 11,3 km/h (2 Bft)
24.05.2020 22:02 10,8 C 10,6 C 89 % 1033,7 hPa 0,0 l/m 5,1 km/h (1 Bft) W 259 0 min 0,0 UV-I 0 W/m 9,1 C 10,8 C 8,0 km/h (2 Bft)
24.05.2020 22:04 10,8 C 10,6 C 89 % 1033,8 hPa 0,0 l/m 3,7 km/h (1 Bft) W-SW 248 0 min 0,0 UV-I 0 W/m 9,1 C 10,8 C 6,4 km/h (2 Bft)
24.05.2020 22:06 10,8 C 10,0 C 89 % 1033,8 hPa 0,0 l/m 5,9 km/h (2 Bft) SW 225 0 min 0,0 UV-I 0 W/m 9,1 C 10,8 C 11,3 km/h (2 Bft)
24.05.2020 22:08 10,8 C 10,6 C 90 % 1033,7 hPa 0,0 l/m 5,3 km/h (1 Bft) W-SW 241 0 min 0,0 UV-I 0 W/m 9,2 C 10,8 C 9,7 km/h (2 Bft)
24.05.2020 22:10 10,8 C 10,6 C 90 % 1033,8 hPa 0,0 l/m 4,2 km/h (1 Bft) SW 235 0 min 0,0 UV-I 0 W/m 9,2 C 10,8 C 8,0 km/h (2 Bft)
24.05.2020 22:12 10,8 C 10,0 C 90 % 1033,9 hPa 0,0 l/m 5,9 km/h (2 Bft) W-SW 238 0 min 0,0 UV-I 0 W/m 9,2 C 10,8 C 11,3 km/h (2 Bft)
24.05.2020 22:14 10,8 C 10,0 C 90 % 1033,8 hPa 0,0 l/m 4,6 km/h (1 Bft) W-SW 245 0 min 0,0 UV-I 0 W/m 9,2 C 10,8 C 6,4 km/h (2 Bft)
24.05.2020 22:16 10,8 C 10,0 C 90 % 1033,8 hPa 0,0 l/m 4,9 km/h (1 Bft) W-SW 243 0 min 0,0 UV-I 0 W/m 9,2 C 10,8 C 9,7 km/h (2 Bft)
24.05.2020 22:18 10,8 C 10,0 C 90 % 1033,8 hPa 0,0 l/m 5,1 km/h (1 Bft) W-SW 246 0 min 0,0 UV-I 0 W/m 9,2 C 10,8 C 8,0 km/h (2 Bft)
24.05.2020 22:20 10,8 C 10,0 C 90 % 1033,9 hPa 0,0 l/m 5,4 km/h (1 Bft) SW 227 0 min 0,0 UV-I 0 W/m 9,2 C 10,8 C 11,3 km/h (2 Bft)
24.05.2020 22:22 10,8 C 10,0 C 90 % 1034,0 hPa 0,0 l/m 6,0 km/h (2 Bft) W-SW 242 0 min 0,0 UV-I 0 W/m 9,2 C 10,8 C 12,9 km/h (3 Bft)
24.05.2020 22:24 10,8 C 10,0 C 90 % 1033,9 hPa 0,0 l/m 5,4 km/h (1 Bft) W-SW 250 0 min 0,0 UV-I 0 W/m 9,2 C 10,8 C 9,7 km/h (2 Bft)
24.05.2020 22:26 10,8 C 10,0 C 90 % 1033,9 hPa 0,0 l/m 4,4 km/h (1 Bft) W 262 0 min 0,0 UV-I 0 W/m 9,2 C 10,8 C 6,4 km/h (2 Bft)
24.05.2020 22:28 10,8 C 10,0 C 90 % 1033,9 hPa 0,0 l/m 3,5 km/h (1 Bft) W-SW 237 0 min 0,0 UV-I 0 W/m 9,2 C 10,8 C 6,4 km/h (2 Bft)
24.05.2020 22:30 10,8 C 10,0 C 90 % 1034,0 hPa 0,0 l/m 5,7 km/h (1 Bft) W-SW 252 0 min 0,0 UV-I 0 W/m 9,2 C 10,8 C 12,9 km/h (3 Bft)
24.05.2020 22:32 10,8 C 10,0 C 90 % 1034,0 hPa 0,0 l/m 4,6 km/h (1 Bft) SW 234 0 min 0,0 UV-I 0 W/m 9,2 C 10,8 C 8,0 km/h (2 Bft)
24.05.2020 22:34 10,8 C 10,0 C 90 % 1034,1 hPa 0,0 l/m 4,1 km/h (1 Bft) SW 234 0 min 0,0 UV-I 0 W/m 9,2 C 10,8 C 6,4 km/h (2 Bft)
24.05.2020 22:36 10,7 C 10,0 C 91 % 1034,0 hPa 0,2 l/m 4,4 km/h (1 Bft) W-SW 244 0 min 0,0 UV-I 0 W/m 9,3 C 10,7 C 6,4 km/h (2 Bft)
24.05.2020 22:38 10,7 C 10,0 C 91 % 1034,0 hPa 0,0 l/m 2,3 km/h (1 Bft) W-SW 244 0 min 0,0 UV-I 0 W/m 9,3 C 10,7 C 4,8 km/h (1 Bft)
24.05.2020 22:40 10,7 C 10,0 C 91 % 1034,0 hPa 0,0 l/m 3,6 km/h (1 Bft) W-SW 246 0 min 0,0 UV-I 0 W/m 9,3 C 10,7 C 4,8 km/h (1 Bft)
24.05.2020 22:42 10,7 C 10,0 C 91 % 1034,1 hPa 0,0 l/m 3,7 km/h (1 Bft) W-SW 246 0 min 0,0 UV-I 0 W/m 9,3 C 10,7 C 6,4 km/h (2 Bft)
24.05.2020 22:44 10,7 C 10,0 C 91 % 1034,0 hPa 0,0 l/m 3,5 km/h (1 Bft) W-SW 246 0 min 0,0 UV-I 0 W/m 9,3 C 10,7 C 4,8 km/h (1 Bft)
24.05.2020 22:46 10,6 C 10,0 C 91 % 1034,1 hPa 0,0 l/m 4,2 km/h (1 Bft) SW 232 0 min 0,0 UV-I 0 W/m 9,2 C 10,6 C 8,0 km/h (2 Bft)
24.05.2020 22:48 10,7 C 10,0 C 91 % 1034,0 hPa 0,2 l/m 3,2 km/h (1 Bft) W-SW 237 0 min 0,0 UV-I 0 W/m 9,3 C 10,7 C 4,8 km/h (1 Bft)
24.05.2020 22:50 10,6 C 10,0 C 91 % 1034,1 hPa 0,0 l/m 3,6 km/h (1 Bft) W-SW 246 0 min 0,0 UV-I 0 W/m 9,2 C 10,6 C 6,4 km/h (2 Bft)
24.05.2020 22:52 10,6 C 10,0 C 92 % 1034,1 hPa 0,0 l/m 2,6 km/h (1 Bft) W-SW 246 0 min 0,0 UV-I 0 W/m 9,4 C 10,6 C 6,4 km/h (2 Bft)
24.05.2020 22:54 10,6 C 10,0 C 92 % 1034,1 hPa 0,0 l/m 3,7 km/h (1 Bft) W-SW 241 0 min 0,0 UV-I 0 W/m 9,4 C 10,6 C 6,4 km/h (2 Bft)
24.05.2020 22:56 10,6 C 10,0 C 92 % 1034,0 hPa 0,0 l/m 4,8 km/h (1 Bft) W 262 0 min 0,0 UV-I 0 W/m 9,4 C 10,6 C 6,4 km/h (2 Bft)
24.05.2020 22:58 10,6 C 10,0 C 92 % 1034,1 hPa 0,0 l/m 7,8 km/h (2 Bft) W-SW 255 0 min 0,0 UV-I 0 W/m 9,4 C 9,6 C 16,1 km/h (3 Bft)
24.05.2020 23:00 10,6 C 10,0 C 92 % 1034,1 hPa 0,0 l/m 7,8 km/h (2 Bft) W 265 0 min 0,0 UV-I 0 W/m 9,4 C 9,6 C 12,9 km/h (3 Bft)
24.05.2020 23:02 10,6 C 10,0 C 92 % 1034,2 hPa 0,0 l/m 3,2 km/h (1 Bft) W-SW 254 0 min 0,0 UV-I 0 W/m 9,4 C 10,6 C 6,4 km/h (2 Bft)
24.05.2020 23:04 10,6 C 10,0 C 91 % 1034,2 hPa 0,0 l/m 3,1 km/h (1 Bft) W 269 0 min 0,0 UV-I 0 W/m 9,2 C 10,6 C 9,7 km/h (2 Bft)
24.05.2020 23:06 10,6 C 10,0 C 91 % 1034,2 hPa 0,0 l/m 2,0 km/h (1 Bft) W-NW 283 0 min 0,0 UV-I 0 W/m 9,2 C 10,6 C 6,4 km/h (2 Bft)
24.05.2020 23:08 10,6 C 10,0 C 91 % 1034,2 hPa 0,0 l/m 1,8 km/h (1 Bft) W-NW 284 0 min 0,0 UV-I 0 W/m 9,2 C 10,6 C 4,8 km/h (1 Bft)
24.05.2020 23:10 10,7 C 10,0 C 91 % 1034,3 hPa 0,0 l/m 0,6 km/h (0 Bft) W-NW 285 0 min 0,0 UV-I 0 W/m 9,3 C 10,7 C 3,2 km/h (1 Bft)
24.05.2020 23:12 10,7 C 10,0 C 91 % 1034,1 hPa 0,0 l/m 1,8 km/h (1 Bft) W-NW 285 0 min 0,0 UV-I 0 W/m 9,3 C 10,7 C 3,2 km/h (1 Bft)
24.05.2020 23:14 10,7 C 10,0 C 91 % 1034,2 hPa 0,0 l/m 3,5 km/h (1 Bft) W 263 0 min 0,0 UV-I 0 W/m 9,3 C 10,7 C 6,4 km/h (2 Bft)
24.05.2020 23:16 10,6 C 10,0 C 91 % 1034,1 hPa 0,0 l/m 3,2 km/h (1 Bft) W 266 0 min 0,0 UV-I 0 W/m 9,2 C 10,6 C 6,4 km/h (2 Bft)
24.05.2020 23:18 10,7 C 10,0 C 91 % 1034,2 hPa 0,0 l/m 2,6 km/h (1 Bft) W 267 0 min 0,0 UV-I 0 W/m 9,3 C 10,7 C 4,8 km/h (1 Bft)
24.05.2020 23:20 10,6 C 10,0 C 91 % 1034,2 hPa 0,0 l/m 3,4 km/h (1 Bft) W-SW 254 0 min 0,0 UV-I 0 W/m 9,2 C 10,6 C 4,8 km/h (1 Bft)
24.05.2020 23:22 10,6 C 10,0 C 91 % 1034,3 hPa 0,0 l/m 5,8 km/h (2 Bft) W-SW 252 0 min 0,0 UV-I 0 W/m 9,2 C 10,6 C 11,3 km/h (2 Bft)
24.05.2020 23:24 10,6 C 10,0 C 91 % 1034,2 hPa 0,0 l/m 4,4 km/h (1 Bft) W 272 0 min 0,0 UV-I 0 W/m 9,2 C 10,6 C 6,4 km/h (2 Bft)
24.05.2020 23:26 10,6 C 10,0 C 91 % 1034,3 hPa 0,0 l/m 3,5 km/h (1 Bft) W 263 0 min 0,0 UV-I 0 W/m 9,2 C 10,6 C 6,4 km/h (2 Bft)
24.05.2020 23:28 10,6 C 10,0 C 91 % 1034,2 hPa 0,0 l/m 4,0 km/h (1 Bft) W 264 0 min 0,0 UV-I 0 W/m 9,2 C 10,6 C 6,4 km/h (2 Bft)
24.05.2020 23:30 10,6 C 10,0 C 91 % 1034,2 hPa 0,0 l/m 3,2 km/h (1 Bft) W 264 0 min 0,0 UV-I 0 W/m 9,2 C 10,6 C 4,8 km/h (1 Bft)
24.05.2020 23:32 10,6 C 10,0 C 91 % 1034,2 hPa 0,0 l/m 2,3 km/h (1 Bft) W 264 0 min 0,0 UV-I 0 W/m 9,2 C 10,6 C 4,8 km/h (1 Bft)
24.05.2020 23:34 10,6 C 10,0 C 91 % 1034,2 hPa 0,0 l/m 2,5 km/h (1 Bft) W 264 0 min 0,0 UV-I 0 W/m 9,2 C 10,6 C 4,8 km/h (1 Bft)
24.05.2020 23:36 10,6 C 10,0 C 91 % 1034,2 hPa 0,0 l/m 3,5 km/h (1 Bft) W 264 0 min 0,0 UV-I 0 W/m 9,2 C 10,6 C 4,8 km/h (1 Bft)
24.05.2020 23:38 10,6 C 10,0 C 91 % 1034,2 hPa 0,0 l/m 1,2 km/h (1 Bft) W 264 0 min 0,0 UV-I 0 W/m 9,2 C 10,6 C 3,2 km/h (1 Bft)
24.05.2020 23:40 10,6 C 10,0 C 91 % 1034,2 hPa 0,0 l/m 3,5 km/h (1 Bft) W-SW 242 0 min 0,0 UV-I 0 W/m 9,2 C 10,6 C 6,4 km/h (2 Bft)
24.05.2020 23:42 10,6 C 10,0 C 91 % 1034,2 hPa 0,0 l/m 3,8 km/h (1 Bft) W-SW 238 0 min 0,0 UV-I 0 W/m 9,2 C 10,6 C 6,4 km/h (2 Bft)
24.05.2020 23:44 10,6 C 10,0 C 91 % 1034,3 hPa 0,0 l/m 1,9 km/h (1 Bft) W-SW 238 0 min 0,0 UV-I 0 W/m 9,2 C 10,6 C 4,8 km/h (1 Bft)
24.05.2020 23:46 10,6 C 10,0 C 91 % 1034,3 hPa 0,0 l/m 1,7 km/h (1 Bft) W-SW 239 0 min 0,0 UV-I 0 W/m 9,2 C 10,6 C 4,8 km/h (1 Bft)
24.05.2020 23:48 10,6 C 10,0 C 91 % 1034,2 hPa 0,0 l/m 3,5 km/h (1 Bft) W-SW 249 0 min 0,0 UV-I 0 W/m 9,2 C 10,6 C 6,4 km/h (2 Bft)
24.05.2020 23:50 10,6 C 10,0 C 91 % 1034,2 hPa 0,0 l/m 3,1 km/h (1 Bft) W-SW 248 0 min 0,0 UV-I 0 W/m 9,2 C 10,6 C 4,8 km/h (1 Bft)
24.05.2020 23:52 10,6 C 10,0 C 91 % 1034,2 hPa 0,0 l/m 4,8 km/h (1 Bft) W-SW 256 0 min 0,0 UV-I 0 W/m 9,2 C 10,6 C 8,0 km/h (2 Bft)
24.05.2020 23:54 10,6 C 10,0 C 91 % 1034,2 hPa 0,0 l/m 3,8 km/h (1 Bft) W-SW 250 0 min 0,0 UV-I 0 W/m 9,2 C 10,6 C 6,4 km/h (2 Bft)
24.05.2020 23:56 10,6 C 10,0 C 91 % 1034,2 hPa 0,0 l/m 4,2 km/h (1 Bft) W-SW 257 0 min 0,0 UV-I 0 W/m 9,2 C 10,6 C 9,7 km/h (2 Bft)
24.05.2020 23:58 10,6 C 10,0 C 91 % 1034,1 hPa 0,0 l/m 5,0 km/h (1 Bft) W 264 0 min 0,0 UV-I 0 W/m 9,2 C 10,6 C 9,7 km/h (2 Bft)
24.05.2020 23:59 10,6 C 10,0 C 91 % 1034,2 hPa 0,0 l/m 4,8 km/h (1 Bft) W 270 0 min 0,0 UV-I 0 W/m 9,2 C 10,6 C 9,7 km/h (2 Bft)
_ Min-Zeit 04:59 04:10 12:12 02:44 - 02:35 - - - - - 04:59 05:59 02:35
Minimum _ 4,6 C 2,2 C 63 % 1029,2 hPa - 0,0 km/h (0 Bft) - - - - - 2,6 C 2,1 C 1,6 km/h (1 Bft)
_ Max-Zeit 14:42 14:40 22:52 23:10 22:36 13:50 - - 10:02 12:10 14:42 19:06 12:10 12:28
Maximum _ 14,7 C 20,0 C 92 % 1034,3 hPa 0,2 l/m 22,6 km/h
W-SW (4 Bft)
- - 3 min 6,6 UV-I 1134 W/m 9,6 C 12,5 C 35,4 km/h
S-SW (5 Bft)
Durchschnitt _ 9,7 C 10,0 C 81 % 1031,4 hPa #0,4 l/m 9,1 km/h (2 Bft) SW - #1:18 h 2,4 UV-I 240 W/m 6,6 C 7,9 C 14,7 km/h (3 Bft)